[[{"header":{"parameterUnit":"m.s-1","parameterCategory":1,"la1":30.6,"la2":28.766,"lo1":-90.7593,"lo2":-88.6598,"dy":0.0162,"dx":0.0183,"nx":116,"ny":114,"refTime":"2023-05-05T18:00:00:Z","depth":0,"parameterNumber":2,"parameterNumberName":"U-component_of_WINDS"},"data":[0.0,0.0,0.0,0.0,0.0,0.0,0.0,0.0,0.0,0.0,0.0,0.0,0.0,0.0,0.0,0.0,0.0,0.0,0.0,0.0,0.0,0.0,0.0,0.0,0.0,0.0,0.0,0.0,0.0,0.0,0.0,0.0,0.0,0.0,0.0,0.0,0.0,0.0,0.0,0.0,0.0,0.0,0.0,0.0,0.0,0.0,0.0,0.0,0.0,0.0,0.0,0.0,0.0,0.0,0.0,0.0,0.0,0.0,0.0,0.0,0.0,0.0,0.0,0.0,0.0,0.0,0.0,0.0,0.0,0.0,0.0,0.0,0.0,0.0,0.0,0.0,0.0,0.0,0.0,0.0,0.0,0.0,0.0,0.0,0.0,0.0,0.0,0.0,0.0,0.0,0.0,0.0,0.0,0.0,0.0,0.0,0.0,0.0,0.0,0.0,0.0,0.0,0.0,0.0,0.0,0.0,0.0,0.0,0.0,0.0,0.0,0.0,0.0,0.0,0.0,0.0,0.0,0.0,0.0,0.0,0.0,0.0,0.0,0.0,0.0,0.0,0.0,0.0,0.0,0.0,0.0,0.0,0.0,0.0,0.0,0.0,0.0,0.0,0.0,0.0,0.0,0.0,0.0,0.0,0.0,0.0,0.0,0.0,0.0,0.0,0.0,0.0,0.0,0.0,0.0,0.0,0.0,0.0,0.0,0.0,0.0,0.0,0.0,0.0,0.0,0.0,0.0,0.0,0.0,0.0,0.0,0.0,0.0,0.0,0.0,0.0,0.0,0.0,0.0,0.0,0.0,0.0,0.0,0.0,0.0,0.0,0.0,0.0,0.0,0.0,0.0,0.0,0.0,0.0,0.0,0.0,0.0,0.0,0.0,0.0,0.0,0.0,0.0,0.0,0.0,0.0,0.0,0.0,0.0,0.0,0.0,0.0,0.0,0.0,0.0,0.0,0.0,0.0,0.0,0.0,0.0,0.0,0.0,0.0,0.0,0.0,0.0,0.0,0.0,0.0,0.0,0.0,0.0,0.0,0.0,0.0,0.0,0.0,0.0,0.0,0.0,0.0,0.0,0.0,0.0,0.0,0.0,0.0,0.0,0.0,0.0,0.0,0.0,0.0,0.0,0.0,0.0,0.0,0.0,0.0,0.0,0.0,0.0,0.0,0.0,0.0,0.0,0.0,0.0,0.0,0.0,0.0,0.0,0.0,0.0,0.0,0.0,0.0,0.0,0.0,0.0,0.0,0.0,0.0,0.0,0.0,0.0,0.0,0.0,0.0,0.0,0.0,0.0,0.0,0.0,0.0,0.0,0.0,0.0,0.0,0.0,0.0,0.0,0.0,0.0,0.0,0.0,0.0,0.0,0.0,0.0,0.0,0.0,0.0,0.0,0.0,0.0,0.0,0.0,0.0,0.0,0.0,0.0,0.0,0.0,0.0,0.0,0.0,0.0,0.0,0.0,0.0,0.0,0.0,0.0,0.0,0.0,0.0,0.0,0.0,0.0,0.0,0.0,0.0,0.0,0.0,0.0,0.0,0.0,0.0,0.0,0.0,0.0,0.0,0.0,0.0,0.0,0.0,0.0,0.0,0.0,0.0,0.0,0.0,0.0,0.0,0.0,0.0,0.0,0.0,0.0,0.0,0.0,0.0,0.0,0.0,0.0,0.0,0.0,0.0,0.0,0.0,0.0,0.0,0.0,0.0,0.0,0.0,0.0,0.0,0.0,0.0,0.0,0.0,0.0,0.0,0.0,0.0,0.0,0.0,0.0,0.0,0.0,0.0,0.0,0.0,0.0,0.0,0.0,0.0,0.0,0.0,0.0,0.0,0.0,0.0,0.0,0.0,0.0,0.0,0.0,0.0,0.0,0.0,0.0,0.0,0.0,0.0,0.0,0.0,0.0,0.0,0.0,0.0,0.0,0.0,0.0,0.0,0.0,0.0,0.0,0.0,0.0,0.0,0.0,0.0,0.0,0.0,0.0,0.0,0.0,0.0,0.0,0.0,0.0,0.0,0.0,0.0,0.0,0.0,0.0,0.0,0.0,0.0,0.0,0.0,0.0,0.0,0.0,0.0,0.0,0.0,0.0,0.0,0.0,0.0,0.0,0.0,0.0,0.0,0.0,0.0,0.0,0.0,0.0,0.0,0.0,0.0,0.0,0.0,0.0,0.0,0.0,0.0,0.0,0.0,0.0,0.0,0.0,0.0,0.0,0.0,0.0,0.0,0.0,0.0,0.0,0.0,0.0,0.0,0.0,0.0,0.0,0.0,0.0,0.0,0.0,0.0,0.0,0.0,0.0,0.0,0.0,0.0,0.0,0.0,0.0,0.0,0.0,0.0,0.0,0.0,0.0,0.0,0.0,0.0,0.0,0.0,0.0,0.0,0.0,0.0,0.0,0.0,0.0,0.0,0.0,0.0,0.0,0.0,0.0,0.0,0.0,0.0,0.0,0.0,0.0,0.0,0.0,0.0,0.0,0.0,0.0,0.0,0.0,0.0,0.0,0.0,0.0,0.0,0.0,0.0,0.0,0.0,0.0,0.0,0.0,0.0,0.0,0.0,0.0,0.0,0.0,0.0,0.0,0.0,0.0,0.0,0.0,0.0,0.0,0.0,0.0,0.0,0.0,0.0,0.0,0.0,0.0,0.0,0.0,0.0,0.0,0.0,0.0,0.0,0.0,0.0,0.0,0.0,0.0,0.0,0.0,0.0,0.0,0.0,0.0,0.0,0.0,0.0,0.0,0.0,0.0,0.0,0.0,0.0,0.0,0.0,0.0,0.0,0.0,0.0,0.0,0.0,0.0,0.0,0.0,0.0,0.0,0.0,0.0,0.0,0.0,0.0,0.0,0.0,0.0,0.0,0.0,0.0,0.0,0.0,0.0,0.0,0.0,0.0,0.0,0.0,0.0,0.0,0.0,0.0,0.0,0.0,0.0,0.0,0.0,0.0,0.0,0.0,0.0,0.0,0.0,0.0,0.0,0.0,0.0,0.0,0.0,0.0,0.0,0.0,0.0,0.0,0.0,0.0,0.0,0.0,0.0,0.0,0.0,0.0,0.0,0.0,0.0,0.0,0.0,0.0,0.0,0.0,0.0,0.0,0.0,0.0,0.0,0.0,0.0,0.0,0.0,0.0,0.0,0.0,0.0,0.0,0.0,0.0,0.0,0.0,0.0,0.0,0.0,0.0,0.0,0.0,0.0,0.0,0.0,0.0,0.0,0.0,0.0,0.0,0.0,0.0,0.0,0.0,0.0,0.0,0.0,0.0,0.0,0.0,0.0,0.0,0.0,0.0,0.0,0.0,0.0,0.0,0.0,0.0,0.0,0.0,0.0,0.0,0.0,0.0,0.0,0.0,0.0,0.0,0.0,0.0,0.0,0.0,0.0,0.0,0.0,0.0,0.0,0.0,0.0,0.0,0.0,0.0,0.0,0.0,0.0,0.0,0.0,0.0,0.0,0.0,0.0,0.0,0.0,0.0,0.0,0.0,0.0,0.0,0.0,0.0,0.0,0.0,0.0,0.0,0.0,0.0,0.0,0.0,0.0,0.0,0.0,0.0,0.0,0.0,0.0,0.0,0.0,0.0,0.0,0.0,0.0,0.0,0.0,0.0,0.0,0.0,0.0,0.0,0.0,0.0,0.0,0.0,0.0,0.0,0.0,0.0,0.0,0.0,0.0,0.0,0.0,0.0,0.0,0.0,0.0,0.0,0.0,0.0,0.0,0.0,0.0,0.0,0.0,0.0,0.0,0.0,0.0,0.0,0.0,0.0,0.0,0.0,0.0,0.0,0.0,0.0,0.0,0.0,0.0,0.0,0.0,0.0,0.0,0.0,0.0,0.0,0.0,0.0,0.0,0.0,0.0,0.0,0.0,0.0,0.0,0.0,0.0,0.0,0.0,0.0,0.0,0.0,0.0,0.0,0.0,0.0,0.0,0.0,0.0,0.0,0.0,0.0,0.0,0.0,0.0,0.0,0.0,0.0,0.0,0.0,0.0,0.0,0.0,0.0,0.0,0.0,0.0,0.0,0.0,0.0,0.0,0.0,0.0,0.0,0.0,0.0,0.0,0.0,0.0,0.0,0.0,0.0,0.0,0.0,0.0,0.0,0.0,0.0,0.0,0.0,0.0,0.0,0.0,0.0,0.0,0.0,0.0,0.0,0.0,0.0,0.0,0.0,0.0,0.0,0.0,0.0,0.0,0.0,0.0,0.0,0.0,0.0,0.0,0.0,0.0,0.0,0.0,0.0,0.0,0.0,0.0,0.0,0.0,0.0,0.0,0.0,0.0,0.0,0.0,0.0,0.0,0.0,0.0,0.0,0.0,0.0,0.0,0.0,0.0,0.0,0.0,0.0,0.0,0.0,0.0,0.0,0.0,0.0,0.0,0.0,0.0,0.0,0.0,0.0,0.0,0.0,0.0,0.0,0.0,0.0,0.0,0.0,0.0,0.0,0.0,0.0,0.0,0.0,0.0,0.0,0.0,0.0,0.0,0.0,0.0,0.0,0.0,0.0,0.0,0.0,0.0,0.0,0.0,0.0,0.0,0.0,0.0,0.0,0.0,0.0,0.0,0.0,0.0,0.0,0.0,0.0,0.0,0.0,0.0,0.0,0.0,0.0,0.0,0.0,0.0,0.0,0.0,0.0,0.0,0.0,0.0,0.0,0.0,0.0,0.0,0.0,0.0,0.0,0.0,0.0,0.0,0.0,0.0,0.0,0.0,0.0,0.0,0.0,0.0,0.0,0.0,0.0,0.0,0.0,0.0,0.0,0.0,0.0,0.0,0.0,0.0,0.0,0.0,0.0,0.0,0.0,0.0,0.0,0.0,0.0,0.0,0.0,0.0,0.0,0.0,0.0,0.0,0.0,0.0,0.0,0.0,0.0,0.0,0.0,0.0,0.0,0.0,0.0,0.0,0.0,0.0,0.0,0.0,0.0,0.0,0.0,0.0,0.0,0.0,0.0,0.0,0.0,0.0,0.0,0.0,0.0,0.0,0.0,0.0,0.0,0.0,0.0,0.0,0.0,0.0,0.0,0.0,0.0,0.0,0.0,0.0,0.0,0.0,0.0,0.0,0.0,0.0,0.0,0.0,0.0,0.0,0.0,0.0,0.0,0.0,0.0,0.0,0.0,0.0,0.0,0.0,0.0,0.0,0.0,0.0,0.0,0.0,0.0,0.0,0.0,0.0,0.0,0.0,0.0,0.0,0.0,0.0,0.0,0.0,0.0,0.0,0.0,0.0,0.0,0.0,0.0,0.0,0.0,0.0,0.0,0.0,0.0,0.0,0.0,0.0,0.0,0.0,0.0,0.0,0.0,0.0,0.0,0.0,0.0,0.0,0.0,0.0,0.0,0.0,0.0,0.0,0.0,0.0,0.0,0.0,0.0,0.0,0.0,0.0,0.0,0.0,0.0,0.0,0.0,0.0,0.0,0.0,0.0,0.0,0.0,0.0,0.0,0.0,0.0,0.0,0.0,0.0,0.0,0.0,0.0,0.0,0.0,0.0,0.0,0.0,0.0,0.0,0.0,0.0,0.0,0.0,0.0,0.0,0.0,0.0,0.0,0.0,0.0,0.0,0.0,0.0,0.0,0.0,0.0,0.0,0.0,0.0,0.0,0.0,0.0,0.0,0.0,0.0,0.0,0.0,0.0,0.0,0.0,0.0,0.0,0.0,0.0,0.0,0.0,0.0,0.0,0.0,0.0,0.0,0.0,0.0,0.0,0.0,0.0,0.0,0.0,0.0,0.0,0.0,0.0,0.0,0.0,0.0,0.0,0.0,0.0,0.0,0.0,0.0,0.0,0.0,0.0,0.0,0.0,0.0,0.0,0.0,0.0,0.0,0.0,0.0,0.0,0.0,0.0,0.0,0.0,0.0,0.0,0.0,0.0,0.0,0.0,0.0,0.0,0.0,0.0,0.0,0.0,0.0,0.0,0.0,0.0,0.0,0.0,0.0,0.0,0.0,0.0,0.0,0.0,0.0,0.0,0.0,0.0,0.0,0.0,0.0,0.0,0.0,0.0,0.0,0.0,0.0,0.0,0.0,0.0,0.0,0.0,0.0,0.0,0.0,0.0,0.0,0.0,0.0,0.0,-3.4794,-3.4998,0.0,0.0,0.0,0.0,0.0,0.0,0.0,0.0,0.0,0.0,0.0,0.0,0.0,0.0,0.0,0.0,0.0,0.0,0.0,0.0,0.0,0.0,0.0,0.0,0.0,0.0,0.0,0.0,0.0,0.0,0.0,0.0,0.0,0.0,0.0,0.0,0.0,0.0,-3.2744,-3.3121,-3.3605,-3.3368,-3.3073,-3.2804,0.0,0.0,0.0,0.0,0.0,0.0,0.0,0.0,0.0,0.0,0.0,0.0,0.0,0.0,0.0,0.0,0.0,0.0,0.0,0.0,0.0,0.0,0.0,0.0,0.0,0.0,0.0,0.0,0.0,0.0,0.0,0.0,0.0,0.0,0.0,0.0,0.0,0.0,0.0,0.0,0.0,0.0,0.0,0.0,0.0,0.0,0.0,0.0,0.0,0.0,0.0,0.0,0.0,0.0,0.0,0.0,0.0,0.0,0.0,0.0,0.0,0.0,0.0,0.0,0.0,0.0,0.0,0.0,0.0,0.0,-3.4517,-3.4779,0.0,0.0,0.0,0.0,0.0,0.0,0.0,0.0,0.0,0.0,0.0,0.0,0.0,0.0,0.0,0.0,0.0,0.0,0.0,0.0,0.0,0.0,0.0,0.0,0.0,0.0,0.0,0.0,0.0,0.0,0.0,0.0,0.0,0.0,0.0,0.0,0.0,-3.2146,-3.2083,-3.2547,-3.3493,-3.372,-3.3717,-3.3571,-3.31,0.0,0.0,0.0,0.0,0.0,0.0,0.0,0.0,0.0,0.0,0.0,0.0,0.0,0.0,0.0,0.0,0.0,0.0,0.0,0.0,0.0,0.0,0.0,0.0,0.0,0.0,0.0,0.0,0.0,0.0,0.0,0.0,0.0,0.0,0.0,0.0,0.0,0.0,0.0,0.0,0.0,0.0,0.0,0.0,0.0,0.0,0.0,0.0,0.0,0.0,0.0,0.0,0.0,0.0,0.0,0.0,0.0,0.0,0.0,0.0,0.0,0.0,0.0,-3.4558,-3.4333,-3.3954,-3.3694,-3.3387,-3.3156,-3.4185,-3.4475,-3.4211,-3.3979,0.0,0.0,0.0,0.0,0.0,0.0,0.0,0.0,0.0,0.0,0.0,0.0,0.0,0.0,0.0,0.0,0.0,0.0,0.0,0.0,0.0,-3.0134,-3.059,-3.0707,-3.0787,-3.0885,0.0,0.0,0.0,0.0,0.0,0.0,0.0,-3.1456,-3.1802,-3.1927,-3.2722,-3.3537,-3.4357,-3.4543,-3.4797,-3.5044,-3.3845,-3.3987,-3.501,0.0,0.0,0.0,0.0,0.0,0.0,0.0,0.0,0.0,0.0,0.0,0.0,0.0,0.0,0.0,0.0,0.0,0.0,0.0,0.0,0.0,0.0,0.0,0.0,0.0,0.0,0.0,0.0,0.0,0.0,0.0,0.0,0.0,0.0,0.0,0.0,0.0,0.0,0.0,0.0,0.0,-3.2374,-3.1799,0.0,0.0,0.0,0.0,0.0,0.0,0.0,0.0,0.0,0.0,0.0,0.0,0.0,-3.3924,-3.4795,-3.444,-3.4561,-3.5107,-3.4307,-3.3889,-3.3817,-3.3509,-3.3054,-3.2607,-3.3246,0.0,-3.4678,-3.4341,0.0,0.0,0.0,0.0,0.0,0.0,0.0,0.0,0.0,0.0,0.0,0.0,0.0,0.0,0.0,0.0,0.0,0.0,0.0,0.0,0.0,-3.1199,-3.1542,-3.1864,-3.144,-3.1123,-3.1165,0.0,0.0,0.0,0.0,-3.0863,-3.1052,-3.1478,-3.197,-3.2518,-3.3051,-3.3536,-3.3984,-3.4099,-3.4289,-3.455,-3.4036,-3.459,-3.5872,-3.5316,0.0,0.0,0.0,0.0,0.0,0.0,0.0,0.0,0.0,0.0,0.0,0.0,0.0,0.0,0.0,0.0,0.0,0.0,0.0,0.0,0.0,0.0,0.0,0.0,0.0,0.0,0.0,0.0,0.0,0.0,0.0,0.0,0.0,0.0,0.0,0.0,0.0,0.0,0.0,-3.3969,-3.3583,-3.2391,-3.2877,-3.2775,0.0,0.0,0.0,0.0,0.0,0.0,0.0,0.0,0.0,-3.3816,-3.393,-3.4128,-3.4471,-3.4638,-3.488,-3.5157,-3.4497,-3.3868,-3.3258,-3.278,-3.2205,-3.1636,-3.2157,-3.2818,-3.3549,-3.3244,-3.2755,-3.2202,0.0,0.0,0.0,0.0,-3.3422,-3.3932,0.0,0.0,0.0,0.0,0.0,0.0,0.0,0.0,0.0,0.0,0.0,0.0,-3.1779,-3.1839,-3.2048,-3.2441,-3.1809,-3.129,-3.1155,-3.0917,0.0,0.0,0.0,-3.1061,-3.1123,-3.1279,-3.1876,-3.2987,-3.3172,-3.3436,-3.3741,-3.3767,-3.3925,-3.4121,-3.4328,-3.5038,-3.6056,-3.5745,-3.5627,-3.5629,0.0,0.0,0.0,0.0,0.0,0.0,0.0,0.0,0.0,0.0,0.0,0.0,0.0,0.0,0.0,0.0,0.0,0.0,0.0,0.0,0.0,0.0,0.0,0.0,0.0,0.0,0.0,0.0,0.0,0.0,0.0,0.0,0.0,0.0,0.0,0.0,0.0,-3.4964,-3.4524,-3.3174,-3.3368,-3.3106,0.0,0.0,0.0,0.0,0.0,0.0,-3.3738,-3.3787,-3.3843,-3.3896,-3.4084,-3.4232,-3.4367,-3.4807,-3.5095,-3.5296,-3.4492,-3.3677,-3.2939,-3.2168,-3.1488,-3.0913,-3.1328,-3.1764,-3.2132,-3.2348,-3.2057,-3.1371,-3.1727,-3.2107,-3.2394,-3.2431,-3.2785,-3.3265,0.0,0.0,0.0,0.0,0.0,0.0,0.0,0.0,0.0,0.0,0.0,-3.1106,-3.0818,-3.104,-3.1189,-3.1016,-3.1345,-3.1408,-3.106,-3.1444,-3.1552,-3.1151,-3.1662,-3.1607,-3.0912,-3.0912,-3.1565,-3.2921,-3.3127,-3.3509,-3.4069,-3.4277,-3.4472,-3.4678,-3.5061,-3.5316,-3.5408,-3.4946,-3.5218,-3.5812,0.0,0.0,0.0,0.0,0.0,0.0,0.0,0.0,0.0,0.0,0.0,0.0,0.0,0.0,0.0,0.0,0.0,0.0,0.0,0.0,0.0,0.0,0.0,0.0,0.0,0.0,0.0,0.0,0.0,0.0,0.0,0.0,0.0,0.0,0.0,0.0,0.0,0.0,0.0,-3.4346,-3.3278,0.0,0.0,0.0,0.0,-3.3441,-3.369,-3.3961,-3.4171,-3.3772,-3.3918,-3.488,-3.423,-3.4416,-3.5663,-3.5108,-3.5119,-3.5763,-3.3858,-3.3031,-3.3031,-3.1852,-3.1179,-3.0937,-3.1207,-3.1075,-3.0807,-3.2545,-3.31,-3.2919,-3.294,-3.263,-3.2244,-3.2212,-3.2303,-3.2498,0.0,0.0,0.0,0.0,0.0,0.0,0.0,0.0,0.0,-2.9534,-3.0483,-3.1092,-3.096,-3.1251,-3.1422,-3.1349,-3.1585,-3.1663,-3.1535,-3.1345,-3.1341,-3.158,-3.1107,-3.0976,-3.1294,-3.178,-3.2378,-3.3047,-3.3064,-3.328,-3.3654,-3.3556,-3.3543,-3.3641,-3.4323,-3.4715,-3.4941,-3.5448,-3.5822,-3.6025,-3.5038,-3.3666,0.0,0.0,0.0,0.0,0.0,0.0,0.0,0.0,0.0,0.0,0.0,0.0,0.0,0.0,0.0,0.0,0.0,0.0,0.0,0.0,0.0,0.0,0.0,0.0,0.0,0.0,0.0,0.0,0.0,0.0,0.0,0.0,0.0,0.0,0.0,0.0,0.0,-3.3815,-3.3587,0.0,-3.2071,-3.2784,-3.3299,-3.3286,-3.3626,-3.3943,-3.4206,-3.4131,-3.4329,-3.4691,-3.4803,-3.5224,-3.605,-3.5769,-3.5811,-3.6194,-3.4503,-3.3495,-3.3036,-3.1978,-3.157,-3.1699,-3.1579,-3.178,-3.2243,-3.258,-3.2329,-3.1657,-3.1895,-3.203,-3.2062,-3.2062,-3.2486,-3.3043,0.0,0.0,0.0,0.0,0.0,0.0,0.0,0.0,0.0,-2.9233,-3.0309,-3.1029,-3.0861,-3.1375,-3.1702,-3.1602,-3.164,-3.1734,-3.1772,-3.1469,-3.1432,-3.1827,-3.0955,-3.0805,-3.1669,-3.1865,-3.2191,-3.2636,-3.2754,-3.2884,-3.3071,-3.3083,-3.3113,-3.3238,-3.4252,-3.4715,-3.4895,-3.5901,-3.6313,-3.6089,-3.5505,-3.4238,-3.2621,0.0,0.0,0.0,0.0,0.0,0.0,0.0,0.0,0.0,0.0,0.0,0.0,0.0,0.0,0.0,0.0,0.0,0.0,0.0,0.0,0.0,0.0,0.0,0.0,0.0,0.0,0.0,0.0,0.0,0.0,0.0,0.0,0.0,0.0,-3.5125,-3.4533,-3.3744,-3.3691,-3.3341,-3.2386,-3.3049,-3.3543,-3.3615,-3.4009,-3.4208,-3.4307,-3.4626,-3.4757,-3.4753,-3.5324,-3.5904,-3.6454,-3.6269,-3.6195,-3.636,-3.4634,-3.3557,-3.3045,-3.2078,-3.1722,-3.1905,-3.1844,-3.2148,-3.2794,-3.2545,-3.214,-3.1655,-3.1996,-3.2236,-3.244,-3.2609,-3.3042,-3.345,0.0,0.0,0.0,0.0,0.0,0.0,0.0,-2.9096,-2.9144,-3.0125,-3.0739,-3.0894,-3.0364,-3.1383,-3.1951,-3.1539,-3.1539,-3.1588,-3.1711,-3.1898,-3.1949,-3.1878,-3.1278,-3.1262,-3.1977,-3.1013,-3.0882,-3.1705,-3.2145,-3.2352,-3.2388,-3.2891,-3.3294,-3.3657,-3.4951,-3.5433,-3.5282,-3.6276,-3.6486,-3.6035,-3.5273,-3.4867,-3.4395,0.0,0.0,0.0,0.0,0.0,0.0,0.0,0.0,0.0,0.0,0.0,0.0,0.0,0.0,0.0,0.0,0.0,0.0,0.0,0.0,0.0,0.0,0.0,0.0,0.0,0.0,0.0,0.0,0.0,0.0,0.0,0.0,0.0,-3.5471,-3.4631,-3.4044,-3.4342,-3.3646,-3.3291,-3.3475,-3.3886,-3.4263,-3.4469,-3.4802,-3.4813,-3.4524,-3.5047,-3.5313,-3.519,-3.5869,-3.642,-3.6866,-3.6446,-3.6269,-3.6346,-3.4346,-3.3253,-3.3085,-3.2107,-3.1629,-3.1639,-3.2075,-3.2207,-3.2268,-3.2542,-3.2824,-3.3165,-3.3445,-3.3452,-3.3292,-3.3848,-3.3893,-3.3597,0.0,0.0,0.0,0.0,0.0,0.0,0.0,-2.8636,-2.8842,-2.9372,-3.0279,-3.0725,-3.033,-3.1383,-3.1951,-3.1539,-3.2103,-3.2354,-3.2017,-3.1953,-3.1784,-3.1394,-3.147,-3.146,-3.1472,-3.1086,-3.1042,-3.1395,-3.1383,-3.1644,-3.2182,-3.1958,-3.2336,-3.3327,-3.4087,-3.4711,-3.5245,-3.6063,-3.6243,-3.5953,-3.5078,-3.4097,-3.3156,0.0,0.0,0.0,0.0,0.0,0.0,0.0,0.0,0.0,0.0,0.0,0.0,0.0,0.0,0.0,0.0,0.0,0.0,0.0,0.0,0.0,0.0,0.0,0.0,0.0,0.0,0.0,0.0,0.0,0.0,0.0,-3.4667,-3.4284,-3.4426,-3.3738,-3.3202,-3.3241,-3.3038,-3.2978,-3.3187,-3.3616,-3.3956,-3.3988,-3.4382,-3.4579,-3.4524,-3.4953,-3.5251,-3.5201,-3.5963,-3.6462,-3.6725,-3.6362,-3.6117,-3.6018,-3.4888,-3.3983,-3.3306,-3.2929,-3.2711,-3.2575,-3.2647,-3.2826,-3.3057,-3.3115,-3.316,-3.3233,-3.3263,-3.3523,-3.3817,-3.3758,-3.3896,-3.4128,0.0,0.0,0.0,0.0,0.0,0.0,0.0,-2.8792,-2.88,-2.9307,-3.0174,-3.0487,-2.9902,-3.1336,-3.2097,-3.1435,-3.2305,-3.2605,-3.199,-3.1814,-3.1705,-3.1693,-3.1592,-3.1439,-3.1306,-3.0994,-3.0916,-3.1026,-3.1003,-3.1226,-3.1644,-3.1739,-3.2261,-3.3106,-3.3831,-3.4366,-3.4809,-3.5657,-3.5732,-3.5307,-3.4869,-3.4297,-3.363,-3.3096,-3.2462,-3.1822,-3.1481,-3.1361,-3.126,-3.0636,0.0,0.0,0.0,0.0,0.0,0.0,0.0,0.0,0.0,0.0,0.0,0.0,0.0,0.0,0.0,0.0,0.0,0.0,0.0,0.0,0.0,0.0,0.0,0.0,-3.4522,-3.3941,-3.3843,-3.3442,-3.3214,-3.3242,-3.3318,-3.3391,-3.3398,-3.3814,-3.4098,-3.4098,-3.4371,-3.4611,-3.4797,-3.5183,-3.5523,-3.5812,-3.6271,-3.6596,-3.679,-3.6118,-3.577,-3.5675,-3.4656,-3.3923,-3.3408,-3.3154,-3.2995,-3.2921,-3.3048,-3.3238,-3.3408,-3.3342,-3.3431,-3.3548,0.0,0.0,0.0,0.0,-3.3868,-3.3862,0.0,0.0,0.0,0.0,0.0,0.0,0.0,-2.9151,-2.8857,-2.9614,-3.0257,-3.0282,-2.9377,-3.1286,-3.2267,-3.1292,-3.2201,-3.2513,-3.1782,-3.1568,-3.1736,-3.2363,-3.1705,-3.135,-3.135,-3.0892,-3.0623,-3.0623,-3.0836,-3.0997,-3.1077,-3.1961,-3.2563,-3.2957,-3.3881,-3.4241,-3.4164,-3.5101,-3.5044,-3.442,-3.4629,-3.4858,-3.4904,-3.379,-3.3336,-3.3232,-3.2677,-3.2415,-3.2351,-3.2113,0.0,0.0,0.0,0.0,0.0,0.0,0.0,0.0,0.0,0.0,0.0,0.0,0.0,0.0,0.0,0.0,0.0,0.0,0.0,0.0,0.0,0.0,0.0,0.0,-3.4482,-3.3843,-3.3694,-3.3689,-3.3752,-3.3835,-3.3992,-3.4075,-3.3868,-3.4272,-3.4468,-3.4468,-3.4468,-3.4664,-3.5133,-3.5494,0.0,0.0,0.0,-3.6638,-3.6818,-3.5726,-3.5232,-3.5232,-3.3998,-3.3379,-3.3418,-3.3117,-3.3,-3.2985,-3.3301,-3.3418,-3.3418,-3.3418,-3.3607,-3.3842,-3.3963,-3.3837,-3.3587,-3.4176,-3.3887,-3.3306,0.0,0.0,0.0,0.0,0.0,0.0,0.0,-2.8744,-2.877,-2.9181,-3.0122,-3.0487,-2.9679,-3.118,-3.1954,-3.1253,-3.1842,-3.2148,-3.1884,-3.1568,-3.1704,-3.2351,-3.1893,-3.1617,-3.1617,-3.1139,-3.0927,-3.0927,-3.0739,-3.0915,-3.1356,-3.1462,-3.2036,-3.2917,-3.3486,-3.3971,-3.4348,-3.4539,-3.4544,-3.4365,-3.427,-3.4342,-3.4489,-3.4019,-3.36,-3.3175,-3.295,-3.2634,-3.2196,-3.1876,-3.1476,-3.111,-3.0789,0.0,0.0,0.0,0.0,0.0,0.0,0.0,0.0,0.0,0.0,0.0,0.0,0.0,0.0,0.0,0.0,0.0,0.0,0.0,0.0,-3.509,-3.42,-3.3568,-3.3965,-3.4317,-3.4316,-3.3668,-3.3608,-3.3811,-3.4305,-3.4469,-3.4412,-3.4199,-3.4356,-3.4608,-3.4848,-3.5547,-3.6144,-3.6675,-3.6516,-3.6327,-3.6106,-3.4859,-3.4173,-3.4163,-3.3555,0.0,-3.3408,-3.3493,-3.346,-3.3301,-3.3355,-3.3418,-3.3418,-3.3418,-3.3418,-3.3524,-3.4107,-3.4099,-3.3851,-3.4285,-3.4099,-3.3746,0.0,0.0,0.0,0.0,0.0,0.0,0.0,-2.8646,-2.8446,-2.8684,-2.93,-2.9442,-2.8654,-2.9987,-3.0693,-3.0009,-3.0547,-3.1327,-3.2152,-3.1696,-3.176,-3.2513,-3.2245,-3.1981,-3.1849,-3.154,-3.1273,-3.1139,-3.0769,-3.0762,-3.0984,-3.1087,-3.1354,-3.1768,-3.2267,-3.2569,-3.2745,-3.3085,-3.3208,-3.3125,-3.3529,-3.3551,-3.3468,-3.3542,-3.329,-3.2845,-3.2835,-3.2764,-3.2604,-3.2286,-3.1884,-3.1452,-3.1062,-3.0545,-2.9926,0.0,0.0,0.0,0.0,0.0,0.0,0.0,0.0,0.0,0.0,0.0,0.0,0.0,0.0,-3.2683,-3.3489,0.0,-3.361,-3.4642,-3.3866,-3.3281,-3.3828,-3.4076,-3.4082,-3.3763,-3.4113,-3.4438,-3.448,-3.4524,-3.4412,-3.4142,-3.4199,-3.445,-3.4801,-3.5392,-3.5891,-3.6188,-3.5985,-3.5675,-3.517,-3.4173,-3.367,-3.367,-3.3266,-3.315,-3.3408,-3.3319,-3.3338,-3.3418,-3.3418,-3.3418,-3.3418,-3.3418,-3.3418,-3.3418,-3.3796,-3.3668,-3.3375,-3.378,-3.3668,-3.3385,0.0,0.0,0.0,0.0,0.0,0.0,0.0,0.0,-2.8221,-2.8166,-2.844,-2.8324,-2.7512,-2.8686,-2.9367,-2.8869,-2.951,-3.0623,-3.2228,-3.1839,-3.1872,-3.2673,-3.2475,-3.2213,-3.1994,-3.1805,-3.1617,-3.1439,-3.0982,-3.0758,-3.0814,-3.1032,-3.095,-3.067,-3.1287,-3.1371,-3.1094,-3.1694,-3.188,-3.18,-3.248,-3.2509,-3.2195,-3.2628,-3.2644,-3.244,-3.2582,-3.2723,-3.281,-3.2581,-3.2068,-3.1486,-3.1023,-3.0565,-3.0037,-2.9392,-2.9708,0.0,0.0,0.0,0.0,0.0,0.0,0.0,0.0,-3.0288,-3.0514,-3.1594,-3.1386,-3.1516,-3.3066,-3.2686,-3.2577,-3.3904,-3.3449,-3.3092,-3.363,-3.3735,-3.3797,-3.3941,-3.4728,-3.509,-3.4624,-3.4524,-3.4412,-3.4142,-3.4086,-3.428,-3.479,-3.5132,-3.5489,-3.5699,-3.5319,-3.4933,-3.4413,-3.3591,-3.3277,-3.3418,-3.3048,-3.3111,-3.3364,-3.3111,-3.3165,-3.3418,-3.3418,-3.3418,-3.3418,-3.3418,-3.3418,-3.3418,-3.3418,-3.3213,-3.2959,-3.3301,-3.3203,-3.2969,0.0,0.0,0.0,0.0,0.0,0.0,0.0,0.0,0.0,-2.7766,-2.8076,-2.8133,-2.7539,-2.8132,-2.8789,-2.9356,-2.9975,-3.0769,-3.1724,-3.1884,-3.2136,-3.2673,-3.2288,-3.2038,-3.1994,-3.1805,-3.1749,-3.1906,-3.1439,-3.1339,-3.1584,-3.1614,-3.1356,-3.0903,-3.169,-3.1731,-3.1264,-3.144,-3.1488,-3.1442,-3.1273,-3.1086,-3.082,-3.1147,-3.1622,-3.217,-3.2427,-3.2236,-3.1837,-3.1837,-3.1625,-3.1311,-3.1057,-3.0866,-3.0661,-3.041,-3.0058,-2.9725,-2.9411,-2.9064,-2.8936,-2.9397,-2.9335,-2.9283,0.0,-3.0089,-3.0289,-3.0671,-3.1012,-3.1438,-3.1918,-3.2252,-3.2577,-3.2984,-3.2971,-3.3092,-3.363,-3.4033,-3.4286,-3.4238,-3.451,-3.4755,-3.4947,-3.4646,-3.4412,-3.4142,-3.4086,-3.428,-3.479,-3.4877,-3.5145,-3.5689,-3.4763,-3.4308,-3.4413,-3.3119,-3.2744,-3.3418,-3.3048,-3.3111,-3.3418,-3.3355,-3.3355,-3.3418,-3.3418,-3.3418,-3.3418,-3.3418,-3.3418,-3.3418,-3.3418,-3.3389,-3.3359,-3.3408,-3.3389,-3.3359,0.0,0.0,0.0,0.0,0.0,0.0,0.0,0.0,0.0,0.0,-2.7813,-2.7639,-2.7098,-2.7472,-2.8186,-2.9302,-2.9702,-3.0396,-3.1694,-3.1907,-3.2107,-3.2401,-3.211,-3.181,-3.1539,-3.1406,-3.1259,-3.1071,-3.1307,-3.1322,-3.1192,-3.1377,-3.113,-3.0503,-3.0848,-3.0708,-3.0265,-3.0568,-3.0629,-3.0544,-3.071,-3.0529,-3.0238,-3.0445,-3.072,-3.0982,-3.113,-3.1113,0.0,0.0,-3.0656,-3.0464,-3.0724,-3.0852,-3.0793,-3.0255,-3.0363,-3.0521,-3.0027,-2.9652,-2.9397,-2.9455,-2.9421,-2.9387,-2.9635,-2.9924,-3.0314,-3.0737,-3.1058,-3.1627,-3.267,-3.2644,-3.2739,-3.3492,-3.307,-3.2869,-3.3381,-3.3885,-3.4291,-3.4576,-3.563,-3.5974,-3.5102,-3.5013,-3.4791,-3.4142,-3.4086,-3.4173,-3.4356,-3.434,-3.4302,-3.4271,-3.3782,-3.3528,-3.3483,-3.2881,-3.2883,-3.3418,-3.3048,-3.3111,-3.3418,-3.3175,-3.3238,-3.3418,-3.3607,-3.367,-3.3733,-3.3922,-3.3985,-3.3985,-3.3985,-3.3985,-3.3922,-3.3544,-3.3418,-3.3418,0.0,0.0,0.0,0.0,0.0,0.0,0.0,0.0,0.0,0.0,0.0,0.0,0.0,-2.7067,-2.7814,-2.8957,-2.9474,-3.0325,-3.1648,-3.185,-3.1979,-3.2129,-3.1972,-3.1679,-3.1284,-3.1284,-3.1141,-3.0765,-3.1313,-3.14,-3.1058,-3.1364,-3.1128,-3.0487,-3.0454,-3.0182,-2.9829,-3.0017,-3.003,-2.992,-3.0121,-3.0053,-2.9794,-2.9863,-2.9988,-3.0079,-3.0034,-3.0159,0.0,0.0,-2.9612,-2.9509,-3.0216,-3.0454,-3.0429,-3.0269,-3.0699,-3.105,-3.0318,-2.9966,-2.9737,-2.9451,-2.9347,-2.9301,-2.9301,-2.9838,-3.0443,-3.0886,-3.1269,-3.1925,-3.3198,-3.2975,-3.2859,-3.3635,-3.3216,-3.2908,-3.3231,-3.3834,-3.4396,-3.4941,-3.6645,-3.7148,-3.5622,-3.5623,-3.5369,-3.4434,-3.4086,-3.3974,-3.4086,-3.383,-3.3544,-3.3173,-3.2977,-3.2835,-3.273,-3.2561,-3.2777,-3.3493,-3.3189,-3.3185,-3.3544,-3.3175,-3.3175,-3.3418,-3.367,-3.3796,-3.3922,-3.4173,-3.4298,-3.4423,-3.4423,-3.4423,-3.436,-3.3859,-3.3544,-3.3418,0.0,0.0,0.0,0.0,0.0,0.0,0.0,0.0,0.0,0.0,0.0,0.0,0.0,-2.7106,-2.7784,-2.8454,-2.9652,-3.0705,-3.1479,-3.1624,-3.1811,-3.2007,-3.1872,-3.1709,-3.1509,-3.1685,-3.1757,-3.1757,-3.1769,-3.1769,-3.1794,-3.1901,-3.1717,-3.1261,-3.1062,-3.0826,-3.0532,-3.0125,-2.9908,-2.9851,-2.9335,-2.9277,-2.9485,-2.922,-2.9369,-2.97,-2.9561,0.0,0.0,-2.9013,-2.8606,-2.8628,-2.9611,-2.9577,-2.9452,-3.0824,-3.1128,-3.0849,-3.0125,-2.9737,-2.9439,-2.9174,-2.8989,-2.8803,-2.8803,-2.9727,-3.0663,-3.0916,-3.1589,-3.2233,-3.2841,-3.2878,-3.2926,-3.2938,-3.3319,-3.3507,-3.3331,-3.413,-3.4959,-3.5528,-3.721,-3.7914,-3.6746,-3.658,-3.6117,-3.5069,-3.4142,-3.3749,-3.4086,-3.3544,-3.3116,-3.2891,-3.2493,-3.2347,-3.2573,-3.1878,-3.2284,-3.3789,-3.343,-3.3525,-3.3859,-3.3544,-3.3364,-3.3418,-3.3418,-3.3607,-3.3922,-3.3922,-3.411,-3.4423,-3.4423,-3.4423,-3.4423,-3.436,-3.3985,-3.3418,0.0,0.0,0.0,0.0,0.0,0.0,0.0,0.0,0.0,0.0,0.0,0.0,0.0,0.0,0.0,0.0,-2.9853,-3.0691,-3.1632,-3.1955,-3.2126,-3.22,-3.2528,-3.2439,-3.1827,-3.1569,-3.1327,-3.1218,-3.1203,-3.1405,-3.1729,-3.2143,-3.2209,-3.2001,-3.1781,-3.1339,-3.0758,-3.0499,-3.0193,-2.9886,-2.9703,-2.9466,-2.9121,-2.8815,-2.8555,-2.8237,0.0,0.0,0.0,-2.8195,-2.7899,-2.7809,-2.8989,-2.9577,-2.9977,-3.0871,-3.0916,-3.0589,-2.9817,-2.9588,-2.9393,-2.8989,-2.885,-2.8803,-2.8803,-2.9506,-3.0182,-3.0267,-3.0838,-3.1453,-3.1839,-3.2162,-3.244,-3.2635,-3.3073,-3.3431,-3.353,-3.3945,-3.4411,-3.4769,-3.6438,-3.7178,-3.6033,-3.7053,-3.7026,-3.5135,-3.468,-3.439,-3.4086,-3.3342,-3.2825,-3.2798,-3.2204,-3.2127,-3.2475,-3.2216,-3.2505,-3.3337,-3.3506,-3.3603,-3.3515,-3.3668,-3.3607,-3.3418,-3.3859,-3.411,-3.4298,-3.4735,-3.4984,-3.5046,-3.5046,-3.5046,-3.5046,-3.5046,-3.461,-3.411,0.0,0.0,0.0,0.0,0.0,0.0,0.0,0.0,0.0,0.0,0.0,0.0,0.0,0.0,0.0,0.0,0.0,-3.1053,-3.2064,-3.2354,-3.2585,-3.2837,-3.3162,-3.3068,-3.2398,-3.2031,-3.168,-3.1397,-3.1009,-3.0955,-3.122,-3.1605,-3.173,-3.163,-3.1559,-3.1136,-3.0433,-3.0052,-2.9727,-2.9382,-2.9033,-2.8784,-2.8582,-2.8072,-2.7643,0.0,0.0,0.0,-2.7411,-2.7461,-2.736,-2.7499,-2.8896,-2.9726,-3.0256,-3.0509,-3.0473,-3.0211,-2.9772,-2.9634,-2.9542,-2.9035,-2.8978,-2.9035,-2.8943,-2.9562,-3.0117,-3.0081,-3.0979,-3.1893,-3.2077,-3.2537,-3.2979,-3.3177,-3.3415,-3.363,-3.3679,-3.4047,-3.4469,-3.5063,-3.6507,-3.7151,-3.6312,-3.7618,-3.7575,-3.518,-3.4791,-3.439,-3.3805,-3.3105,-3.2696,-3.2685,-3.2238,-3.215,-3.2482,-3.2317,-3.248,-3.3053,-3.3508,-3.3679,-3.3656,-3.3813,-3.3836,-3.3796,-3.4235,-3.4485,-3.461,-3.5046,-3.5294,-3.5418,-3.5418,-3.5418,-3.5418,-3.5418,-3.5046,-3.461,0.0,0.0,0.0,0.0,0.0,0.0,0.0,0.0,0.0,0.0,0.0,0.0,0.0,0.0,0.0,0.0,0.0,0.0,-3.2667,-3.2796,-3.313,-3.3837,-3.3846,-3.3651,-3.3211,-3.3053,-3.2769,-3.2328,-3.1233,-3.0582,-3.0367,-3.0454,-3.0388,-3.0251,-3.0515,-3.0266,-2.9607,-2.8834,-2.8497,-2.8401,-2.7352,-2.733,-2.7804,-2.6965,0.0,0.0,0.0,0.0,-2.6484,-2.6698,-2.7052,-2.7562,-2.9259,-2.9931,-3.0082,-2.9965,-2.9849,-2.9829,-2.9886,-2.9886,-2.9748,-2.9266,-2.9301,-2.9451,-2.9229,-2.9933,-3.061,-3.0431,-3.1919,-3.3269,-3.325,-3.3839,-3.4349,-3.4326,-3.4193,-3.4,-3.3729,-3.4325,-3.5109,-3.615,-3.7224,-3.7767,-3.7548,-3.8228,-3.766,-3.518,-3.4479,-3.3918,-3.3306,-3.2898,-3.2716,-3.2753,-3.2477,-3.2477,-3.2742,-3.2133,-3.2173,-3.2881,-3.3399,-3.3839,-3.4197,-3.3912,-3.398,-3.4383,-3.4393,-3.459,-3.4922,-3.4922,-3.5108,-3.5418,-3.5418,-3.5418,-3.5418,-3.5418,-3.517,-3.4922,0.0,0.0,0.0,0.0,0.0,0.0,0.0,0.0,0.0,0.0,0.0,0.0,0.0,0.0,0.0,0.0,0.0,0.0,-3.3135,-3.3263,-3.3743,-3.4736,-3.5229,-3.5221,-3.4668,-3.4242,-3.3637,-3.2919,-3.1622,-3.1088,-3.128,-3.0671,-3.0553,-3.0675,-2.9936,-2.9306,-2.8841,-2.8012,-2.7424,-2.6988,0.0,-2.6257,-2.6054,0.0,0.0,0.0,0.0,-2.4659,-2.5417,-2.5537,-2.634,-2.7557,-2.9121,-2.9405,-2.9272,-2.9909,-3.0011,-2.9897,-2.9909,-2.9886,-2.984,-2.9497,-2.9439,-2.9676,-3.0379,-3.0897,-3.1292,-3.1558,-3.2374,-3.2883,-3.2507,-3.3218,-3.3748,-3.3348,-3.385,-3.4198,-3.3776,-3.3884,-3.4202,-3.4844,-3.5528,-3.6028,-3.6397,-3.693,-3.6731,-3.54,-3.5168,-3.478,-3.4188,-3.3466,-3.3182,-3.3332,-3.3115,-3.3012,-3.3069,-3.2669,-3.2549,-3.2788,-3.3231,-3.3371,-3.3268,-3.3545,-3.3761,-3.394,-3.4248,-3.4554,-3.4922,-3.517,-3.5294,-3.5418,-3.5418,-3.5418,-3.5418,-3.5418,-3.517,-3.4922,0.0,0.0,0.0,0.0,0.0,0.0,0.0,0.0,0.0,0.0,0.0,0.0,0.0,0.0,0.0,0.0,0.0,0.0,0.0,-3.4044,-3.4546,-3.5757,-3.6099,-3.6034,-3.5574,-3.5073,-3.4456,-3.3679,-3.2027,0.0,-3.0828,-3.0239,-2.9839,-2.9564,-2.9221,-2.8586,-2.7743,-2.7005,0.0,0.0,0.0,0.0,0.0,0.0,0.0,0.0,0.0,-2.4199,-2.5104,-2.6192,-2.7138,-2.8052,-2.8791,-2.8845,-2.8723,-2.9261,-2.9247,-2.9133,-2.9427,-2.9484,-2.9541,-2.9612,-2.9715,-2.9965,-3.0649,-3.1279,-3.1739,-3.1712,-3.2798,-3.364,-3.3191,-3.3714,-3.4114,-3.3947,-3.3927,-3.3893,-3.3714,-3.3779,-3.4185,-3.5012,-3.5455,-3.5989,-3.6661,-3.6937,-3.6712,-3.5872,-3.5444,-3.4902,-3.4132,-3.3523,-3.342,-3.3805,-3.342,-3.3193,-3.3193,-3.2851,-3.2669,-3.2669,-3.2975,-3.3076,-3.3145,-3.3412,-3.3766,-3.4268,-3.4451,-3.4769,-3.5108,-3.5294,-3.5418,-3.5418,-3.5418,-3.5294,-3.517,-3.517,-3.4984,-3.4673,0.0,0.0,0.0,0.0,0.0,0.0,0.0,0.0,0.0,0.0,0.0,0.0,0.0,0.0,0.0,0.0,0.0,0.0,0.0,0.0,0.0,-3.6599,-3.6616,-3.6445,-3.6163,-3.58,-3.5213,-3.4409,-3.2575,-3.1156,0.0,0.0,0.0,0.0,0.0,0.0,0.0,0.0,0.0,0.0,0.0,0.0,0.0,0.0,0.0,0.0,-2.3725,-2.4154,-2.5198,-2.7505,-2.8385,-2.8465,-2.8424,-2.8377,-2.8345,-2.8389,-2.8254,-2.8215,-2.8854,-2.9059,-2.9265,-2.975,-3.0068,-3.0411,-3.0749,-3.1577,-3.2144,-3.1734,-3.3472,-3.4929,-3.4512,-3.4783,-3.5073,-3.5179,-3.4284,-3.3634,-3.3746,-3.3922,-3.4498,-3.5624,-3.6036,-3.6518,-3.7394,-3.7554,-3.7156,-3.6271,-3.5532,-3.4758,-3.3861,-3.3402,-3.3427,-3.3989,-3.3491,-3.325,-3.325,-3.2908,-3.2737,-3.2794,-3.2737,-3.2934,-3.3354,-3.3354,-3.3793,-3.4723,-3.4723,-3.4982,-3.5396,-3.5397,-3.5387,-3.5396,-3.5397,-3.5232,-3.4984,-3.4984,-3.4735,-3.4485,0.0,0.0,0.0,0.0,0.0,0.0,0.0,0.0,0.0,0.0,0.0,0.0,0.0,0.0,0.0,0.0,0.0,0.0,0.0,0.0,0.0,0.0,-3.6792,-3.7043,-3.6983,-3.6753,-3.5937,-3.447,-3.3697,-3.2524,0.0,0.0,0.0,0.0,0.0,0.0,0.0,0.0,0.0,0.0,0.0,0.0,0.0,0.0,0.0,0.0,-2.4074,-2.4458,-2.4737,-2.6975,-2.7619,-2.7555,-2.8216,-2.8244,-2.8095,-2.8345,-2.8462,-2.8632,-2.8904,-2.9511,-3.0003,-3.0097,-3.0481,-3.1102,-3.1995,-3.2629,-3.318,-3.3492,-3.4894,-3.5806,-3.4842,-3.561,-3.6091,-3.5237,-3.5138,-3.4831,-3.4044,-3.398,-3.419,-3.4618,-3.4895,-3.5561,-3.6794,-3.714,-3.6801,-3.5718,-3.5916,-3.5676,-3.4813,-3.3809,-3.3306,-3.3417,-3.3479,-3.3512,-3.3512,-3.2955,-3.2851,-3.3136,-3.2841,-3.2882,-3.3251,-3.2965,-3.3337,-3.4246,-3.4246,-3.4625,-3.5244,-3.5324,-3.5323,-3.5254,-3.5334,-3.5356,-3.5294,-3.5294,-3.5108,-3.4797,0.0,0.0,0.0,0.0,0.0,0.0,0.0,0.0,0.0,0.0,-3.2113,-3.1839,0.0,0.0,0.0,0.0,0.0,0.0,0.0,0.0,0.0,0.0,0.0,0.0,-3.7449,-3.7373,-3.6587,-3.5071,0.0,-3.33,-3.1481,-3.0763,-2.9863,-2.8815,-2.8266,-2.7385,-2.6296,0.0,0.0,-2.4187,-2.3943,-2.3644,0.0,0.0,0.0,0.0,0.0,-2.4938,-2.5511,-2.6825,-2.7616,-2.7981,-2.7865,-2.8478,-2.9057,-2.8402,-2.8614,-2.9052,-2.9026,-2.907,-2.9254,-2.9623,-3.0117,-3.0783,-3.1841,-3.3019,-3.3975,-3.4334,-3.5383,-3.6004,-3.5421,-3.5559,-3.5576,-3.5216,-3.5129,-3.4877,-3.4108,-3.4106,-3.4402,-3.4976,-3.5266,-3.588,-3.7092,-3.6932,-3.6383,-3.5358,-3.5165,-3.4913,-3.4417,-3.3868,-3.3344,-3.2976,-3.3027,-3.3219,-3.3409,-3.304,-3.2941,-3.3193,-3.3022,-3.2965,-3.2908,-3.2794,-3.3089,-3.371,-3.371,-3.4087,-3.4643,-3.4691,-3.471,-3.4674,-3.4961,-3.4809,-3.4502,-3.4738,-3.4523,-3.4019,0.0,0.0,0.0,0.0,0.0,0.0,0.0,-3.2623,-3.2574,-3.2574,-3.3161,-3.3059,-3.1635,-3.2945,0.0,0.0,0.0,0.0,0.0,0.0,0.0,0.0,0.0,0.0,0.0,0.0,0.0,-3.5628,-3.5185,0.0,0.0,0.0,0.0,0.0,-2.894,-2.808,-2.6661,-2.6489,-2.5786,0.0,0.0,-2.4567,0.0,0.0,0.0,0.0,0.0,-2.5396,-2.6233,-2.6995,-2.793,-2.8735,-2.8055,-2.8857,-2.9866,-2.8665,-2.8799,-2.9265,-2.9071,-2.8695,-2.8521,-2.9143,-2.9659,-3.032,-3.1508,-3.3047,-3.4255,-3.4629,-3.5498,-3.6092,-3.5805,-3.5432,-3.5212,-3.5294,-3.5253,-3.4993,-3.4411,-3.4616,-3.4976,-3.5392,-3.5809,-3.6362,-3.7103,-3.6713,-3.6102,-3.5265,-3.4494,-3.3886,-3.3529,-3.3584,-3.3301,-3.2598,-3.2523,-3.2695,-3.3071,-3.2914,-3.2892,-3.3046,-3.314,-3.3079,-3.2898,-3.2841,-3.309,-3.3505,-3.3505,-3.3703,-3.4046,-3.409,-3.4069,-3.4087,-3.4424,-3.4264,-3.3878,-3.4024,-3.3821,-3.3452,0.0,0.0,0.0,0.0,0.0,0.0,0.0,-3.2854,-3.2789,-3.2852,-3.4002,-3.4375,-3.3132,-3.3973,0.0,0.0,0.0,0.0,0.0,0.0,0.0,0.0,0.0,0.0,0.0,0.0,0.0,-3.5771,-3.5724,0.0,0.0,0.0,0.0,0.0,0.0,-2.9229,-2.9077,-2.769,0.0,0.0,0.0,0.0,0.0,0.0,0.0,0.0,0.0,-2.5499,-2.6125,-2.7446,-2.8585,-2.942,-2.955,-2.9529,-2.946,-2.9319,-2.9159,-2.9011,-2.9005,-2.8957,-2.8974,-2.9239,-2.9588,-3.0216,-3.1739,-3.2768,-3.3573,-3.4268,-3.5659,-3.6407,-3.5393,-3.5915,-3.6356,-3.5825,-3.6194,-3.6277,-3.5531,-3.5904,-3.5888,-3.4989,-3.5771,-3.6231,-3.584,-3.6227,-3.6228,-3.5529,-3.4792,-3.3806,-3.2588,-3.2907,-3.2918,-3.2407,-3.2309,-3.2275,-3.2328,-3.2435,-3.2577,-3.2563,-3.2993,-3.3296,-3.3512,-3.3239,-3.3387,-3.3748,-3.3748,-3.3817,-3.3859,-3.4004,-3.4001,-3.3795,-3.3721,-3.4122,-3.4591,-3.3618,-3.369,-3.4085,0.0,0.0,0.0,0.0,0.0,0.0,0.0,-3.2948,-3.3062,-3.3609,-3.4477,-3.4818,-3.4158,-3.5139,0.0,0.0,0.0,0.0,0.0,0.0,0.0,0.0,0.0,0.0,0.0,0.0,-3.7906,-3.6886,-3.6678,0.0,0.0,0.0,0.0,0.0,0.0,-2.9927,-2.9227,-2.8593,0.0,0.0,0.0,0.0,0.0,0.0,0.0,0.0,0.0,0.0,-2.7448,-2.7742,-2.9131,-3.0789,-3.0956,-3.1117,-3.1105,-3.0651,-3.0767,-3.0889,-3.0245,-2.9738,-2.9402,-2.9443,-3.0054,-3.0917,-3.1901,-3.3063,-3.4076,-3.4568,-3.5165,-3.5431,-3.4799,-3.474,-3.4859,-3.4964,-3.5269,-3.5422,-3.5137,-3.531,-3.5356,-3.5079,-3.5702,-3.6042,-3.5786,-3.558,-3.4965,-3.3723,-3.3749,-3.3446,-3.2457,-3.2704,-3.2636,-3.1946,-3.1891,-3.1972,-3.2338,-3.2373,-3.2394,-3.2333,-3.2524,-3.2454,-3.2308,-3.2423,-3.2586,-3.2706,-3.2997,-3.333,-3.3673,-3.3356,-3.344,-3.3669,-3.353,-3.3489,-3.3486,-3.3156,-3.3062,-3.3064,0.0,0.0,0.0,0.0,0.0,0.0,-3.3086,-3.3008,-3.3176,-3.3765,-3.4632,-3.5066,-3.4707,-3.5865,-3.6163,-3.497,0.0,0.0,0.0,0.0,0.0,0.0,0.0,0.0,0.0,0.0,-3.8274,-3.7665,-3.746,-3.6486,0.0,0.0,-3.336,-3.1593,0.0,0.0,0.0,0.0,0.0,0.0,0.0,0.0,0.0,0.0,0.0,0.0,0.0,0.0,0.0,0.0,0.0,-3.1769,-3.2089,-3.2597,-3.2933,-3.2085,-3.2129,-3.2259,-3.1496,-3.0699,-3.0144,-3.0311,-3.0755,-3.1372,-3.2352,-3.3439,-3.439,-3.4851,-3.5029,-3.5043,-3.4587,-3.4399,-3.4354,-3.4616,-3.497,-3.523,-3.505,-3.5186,-3.5286,-3.5226,-3.5675,-3.5939,-3.5825,-3.5346,-3.4396,-3.2992,-3.3404,-3.3515,-3.2968,-3.2787,-3.2427,-3.1859,-3.1552,-3.1611,-3.2151,-3.2057,-3.1902,-3.1739,-3.1984,-3.1895,-3.1556,-3.1826,-3.2145,-3.2399,-3.2633,-3.3088,-3.3692,-3.3006,-3.3042,-3.3444,-3.3053,-3.2895,-3.2886,-3.2482,-3.2331,-3.2372,0.0,0.0,0.0,0.0,0.0,0.0,0.0,-3.3101,-3.3088,-3.3013,-3.4391,-3.5188,-3.4671,-3.5926,-3.6632,-3.6229,0.0,0.0,0.0,0.0,0.0,0.0,0.0,0.0,0.0,0.0,-3.8613,-3.78,-3.7923,-3.7019,-3.5185,-3.5055,-3.4271,-3.2928,0.0,0.0,0.0,0.0,0.0,0.0,0.0,0.0,0.0,0.0,0.0,0.0,0.0,0.0,0.0,0.0,0.0,0.0,0.0,-3.3822,-3.4465,-3.3469,-3.2825,-3.2394,-3.237,-3.1845,-3.1415,-3.1957,-3.1528,-3.1468,-3.3192,-3.3798,-3.4234,-3.5017,-3.5615,-3.5722,-3.4949,-3.5392,-3.5718,-3.5283,-3.5841,-3.6183,-3.5673,-3.6074,-3.6114,-3.5308,-3.5661,-3.59,-3.5627,-3.5514,-3.5055,-3.4061,-3.4238,-3.4347,-3.4172,-3.3045,-3.2383,-3.2372,-3.1333,-3.1051,-3.1498,-3.1243,-3.0998,-3.0698,-3.1469,-3.1797,-3.1808,-3.1961,-3.2514,-3.3341,-3.2895,-3.3205,-3.401,-3.3085,-3.2889,-3.3089,-3.2178,-3.2455,-3.32,-3.1503,-3.1563,-3.2342,0.0,0.0,0.0,0.0,0.0,0.0,0.0,-3.3648,-3.4046,-3.4616,-3.5468,-3.6114,-3.6425,-3.6747,-3.6791,-3.644,0.0,0.0,0.0,0.0,0.0,0.0,0.0,0.0,0.0,0.0,-3.8236,-3.8205,-3.811,-3.7237,-3.5636,-3.5999,-3.5198,-3.3455,-3.2703,-3.2276,0.0,0.0,0.0,0.0,0.0,0.0,-2.9389,0.0,0.0,0.0,0.0,0.0,0.0,0.0,0.0,0.0,0.0,0.0,0.0,-3.4299,-3.4247,-3.3756,-3.2866,-3.2721,-3.2828,-3.284,-3.2942,-3.3223,-3.3973,-3.4346,-3.4579,-3.4618,-3.4793,-3.4736,-3.4135,-3.4345,-3.4531,-3.4198,-3.4828,-3.5176,-3.4827,-3.5072,-3.534,-3.5463,-3.5321,-3.5178,-3.5074,-3.4309,-3.3919,-3.3986,-3.3869,-3.3451,-3.2692,-3.2503,-3.2345,-3.2255,-3.1295,-3.1051,-3.1498,-3.1392,-3.1243,-3.0998,-3.1198,-3.1218,-3.1067,-3.1094,-3.1322,-3.1688,-3.1865,-3.2584,-3.3474,-3.2736,-3.2878,-3.3419,-3.252,-3.234,-3.25,-3.1558,-3.1365,-3.1639,0.0,0.0,0.0,0.0,0.0,0.0,0.0,-3.3926,-3.4453,-3.4955,-3.5773,-3.6451,-3.6781,-3.6929,-3.6869,-3.6544,0.0,0.0,0.0,0.0,0.0,0.0,0.0,0.0,0.0,-3.7791,-3.8136,-3.8411,-3.8214,-3.7489,-3.6206,-3.6751,-3.6117,-3.453,-3.3724,-3.3139,0.0,0.0,0.0,0.0,0.0,0.0,-3.041,0.0,0.0,0.0,0.0,0.0,0.0,0.0,0.0,0.0,0.0,0.0,0.0,0.0,-3.5028,-3.4934,-3.4008,-3.3801,-3.3884,-3.4059,-3.4069,-3.4115,-3.4603,-3.4927,-3.4964,-3.4511,-3.433,-3.4148,-3.3635,-3.3746,-3.3839,-3.3726,-3.4501,-3.4952,-3.4491,-3.4796,-3.5024,-3.476,-3.5116,-3.4912,-3.3718,-3.3686,-3.3632,-3.3401,-3.3104,-3.2616,-3.203,-3.1964,-3.1881,-3.1885,-3.1106,-3.0831,-3.1169,-3.1011,-3.0821,-3.0504,-3.0504,-3.0355,-3.0099,-3.0048,-3.0326,-3.083,-3.102,-3.1853,0.0,-3.2493,-3.2548,-3.2908,-3.2334,-3.2031,-3.1785,-3.1333,-3.1218,-3.1218,0.0,0.0,0.0,0.0,0.0,0.0,0.0,0.0,0.0,0.0,-3.5595,-3.6381,-3.6104,-3.6626,0.0,0.0,0.0,0.0,0.0,0.0,0.0,0.0,0.0,0.0,0.0,-3.8027,-3.8089,-3.8251,-3.8089,-3.7562,-3.6715,-3.7218,-3.6934,-3.5964,-3.4913,-3.4062,0.0,0.0,0.0,0.0,0.0,0.0,0.0,0.0,0.0,0.0,0.0,0.0,0.0,0.0,0.0,0.0,0.0,0.0,0.0,0.0,0.0,0.0,0.0,-3.4959,-3.4637,-3.5341,-3.4798,-3.4222,-3.5053,-3.5368,0.0,-3.4579,-3.4208,-3.3911,-3.3395,-3.3501,-3.3641,-3.3726,-3.4742,-3.5278,-3.4475,-3.5093,-3.5037,-3.3558,-3.509,-3.5091,-3.2105,-3.3546,-3.4041,-3.2562,-3.2108,-3.1943,-3.2136,-3.1433,-3.1144,-3.1322,-3.0694,-3.0454,-3.07,-3.0243,-2.9931,-2.971,-2.9657,-2.9489,-2.9245,-2.8972,-2.9539,-3.0634,-3.0382,-3.1116,-3.2426,-3.2296,-3.1973,-3.1644,-3.168,-3.1486,-3.1061,-3.0954,-3.1054,-3.1218,0.0,0.0,0.0,0.0,0.0,0.0,0.0,0.0,0.0,0.0,0.0,-3.7199,-3.6882,-3.6983,0.0,0.0,0.0,0.0,0.0,0.0,0.0,0.0,0.0,0.0,0.0,-3.6381,-3.6441,-3.6872,-3.645,-3.6022,-3.5664,-3.6509,-3.6665,-3.6291,-3.5814,-3.509,0.0,0.0,0.0,0.0,0.0,0.0,0.0,0.0,0.0,0.0,-3.1927,-3.1758,0.0,0.0,0.0,0.0,0.0,0.0,0.0,0.0,-3.4482,-3.4431,-3.4801,0.0,-3.5009,-3.5016,-3.466,-3.4519,0.0,-3.5223,-3.4945,-3.4715,-3.4078,-3.3527,-3.3571,-3.3327,-3.3273,-3.3825,-3.4709,-3.4997,-3.4217,-3.4973,-3.5459,-3.5074,-3.5405,-3.5251,-3.4152,-3.3399,-3.2952,-3.3016,-3.2196,-3.1579,-3.1449,-3.1103,-3.0674,-3.0315,-2.9993,-3.0096,-3.0667,-3.0339,-3.0331,-3.0767,-3.0278,-3.0278,-3.0597,-2.933,-2.9196,-3.0022,-3.017,-3.0408,-3.0789,-3.1313,-3.1264,-3.0874,-3.0932,-3.0893,-3.0797,-3.0848,-3.0947,-3.0947,0.0,0.0,0.0,0.0,0.0,0.0,0.0,0.0,0.0,0.0,0.0,0.0,0.0,0.0,0.0,0.0,0.0,0.0,0.0,0.0,0.0,0.0,0.0,0.0,-3.6338,-3.5724,-3.5768,-3.648,-3.5778,-3.5496,-3.5639,-3.6314,-3.682,-3.7072,-3.6552,0.0,0.0,0.0,0.0,0.0,-3.3456,0.0,0.0,0.0,0.0,0.0,-3.2169,-3.1798,0.0,-3.1787,-3.218,-3.2606,0.0,0.0,0.0,0.0,-3.4423,-3.4092,-3.4261,-3.4479,-3.4663,-3.4748,-3.4527,-3.4424,-3.5246,-3.5078,-3.4715,-3.4462,-3.385,-3.3298,-3.3322,-3.3012,-3.2864,-3.3389,-3.4217,-3.4647,-3.4217,-3.4331,-3.4612,-3.4818,-3.4842,-3.4721,-3.4471,-3.341,-3.2767,-3.2808,-3.1954,-3.1322,-3.123,-3.0931,-3.062,-3.0193,-2.9931,-3.0003,-3.0367,-3.0197,-3.0293,-3.0568,-3.024,-3.0081,-2.9974,-2.8977,-2.873,-2.9128,-2.9749,-2.983,-2.9707,-3.0826,-3.0744,-2.9836,-3.0227,-3.0327,-3.0207,-3.0468,-3.0703,-3.083,0.0,0.0,0.0,0.0,0.0,0.0,0.0,0.0,0.0,0.0,0.0,0.0,0.0,0.0,0.0,0.0,0.0,0.0,0.0,0.0,0.0,0.0,0.0,-3.5528,-3.6208,-3.5406,-3.5399,-3.6264,-3.5487,-3.5384,-3.5904,-3.6426,-3.7128,-3.7988,-3.7278,-3.6765,0.0,0.0,-3.4891,-3.4643,-3.4108,0.0,0.0,0.0,0.0,0.0,0.0,0.0,0.0,-3.1616,-3.2173,-3.2802,-3.2935,0.0,0.0,0.0,0.0,0.0,-3.3771,-3.3789,-3.4004,-3.4419,-3.4177,-3.404,-3.4763,-3.474,-3.439,-3.3971,-3.3445,-3.3049,-3.2957,-3.2546,-3.2438,-3.2992,-3.3622,-3.42,-3.4505,-3.3738,-3.3445,-3.4262,-3.4128,-3.3952,-3.3862,-3.3406,-3.2879,-3.2326,-3.1674,-3.127,-3.127,-3.0983,-3.0724,-3.0547,-3.0141,-2.9994,-3.0099,-3.0047,-3.0047,-3.0047,-2.9994,-2.9627,-2.8887,-2.8504,-2.8398,-2.8471,-2.9353,-2.9405,-2.8966,-3.0479,-3.0201,-2.8922,-2.9648,-2.9816,-2.9689,-3.0054,-3.0505,-3.0791,0.0,0.0,0.0,0.0,0.0,0.0,0.0,0.0,0.0,0.0,0.0,0.0,0.0,0.0,0.0,0.0,0.0,0.0,0.0,0.0,0.0,0.0,-3.4521,-3.45,-3.4974,-3.43,-3.4232,-3.483,-3.4664,-3.4902,-3.5506,-3.643,-3.7444,-3.8476,-3.8362,-3.8003,-3.7424,-3.6643,-3.5854,-3.5037,-3.4244,0.0,0.0,0.0,0.0,0.0,0.0,0.0,0.0,-3.2015,-3.1974,-3.196,-3.2762,0.0,0.0,0.0,0.0,0.0,-3.3021,-3.3089,-3.3349,-3.3453,-3.3219,-3.3126,-3.3706,-3.3513,-3.3244,-3.3373,-3.2637,-3.2218,-3.3104,-3.2094,-3.1745,-3.3537,-3.336,-3.3638,-3.5467,-3.4109,-3.363,-3.5794,-3.4811,-3.3806,-3.3357,-3.2812,-3.2301,-3.1771,-3.1622,-3.1527,-3.1527,-3.1086,-3.0879,-3.1075,-3.013,-2.9984,-3.0672,-3.0203,-3.0088,-3.0349,-3.0099,-2.9942,-2.9784,-2.8973,-2.8751,-2.9026,-2.9657,-2.9487,-2.8836,-2.977,-2.9611,-2.8769,-2.9268,-2.959,-2.9848,-3.0224,-3.0505,-3.0657,0.0,0.0,0.0,0.0,0.0,0.0,0.0,0.0,0.0,0.0,0.0,0.0,0.0,0.0,0.0,0.0,0.0,0.0,0.0,0.0,0.0,-3.4923,-3.4399,-3.4364,-3.4945,-3.4525,-3.4648,-3.5294,-3.5256,-3.5498,-3.6073,-3.6947,-3.763,-3.8135,-3.8363,-3.8221,-3.7788,-3.7131,-3.6353,-3.5512,0.0,0.0,0.0,0.0,0.0,0.0,0.0,0.0,0.0,0.0,-3.2262,-3.2308,-3.2945,0.0,0.0,0.0,0.0,0.0,-3.268,-3.2523,-3.2572,-3.2552,-3.2683,-3.2994,-3.3515,-3.3161,-3.2884,-3.3617,-3.3133,-3.2609,-3.2767,-3.2464,-3.2443,-3.3162,-3.2325,-3.2016,-3.3382,-3.2498,-3.2375,-3.4016,-3.3052,-3.252,-3.311,-3.2545,-3.2043,-3.1763,-3.1919,-3.1913,-3.164,-3.1384,-3.1178,-3.0983,-3.0661,-3.0453,-3.036,-3.0412,-3.0401,-3.0391,-3.0297,-3.0088,-2.9774,-2.9396,-2.9122,-2.9132,-2.9911,-2.9701,-2.8983,-2.9869,-2.9711,-2.895,-2.916,-2.9487,-2.9886,-3.0338,-3.0548,-3.0616,0.0,0.0,0.0,0.0,0.0,0.0,0.0,0.0,0.0,0.0,0.0,0.0,0.0,0.0,0.0,0.0,0.0,0.0,0.0,0.0,-3.5291,-3.4994,-3.4546,-3.4511,-3.4987,-3.4897,-3.5155,-3.5803,-3.6006,-3.6382,-3.6988,-3.7546,-3.7876,-3.7976,-3.8205,-3.8177,-3.786,-3.7296,-3.6615,-3.5864,0.0,0.0,0.0,0.0,0.0,0.0,0.0,0.0,0.0,0.0,0.0,0.0,0.0,0.0,0.0,-3.3688,-3.3556,-3.3295,-3.2798,-3.2396,-3.2124,-3.2289,-3.2575,-3.2995,-3.3421,-3.3042,-3.2891,-3.3733,-3.3543,-3.3036,-3.2453,-3.2726,-3.2812,-3.2101,-3.1272,-3.096,-3.1644,-3.121,-3.1314,-3.2448,-3.163,-3.1464,-3.277,-3.2295,-3.1845,-3.1804,-3.2204,-3.2164,-3.1549,-3.1527,-3.1322,-3.0983,-3.1023,-3.0765,-3.0203,-3.0464,-3.0569,-3.0454,-3.0391,-3.0245,-2.9913,-2.9761,-2.9562,-2.9389,-3.0139,-2.9972,-2.929,-2.9982,-2.9856,-2.9237,-2.9132,-2.9343,-2.9789,-3.0242,-3.0363,-3.032,0.0,0.0,0.0,0.0,0.0,0.0,0.0,0.0,0.0,0.0,0.0,0.0,0.0,0.0,0.0,0.0,0.0,0.0,0.0,0.0,-3.5633,-3.5291,-3.4994,-3.47,-3.4381,-3.4778,-3.5072,-3.525,-3.6432,-3.7391,-3.81,-3.8148,-3.8347,-3.8694,-3.8315,-3.803,-3.7857,-3.7207,-3.6554,-3.5941,-3.5397,0.0,0.0,0.0,0.0,0.0,0.0,0.0,0.0,0.0,0.0,0.0,0.0,0.0,-3.3159,-3.356,-3.3556,-3.3384,-3.342,-3.2902,-3.2527,-3.3054,-3.2989,-3.2814,-3.2859,-3.3005,-3.3183,-3.3349,-3.3141,-3.2779,-3.2203,-3.2154,-3.171,-3.0138,-3.0815,-3.1698,-3.2263,-3.1635,-3.1583,-3.2897,-3.2104,-3.1646,-3.2211,-3.203,-3.1804,-3.155,-3.2046,-3.206,-3.1251,-3.123,-3.1333,-3.1527,-3.0858,-3.0557,-3.0734,-3.0308,-3.0264,-3.0689,-3.0506,-3.0514,-3.0768,-3.0218,-3.0053,-3.0156,-3.0519,-3.0271,-2.9584,-2.9745,-2.9718,-2.9554,-2.9237,-2.9311,-2.9603,-2.9823,-2.9689,-2.9495,0.0,0.0,0.0,0.0,0.0,0.0,0.0,0.0,0.0,0.0,0.0,0.0,0.0,0.0,0.0,0.0,0.0,0.0,0.0,0.0,-3.5594,-3.5446,-3.5175,-3.4923,-3.4667,-3.5584,-3.6033,-3.6007,-3.729,-3.8048,-3.8323,-3.8205,-3.816,-3.8234,-3.8262,-3.8091,-3.7772,-3.7492,-3.7119,-3.6585,-3.6148,-3.5863,0.0,0.0,0.0,0.0,0.0,0.0,0.0,0.0,-3.2704,-3.2432,0.0,-3.3263,-3.3238,-3.3601,-3.3641,-3.3555,-3.335,-3.3097,-3.2962,-3.3232,-3.3208,-3.3148,-3.3322,-3.3161,-3.3171,-3.3676,-3.3427,-3.2879,-3.2056,-3.1219,-3.0471,-3.0098,-3.0101,-3.0386,-3.1008,-3.064,-3.0568,-3.1228,-3.0931,-3.0732,-3.0831,-3.118,-3.1338,-3.1104,-3.1706,-3.1871,-3.1446,-3.1476,-3.1424,-3.1322,-3.1064,-3.0817,-3.0557,-3.0779,-3.0863,-3.0688,-3.0608,-3.0803,-3.1175,-3.0655,-3.0458,-3.0496,-3.0324,-3.0107,-2.9837,-2.9906,-2.9886,-2.9827,-2.9722,-2.9669,-2.9605,-2.9742,-2.9653,-2.9396,0.0,0.0,0.0,0.0,0.0,0.0,0.0,0.0,0.0,0.0,0.0,0.0,0.0,0.0,0.0,0.0,0.0,0.0,0.0,-3.5937,-3.5684,-3.5588,-3.5383,-3.5182,-3.5018,-3.6241,-3.6795,-3.664,-3.7927,-3.856,-3.8532,-3.8303,-3.816,-3.8119,-3.8091,-3.7947,-3.77,-3.7583,-3.7345,-3.6969,-3.6754,-3.6429,0.0,0.0,0.0,0.0,0.0,0.0,0.0,0.0,-3.3078,-3.2969,0.0,0.0,-3.3609,-3.3778,-3.3768,-3.3666,-3.3605,-3.3367,-3.3281,-3.3589,-3.3571,-3.3574,-3.3672,-3.3468,-3.3417,-3.3958,-3.3264,-3.229,-3.1388,-3.0392,-2.9745,-2.9828,-2.9812,-2.988,-3.0307,-3.0101,-3.0022,-3.0302,-3.0194,-3.0186,-3.045,-3.0777,-3.0905,-3.0769,-3.1474,-3.1756,-3.1354,-3.1527,-3.1527,-3.1322,-3.123,-3.1023,-3.0651,-3.0968,-3.1095,-3.0934,-3.1041,-3.1238,-3.1514,-3.0803,-3.0606,-3.0827,-3.0555,-3.0263,-3.0015,-3.0199,-3.0137,-2.9879,-2.9994,-2.9827,-2.9595,-2.9581,-2.9389,-2.9169,0.0,0.0,0.0,0.0,0.0,0.0,0.0,0.0,0.0,0.0,0.0,0.0,0.0,0.0,0.0,0.0,0.0,0.0,-3.6322,-3.6127,-3.5932,-3.5817,-3.5667,-3.5503,-3.5331,-3.6619,-3.7169,-3.6915,-3.8305,-3.8942,-3.8805,-3.8516,-3.846,-3.8556,-3.777,-3.7522,-3.7687,-3.7359,-3.7135,-3.7015,-3.7015,-3.6677,-3.6179,0.0,0.0,0.0,0.0,0.0,0.0,0.0,-3.3847,-3.39,0.0,0.0,0.0,-3.4116,-3.3894,-3.3798,-3.4163,-3.3785,-3.3424,-3.4212,-3.4184,-3.3947,-3.3744,-3.3875,-3.4007,-3.4068,-3.2454,-3.0782,-3.0063,-2.9856,-2.9638,-2.9084,-3.0016,-3.0681,-3.0443,-3.0303,-3.0325,-3.0688,-3.0194,-3.0194,-3.1264,-3.098,-3.07,-3.0677,-3.1445,-3.1547,-3.0849,-3.1333,-3.1618,-3.1618,-3.1322,-3.1178,-3.1178,-3.0651,-3.0779,-3.1487,-3.1751,-3.1849,-3.1766,-3.0578,-3.0401,-3.1115,-3.1327,-3.0843,-3.0067,-3.0622,-3.036,-2.9606,-2.9889,-2.9827,-2.9554,-2.9237,-2.893,-2.8674,0.0,0.0,0.0,0.0,0.0,0.0,0.0,0.0,0.0,0.0,0.0,0.0,0.0,0.0,0.0,0.0,0.0,0.0,-3.6478,-3.617,-3.5975,-3.5932,-3.5711,-3.5785,-3.6145,-3.6993,-3.7738,-3.8397,-3.8592,-3.8639,-3.8516,-3.8274,-3.8103,-3.7963,-3.8325,-3.837,-3.8267,-3.8055,-3.7963,-3.7871,-3.7233,-3.6831,-3.6523,0.0,0.0,0.0,0.0,0.0,0.0,0.0,0.0,0.0,-3.4541,0.0,0.0,-3.4247,-3.4021,-3.3709,-3.3758,-3.3625,-3.3557,-3.4015,-3.4042,-3.3995,-3.4002,-3.4122,-3.4157,-3.3645,-3.2594,-3.1379,-3.0117,-2.9708,-2.9296,-2.8635,-2.9059,-2.9622,-2.9974,-2.9985,-3.0022,-3.0302,-3.0194,-3.0176,-3.0376,-3.0274,-3.0296,-3.0443,-3.0862,-3.1122,-3.1086,-3.1424,-3.1618,-3.1618,-3.1527,-3.1373,-3.1178,-3.1616,-3.142,-3.0758,-3.1537,-3.1849,-3.1776,-3.1689,-3.1338,-3.0827,-3.0736,-3.0453,-3.0015,-3.0178,-3.0127,-2.9889,-2.9994,-2.9827,-2.9554,-2.9237,-2.893,-2.8674,0.0,0.0,0.0,0.0,0.0,0.0,0.0,0.0,0.0,0.0,0.0,0.0,0.0,0.0,0.0,0.0,0.0,0.0,0.0,0.0,-3.7019,-3.7019,-3.6774,-3.6817,-3.7224,-3.7396,-3.7894,-3.865,-3.8427,-3.8331,-3.8391,-3.8091,-3.8033,-3.8203,-3.8557,-3.8786,-3.8871,-3.8825,-3.8732,-3.8638,-3.7856,-3.7358,-3.7064,0.0,0.0,0.0,0.0,0.0,0.0,0.0,0.0,0.0,-3.4622,0.0,-3.4356,-3.4297,-3.4131,-3.3926,-3.3602,-3.3555,-3.3573,-3.355,-3.3708,-3.3899,-3.3885,-3.4101,-3.4052,-3.3247,-3.2438,-3.136,-2.9801,-2.9214,-2.8796,-2.822,-2.8661,-2.9199,-2.9611,-2.9676,-2.9802,-3.0089,-2.9929,-2.9817,-2.9973,-2.9889,-2.9931,-3.0245,-3.0505,-3.0765,-3.1034,-3.1281,-3.1476,-3.1618,-3.1721,-3.1618,-3.1373,-3.1832,-3.1666,-3.0909,-3.1592,-3.179,-3.1551,-3.1633,-3.1295,-3.0546,-3.0318,-3.0245,-3.0253,-3.0067,-2.9994,-2.9994,-2.9994,-2.9889,-2.9722,-2.9396,-2.9089,-2.8824,0.0,0.0,0.0,0.0,0.0,0.0,0.0,0.0,0.0,0.0,0.0,0.0,0.0,0.0,0.0,0.0,0.0,0.0,0.0,0.0,-3.8617,-3.8617,-3.8374,-3.8227,-3.8251,-3.7762,-3.7684,-3.8087,-3.7943,-3.8017,-3.8307,-3.794,-3.8144,-3.8852,-3.8756,-3.9029,-3.9598,-3.9566,-3.9487,-3.9313,-3.8623,-3.8107,-3.7698,-3.7033,0.0,0.0,0.0,0.0,0.0,0.0,0.0,0.0,-3.4483,-3.471,-3.4995,-3.4352,-3.4308,-3.4292,-3.3658,-3.3493,-3.3387,-3.2987,-3.3268,-3.3622,-3.3578,-3.3805,-3.3744,-3.2855,-3.1995,-3.0834,-2.9229,-2.8565,-2.8195,-2.7976,-2.864,-2.927,-2.9352,-2.9507,-2.9722,-2.9994,-2.9511,-2.9396,-2.9942,-2.9774,-2.9722,-2.9994,-3.0297,-3.0557,-3.0786,-3.1023,-3.1322,-3.1578,-3.1823,-3.1874,-3.1669,-3.1669,-3.1618,-3.1618,-3.1874,-3.1669,-3.1178,-3.1034,-3.0765,-3.0443,-3.0141,-3.0285,-3.0691,-3.0223,-2.9994,-3.0047,-2.9994,-2.9994,-2.9994,-2.9722,-2.9396,-2.9079,0.0,0.0,0.0,0.0,0.0,0.0,0.0,0.0,0.0,0.0,0.0,0.0,0.0,0.0,0.0,0.0,0.0,0.0,0.0,0.0,-3.8639,-3.8745,-3.8547,-3.8245,-3.7847,-3.7717,-3.7745,-3.7947,-3.7801,-3.7714,-3.761,-3.7987,-3.8304,-3.863,-3.9692,-4.023,-4.034,-4.0082,-3.9952,-3.984,-3.8831,-3.8422,-3.828,-3.7714,-3.7403,0.0,0.0,0.0,0.0,0.0,0.0,0.0,-3.5425,-3.5382,-3.5058,-3.4913,-3.4754,-3.4494,-3.3824,-3.3458,-3.3179,-3.2702,-3.2818,-3.3103,-3.3246,-3.3174,-3.281,-3.1817,-3.1319,-3.0504,-2.8593,-2.8141,-2.8105,-2.814,-2.8478,-2.9021,-2.9746,-2.988,-2.9942,-2.9994,-2.9889,-2.9837,-2.9994,-2.9942,-2.9942,-2.9994,-3.0464,-3.0724,-3.0786,-3.1023,-3.1322,-3.1578,-3.168,-3.1863,-3.2218,-3.2015,-3.1913,-3.1924,-3.1772,-3.1424,-3.0931,-3.1721,-3.1669,-3.1013,-3.0495,-3.0506,-3.0716,-3.0193,-3.0141,-3.0287,-3.0099,-2.9994,-2.9994,-2.9722,-2.9396,-2.9079,0.0,0.0,0.0,0.0,0.0,0.0,0.0,0.0,0.0,0.0,0.0,0.0,0.0,0.0,0.0,0.0,0.0,0.0,0.0,0.0,0.0,-3.9425,-3.9059,-3.8642,-3.8237,-3.7926,-3.7788,-3.7817,-3.7567,-3.7607,-3.7924,-3.8073,-3.8654,-3.955,-4.0277,-4.0783,-4.1067,-4.0772,-4.0673,-4.0593,-3.9643,-3.928,-3.9203,-3.8554,-3.8025,-3.7541,-3.6918,0.0,0.0,0.0,0.0,0.0,0.0,0.0,-3.4888,-3.483,-3.4604,-3.4319,-3.3846,-3.3343,-3.2811,-3.2246,-3.25,-3.2813,-3.2563,-3.2353,-3.1933,-3.0946,-3.0663,-3.0149,-2.8603,-2.8045,-2.7741,-2.759,-2.7945,-2.8475,-2.9075,-2.9415,-2.9746,-2.9973,-2.9994,-2.9994,-2.9994,-2.9994,-3.0047,-3.0193,-3.0453,-3.0724,-3.0983,-3.0983,-3.1286,-3.1979,-3.199,-3.2145,-3.2391,-3.2391,-3.2218,-3.1823,-3.1669,-3.1476,-3.1178,-3.1362,-3.1362,-3.1178,-3.0651,-3.0557,-3.0776,-3.0516,-3.0412,-3.0391,-3.0245,-3.0099,-2.9994,-2.9722,-2.9501,-2.929,0.0,0.0,0.0,0.0,0.0,0.0,0.0,0.0,0.0,0.0,0.0,0.0,0.0,0.0,0.0,0.0,0.0,0.0,0.0,0.0,0.0,0.0,-3.947,-3.9061,-3.8777,-3.8132,-3.7743,-3.7642,-3.7329,-3.7648,-3.8543,-3.8294,-3.9031,-4.0561,-4.0719,-4.1083,-4.1588,-4.139,-4.129,-4.1243,-4.0544,-4.0275,-4.0181,-3.9496,-3.8808,-3.8167,-3.7677,-3.704,-3.6316,-3.5657,0.0,0.0,0.0,0.0,-3.4704,-3.4497,-3.4349,-3.4153,-3.3778,-3.3139,-3.2442,-3.1903,-3.2195,-3.2427,-3.1716,-3.1445,-3.1139,-3.028,-3.0095,-2.9713,-2.8574,-2.798,-2.7471,-2.6965,-2.7454,-2.7981,-2.8185,-2.8849,-2.9446,-2.9829,-2.9942,-2.9994,-2.9994,-3.0047,-3.0141,-3.0391,-3.0495,-3.0703,-3.1178,-3.1006,-3.1334,-3.2256,-3.2354,-3.245,-3.2556,-3.2677,-3.2424,-3.1852,-3.1662,-3.1618,-3.1567,-3.0806,-3.0765,-3.1178,-3.0651,-3.0609,-3.0776,-3.0672,-3.0568,-3.0443,-3.0349,-3.0245,-3.0047,-2.9774,-2.9659,-2.9501,0.0,0.0,0.0,0.0,0.0,0.0,0.0,0.0,0.0,0.0,0.0,0.0,0.0,0.0,0.0,0.0,0.0,0.0,0.0,0.0,0.0,-3.9859,-3.9322,-3.8898,-3.8616,-3.7857,-3.7447,-3.7447,-3.7165,-3.7608,-3.8758,-3.8886,-3.9452,-4.0383,-4.1128,-4.1509,-4.1588,-4.139,-4.129,-4.129,-4.106,-4.0977,-4.0899,-4.033,-4.0066,-3.9877,-3.9042,-3.8133,-3.7259,-3.6678,-3.5923,0.0,0.0,0.0,-3.4867,-3.4395,-3.4455,-3.4525,-3.3762,-3.2836,-3.2079,-3.2039,-3.183,-3.1517,-3.1083,-3.0694,-3.0345,-3.0152,-2.9768,-2.901,-2.764,-2.7641,-2.7636,-2.6922,-2.7405,-2.7981,-2.8185,-2.8849,-2.9332,-2.9394,-2.9746,-2.9994,-2.9994,-3.0193,-3.0339,-3.0391,-3.0806,-3.1127,-3.1178,-3.1346,-3.1603,-3.1941,-3.2126,-3.2545,-3.3239,-3.2737,-3.2652,-3.2989,-3.2031,-3.1618,-3.1567,-3.1034,-3.0931,-3.1178,-3.0879,-3.0786,-3.0776,-3.0308,-3.036,-3.0672,-3.0256,-3.0193,-3.0287,-3.0047,-2.9774,-2.9606,0.0,0.0,0.0,0.0,0.0,0.0,0.0,0.0,0.0,0.0,0.0,0.0,0.0,0.0,0.0,0.0,0.0,0.0,0.0,0.0,0.0,-3.979,-3.9276,-3.8788,-3.8331,-3.7831,-3.7433,-3.7117,-3.6922,-3.7266,-3.8083,-3.8551,-3.9458,-4.0782,-4.1231,-4.1423,-4.1423,-4.1357,-4.1357,-4.1456,-4.1272,-4.1288,-4.1341,-4.0993,-4.0632,-4.019,-3.9435,-3.8762,-3.8049,-3.6965,-3.6673,-3.6588,-3.568,0.0,0.0,0.0,-3.4278,-3.3678,-3.3081,-3.2671,-3.2325,-3.1949,-3.1741,-3.1472,-3.0978,-3.0319,-2.9801,-2.9917,-2.9267,-2.8431,-2.7883,-2.7756,-2.7452,-2.6574,-2.6924,-2.7437,-2.763,-2.8162,-2.8628,-2.8887,-2.9321,-2.9663,-2.9807,-3.0037,-3.0349,-3.0806,-3.092,-3.1256,-3.1837,-3.1759,-3.2114,-3.2933,-3.3041,-3.3258,-3.3637,-3.3482,-3.3162,-3.2726,-3.1973,-3.1618,-3.1578,-3.1373,-3.123,-3.1178,-3.0765,-3.0672,-3.0776,-3.0568,-3.0516,-3.0557,-3.0297,-3.0193,-3.0141,-2.9879,-2.9722,-2.9554,0.0,0.0,0.0,0.0,0.0,0.0,0.0,0.0,0.0,0.0,0.0,0.0,0.0,0.0,0.0,0.0,0.0,0.0,0.0,0.0,0.0,-3.9625,-3.9212,-3.8706,-3.81,-3.7756,-3.7314,-3.6799,-3.6646,-3.6815,-3.725,-3.792,-3.9102,-4.06,-4.1026,-4.1239,-4.1239,-4.129,-4.139,-4.1538,-4.1561,-4.1547,-4.1538,-4.1561,-4.1133,-4.0438,-3.992,-3.9496,-3.891,-3.7404,-3.7421,-3.7862,-3.6431,-3.582,0.0,0.0,0.0,-3.3015,-3.2688,-3.2495,-3.2252,-3.1782,-3.1567,-3.1348,-3.094,-3.0067,-2.9402,-2.9629,-2.884,-2.8025,-2.7944,-2.775,-2.7327,-2.6277,-2.6496,-2.6868,-2.6998,-2.7472,-2.795,-2.8351,-2.8845,-2.9226,-2.9419,-2.9745,-3.0119,-3.0608,-3.0623,-3.1013,-3.1886,-3.1843,-3.235,-3.3465,-3.3737,-3.3922,-3.3977,-3.3998,-3.3459,-3.2372,-3.187,-3.1618,-3.1618,-3.1527,-3.1322,-3.1075,-3.0661,-3.0557,-3.063,-3.063,-3.0568,-3.0505,-3.0339,-3.0245,-3.0151,-2.9827,-2.9659,-2.9554,0.0,0.0,0.0,0.0,0.0,0.0,0.0,0.0,0.0,0.0,0.0,0.0,0.0,-4.0912,-4.0847,-4.0669,0.0,0.0,0.0,0.0,0.0,-3.9352,-3.9104,0.0,-3.81,-3.7535,-3.6983,-3.6523,-3.6305,-3.6324,-3.6565,-3.7233,-3.8098,-3.9177,-4.0501,-4.1117,-4.1102,-4.1239,-4.1323,-4.1386,-4.2077,-4.1935,-4.1402,-4.2092,-4.1818,-4.1055,-4.1021,-4.0634,-3.991,-3.8409,-3.8118,-3.8123,-3.6648,-3.6231,-3.6186,0.0,0.0,0.0,-3.2935,-3.2204,-3.1472,-3.1508,-3.1174,-3.0799,-3.0631,-2.9817,-2.9187,-2.9401,-2.8597,-2.7801,-2.7348,-2.7572,-2.7442,-2.6278,-2.6352,-2.6506,-2.6526,-2.7181,-2.769,-2.7906,-2.8369,-2.8649,-2.8649,-2.9316,-2.9541,-2.9139,-2.974,-3.0269,-3.0583,-3.1175,-3.1881,-3.2642,-3.3569,-3.4222,-3.448,-3.3833,-3.3171,-3.2372,-3.187,-3.1618,-3.1578,-3.1333,-3.1075,-3.0838,-3.0776,-3.0516,-3.0047,-3.0047,-3.0308,-3.0724,-3.0203,-3.0308,-3.0682,-3.0151,-2.9827,-2.9606,0.0,0.0,0.0,0.0,0.0,0.0,0.0,0.0,0.0,0.0,0.0,0.0,0.0,-4.0558,-4.0297,-3.9712,-3.9466,0.0,0.0,0.0,0.0,-3.9325,-3.9121,-3.8639,-3.786,-3.7282,-3.6754,-3.6178,-3.599,-3.5905,-3.5999,-3.66,-3.7152,-3.7801,-3.9486,-4.0746,-4.1538,-4.1273,-4.1437,-4.1813,-4.1641,-4.1687,-4.1797,-4.1641,-4.1703,-4.1847,-4.1019,-4.0746,-4.0557,-3.9123,-3.8985,-3.9219,-3.7988,-3.7469,-3.7075,-3.5766,-3.4752,-3.3943,-3.3314,-3.2685,-3.2085,-3.1732,-3.1324,-3.0903,-3.0628,-2.9647,-2.8872,-2.8953,-2.7996,-2.7168,-2.7041,-2.7208,-2.7052,-2.6015,-2.6062,-2.6294,-2.6496,-2.6878,-2.7221,-2.75,-2.7893,-2.8222,-2.8467,-2.9057,-2.9509,-2.9741,-3.0075,-3.0561,-3.1164,-3.1408,-3.1774,-3.2362,-3.3085,-3.3595,-3.3855,-3.3449,-3.2937,-3.2372,-3.187,-3.1618,-3.1618,-3.1527,-3.1333,-3.1023,-3.0879,-3.0568,-3.0245,-3.0245,-3.0464,-3.0776,-3.0568,-3.0516,-3.0505,-3.0349,-2.9973,-2.9606,0.0,0.0,0.0,0.0,0.0,0.0,0.0,0.0,0.0,0.0,0.0,0.0,0.0,0.0,-4.0434,-4.0079,-3.9648,-3.9344,-3.9189,-3.9518,-3.9511,-3.9083,-3.8931,-3.85,-3.773,-3.6913,-3.6275,-3.5827,-3.5466,-3.5292,-3.5275,-3.5919,-3.6453,-3.6907,-3.8578,-3.9918,-4.0951,-4.0991,-4.1249,-4.1672,-4.1669,-4.1809,-4.198,-4.2011,-4.2202,-4.2342,-4.1546,-4.1511,-4.1612,-3.9971,-4.0092,-4.0595,-3.8747,-3.7853,-3.7212,-3.5839,-3.4896,-3.4209,-3.3672,-3.2913,-3.2214,-3.186,-3.1508,-3.1161,-3.0925,-2.9951,-2.9128,-2.9115,-2.7977,-2.6995,-2.7102,-2.7038,-2.6751,-2.6073,-2.5943,-2.6076,-2.6572,-2.6805,-2.6996,-2.7262,-2.7521,-2.7804,-2.7996,-2.8538,-2.8948,-2.923,-2.9555,-3.0083,-3.0672,-3.0975,-3.1508,-3.2426,-3.2964,-3.3338,-3.3498,-3.3279,-3.2942,-3.2529,-3.1921,-3.1618,-3.1618,-3.1618,-3.1476,-3.1178,-3.0931,-3.0724,-3.0505,-3.0349,-3.0505,-3.0931,-3.0724,-3.0609,-3.0505,-3.0443,-3.0078,-2.9606,0.0,0.0,0.0,0.0,0.0,0.0,0.0,0.0,0.0,-4.2817,0.0,0.0,0.0,0.0,0.0,-4.1837,-4.1191,-4.0567,-4.0127,-3.9588,-3.9083,-3.8616,0.0,0.0,0.0,-3.6385,-3.5655,-3.5507,-3.4832,-3.4472,-3.4454,-3.529,-3.5984,-3.6547,-3.774,-3.8659,-3.9317,-4.0334,-4.083,-4.0969,-4.2235,-4.239,-4.1972,-4.3288,-4.3303,-4.2669,-4.2752,-4.3008,-4.2989,-4.1031,-4.1383,-4.2093,-3.8807,-3.7223,-3.6529,-3.6122,-3.5038,-3.393,0.0,0.0,0.0,-3.197,-3.1707,-3.1447,-3.1587,-3.0721,-2.9947,-2.9985,-2.8522,-2.726,-2.7547,-2.6965,-2.6486,-2.6544,-2.5944,-2.5862,-2.6771,-2.689,-2.6996,-2.7262,-2.7309,-2.7309,-2.7309,-2.7665,-2.7748,-2.7361,-2.8121,-2.8728,-2.9016,-2.9887,-3.1063,-3.2642,-3.3187,-3.3464,-3.3486,-3.3272,-3.3027,-3.2756,-3.2013,-3.1618,-3.1618,-3.1618,-3.1476,-3.1178,-3.0931,-3.0786,-3.0786,-3.0256,-3.0453,-3.1127,-3.0609,-3.0557,-3.0776,-3.0505,-3.0078,-2.9554,0.0,0.0,0.0,0.0,0.0,0.0,0.0,0.0,0.0,0.0,0.0,0.0,-4.1254,-4.1314,-4.1377,-4.1385,-4.0623,-4.0083,-3.9942,-3.9408,-3.8931,-3.8616,-3.86,-3.8258,-3.7492,-3.6415,-3.5843,-3.5857,0.0,0.0,0.0,0.0,0.0,-3.5987,-3.7265,-3.8068,-3.8461,-3.9841,-4.1003,-4.1843,-4.1591,-4.2056,-4.2892,-4.2769,-4.3033,-4.3416,-4.2865,-4.2767,-4.2849,-4.2181,-4.2074,-4.1827,-3.9598,-3.8022,-3.6851,-3.6372,-3.5639,-3.4817,-3.4116,0.0,0.0,0.0,0.0,0.0,-3.1837,-3.105,-3.0236,-2.9993,-2.8466,-2.726,-2.7547,-2.6615,-2.6077,-2.6924,-2.6587,-2.6245,-2.6384,-2.6696,-2.6996,-2.7262,-2.7441,-2.7441,-2.7309,-2.8003,-2.8454,-2.8327,-2.9006,-2.953,-2.9772,-3.0179,-3.0767,-3.1618,-3.2088,-3.2361,-3.2384,-3.272,-3.2808,-3.2605,-3.2093,-3.1863,-3.1874,-3.1669,-3.1578,-3.1476,-3.0983,-3.0931,-3.1023,-3.0505,-3.0505,-3.0879,-3.0776,-3.0609,-3.0505,-3.0443,-3.0193,-2.9879,0.0,0.0,0.0,0.0,0.0,0.0,0.0,0.0,0.0,0.0,0.0,0.0,-4.054,-4.122,-4.1544,-4.1161,-4.0648,-4.0185,-3.9834,-3.9187,-3.8738,-3.8548,-3.8375,-3.8075,-3.7522,0.0,0.0,0.0,0.0,0.0,0.0,0.0,0.0,0.0,-3.692,-3.767,-3.822,-3.9341,-4.0613,-4.1821,-4.1526,-4.2025,-4.2912,-4.3081,-4.3389,-4.3689,-4.3427,-4.3417,-4.3467,-4.2947,-4.223,-4.1386,-4.0287,-3.8656,-3.708,-3.6761,-3.5802,-3.4782,-3.4477,-3.3761,-3.3072,-3.2931,0.0,0.0,-3.2381,-3.1614,-3.0826,-3.056,-2.9079,-2.7922,-2.8251,-2.7214,-2.6672,-2.7715,-2.7448,-2.7003,-2.6717,-2.6907,-2.7129,-2.7262,-2.7499,-2.7536,-2.7309,-2.7968,-2.8391,-2.8389,-2.9016,-2.9655,-3.0187,-3.0461,-3.0765,-3.1178,-3.1685,-3.2046,-3.2229,-3.253,-3.2694,-3.2667,-3.2229,-3.2015,-3.2015,-3.1823,-3.1721,-3.1578,-3.1127,-3.1086,-3.1178,-3.0765,-3.0672,-3.0786,-3.0672,-3.0557,-3.0391,-3.0391,-3.0245,-2.9994,0.0,0.0,0.0,0.0,0.0,0.0,0.0,0.0,0.0,0.0,-4.0544,-4.0403,-4.0127,-4.1189,-4.1704,-4.102,-4.0889,-4.0504,-3.9736,-3.8979,-3.8504,-3.8363,-3.8078,-3.7817,-3.7642,0.0,0.0,0.0,0.0,0.0,0.0,0.0,0.0,0.0,0.0,-3.7547,-3.8305,-3.9023,-4.0063,-4.1234,-4.1748,-4.2141,-4.2524,-4.3792,-4.4029,-4.3756,-4.4182,-4.4435,-4.4441,-4.348,-4.221,-4.0988,-4.0785,-3.9112,-3.7218,-3.7139,-3.5815,-3.4432,-3.4903,-3.4282,-3.3521,-3.3675,-3.3318,0.0,-3.3129,-3.239,-3.1662,-3.155,-3.0139,-2.9011,-2.9413,-2.8482,-2.7918,-2.8654,-2.8377,-2.7888,-2.7369,-2.7343,-2.7316,-2.7226,-2.7463,-2.7579,-2.7347,-2.7809,-2.8068,-2.8063,-2.8791,-2.9591,-3.0453,-3.0713,-3.1034,-3.1281,-3.1772,-3.2229,-3.2555,-3.2555,-3.2667,-3.288,-3.2342,-3.2026,-3.2015,-3.1964,-3.1823,-3.1578,-3.1322,-3.1178,-3.1127,-3.0879,-3.0786,-3.0776,-3.0505,-3.0391,-3.0391,-3.0349,-3.0193,-2.9994,0.0,0.0,0.0,0.0,0.0,0.0,0.0,0.0,0.0,-3.921,-3.9693,-4.0015,-3.9959,-4.0618,-4.1004,-4.0857,-4.0186,-3.9709,-3.9534,-3.8853,-3.8363,-3.8221,-3.802,-3.7714,-3.7314,-3.6402,0.0,0.0,0.0,0.0,0.0,0.0,0.0,0.0,0.0,-3.8071,-3.8153,-3.9509,-4.0506,-4.1234,-4.16,-4.2206,-4.2955,-4.3761,-4.4205,-4.4402,-4.4312,-4.4435,-4.4556,-4.4167,-4.2792,-4.1199,-4.0982,-3.9305,-3.728,-3.6791,-3.6212,-3.5608,-3.4758,-3.4626,-3.4677,-3.4332,-3.437,0.0,-3.4182,-3.3451,-3.28,-3.2506,-3.1268,-3.0276,-3.0384,-2.9479,-2.8769,-2.906,-2.9063,-2.861,-2.7443,-2.7443,-2.7325,-2.6801,-2.7445,-2.7825,-2.7552,-2.8196,-2.8787,-2.9063,-2.992,-3.0636,-3.1013,-3.1322,-3.1567,-3.1823,-3.2229,-3.2555,-3.283,-3.283,-3.2841,-3.2891,-3.2555,-3.228,-3.1964,-3.1772,-3.1669,-3.1578,-3.1322,-3.1075,-3.0879,-3.0827,-3.0786,-3.0776,-3.0505,-3.0391,-3.0391,-3.0141,-3.0047,-2.9994,0.0,0.0,0.0,0.0,0.0,0.0,0.0,0.0,-3.9401,-3.925,-3.952,-3.9573,-3.9271,-3.9776,-3.9998,-3.9625,-3.9933,0.0,-3.9019,-3.9012,-3.8776,-3.8225,-3.802,-3.7685,-3.7224,-3.6746,0.0,0.0,0.0,0.0,0.0,0.0,0.0,0.0,0.0,-3.8071,-3.8779,-3.9451,-4.0705,-4.2181,-4.1583,-4.1644,-4.2178,-4.2878,-4.3288,-4.3468,-4.3594,-4.393,-4.4281,-4.4166,-4.3395,-4.2328,-4.1568,-3.9888,-3.8054,-3.7237,-3.6391,-3.5563,-3.4823,-3.482,-3.489,-3.4501,-3.4572,0.0,0.0,-3.3859,-3.3361,-3.2949,-3.1875,-3.0996,-3.0878,-3.0124,-2.9687,-3.0253,-2.9934,-2.9397,-2.8687,-2.8258,-2.7805,-2.7186,-2.7517,-2.7778,-2.7793,-2.8389,-2.8992,-2.9584,-3.0274,-3.0828,-3.1167,-3.1476,-3.1721,-3.1964,-3.2331,-3.2617,-3.2891,-3.2891,-3.2992,-3.3081,-3.283,-3.2555,-3.2229,-3.2128,-3.1874,-3.1578,-3.1476,-3.1322,-3.1178,-3.1023,-3.1075,-3.1178,-3.0765,-3.0505,-3.0391,-3.0245,-3.0088,-2.9994,-3.8974,0.0,0.0,0.0,0.0,0.0,0.0,0.0,-3.9687,-3.9634,-3.9505,-3.9314,-3.906,-3.9605,-3.9677,-3.8934,-4.033,0.0,-3.8967,-3.9532,-3.954,-3.8685,-3.8136,-3.7685,-3.7254,-3.7075,-3.6613,0.0,0.0,0.0,0.0,0.0,0.0,0.0,0.0,-3.822,-3.9538,-3.9421,-4.0868,-4.3166,-4.1812,-4.1538,-4.205,-4.2631,-4.2897,-4.2936,-4.3297,-4.3677,-4.4042,-4.4202,-4.3815,-4.3094,-4.2092,-4.0423,-3.8689,-3.7816,-3.6544,-3.5377,-3.4997,-3.4953,-3.4916,-3.4627,-3.4641,-3.4606,0.0,0.0,0.0,-3.3374,-3.2569,-3.1809,-3.1445,-3.0872,-3.0649,-3.1408,-3.0881,-3.0303,-3.0019,-2.928,-2.85,-2.7725,-2.7777,-2.7911,-2.8099,-2.8564,-2.9066,-2.9704,-3.0263,-3.0741,-3.1131,-3.148,-3.1823,-3.2077,-3.2392,-3.2667,-3.2891,-3.2942,-3.3031,-3.3131,-3.298,-3.2779,-3.2493,-3.2443,-3.2128,-3.1669,-3.1618,-3.1567,-3.1527,-3.1322,-3.1322,-3.1373,-3.092,-3.0609,-3.0443,-3.0339,-3.0141,-2.9879,-3.8513,-3.8415,0.0,0.0,0.0,0.0,0.0,0.0,0.0,-3.9399,-3.921,-3.9436,-4.0456,-4.1186,-4.1333,-4.06,-4.2005,-4.2247,-4.0632,-4.0616,-4.0557,-4.0345,-3.8649,-3.7626,-3.7387,-3.7135,-3.6938,0.0,0.0,0.0,0.0,0.0,0.0,0.0,-3.8601,-3.9215,-3.9682,-3.9839,-4.1218,-4.3211,-4.2463,-4.3227,-4.4832,-4.4908,-4.4939,-4.4954,-4.503,-4.4569,-4.4118,-4.4891,-4.3815,-4.2165,-4.2014,-4.0335,-3.8362,-3.7835,-3.7027,-3.6138,-3.5163,-3.5103,-3.532,-3.5234,-3.5029,-3.4971,-3.5331,0.0,-3.4515,-3.4312,0.0,-3.3374,-3.2881,0.0,0.0,-3.1649,-3.1734,-3.1487,-3.0417,-3.0236,-2.9629,-2.7991,-2.8344,-2.8687,-2.8566,-2.902,-2.9364,-2.9435,-3.03,-3.0893,-3.0949,-3.1562,-3.2128,-3.2443,-3.2718,-3.2891,-3.2891,-3.3131,-3.3019,-3.2594,-3.2779,-3.2779,-3.2493,-3.2179,-3.2015,-3.1913,-3.1721,-3.1476,-3.127,-3.1476,-3.127,-3.0879,-3.0557,-3.0557,-3.0672,-3.0203,-2.9879,-2.9659,-3.8048,-3.8148,0.0,0.0,0.0,0.0,0.0,0.0,0.0,-3.9652,-3.9656,-4.0049,-4.1303,-4.1705,-4.1608,-4.0874,-4.2717,-4.3073,-4.0939,-4.1575,-4.2018,-4.1973,-3.9728,-3.8776,-3.9404,-3.849,-3.8102,0.0,-3.8357,0.0,0.0,0.0,0.0,0.0,-3.866,-3.9485,-4.045,-4.0284,-4.2032,-4.4813,-4.4143,-4.4922,-4.6324,-4.4864,-4.4152,-4.4021,-4.4417,-4.423,-4.3877,-4.4384,-4.3655,-4.2538,-4.2296,-4.1143,-3.9681,-3.8801,-3.8342,-3.7809,-3.6404,-3.662,-3.7004,-3.568,-3.583,-3.6077,-3.5263,-3.5122,-3.503,-3.4515,0.0,0.0,0.0,0.0,0.0,0.0,-3.1827,-3.1734,-3.053,-3.0598,-3.0281,-2.8939,-2.8915,-2.9084,-2.9284,-2.9555,-2.9773,-2.9912,-3.0204,-3.0558,-3.1027,-3.127,-3.1601,-3.2218,-3.2342,-3.2454,-3.2667,-3.2757,-3.2706,-3.2493,-3.2606,-3.2505,-3.2229,-3.2066,-3.1924,-3.1772,-3.1476,-3.1322,-3.1178,-3.1013,-3.0868,-3.0776,-3.036,-3.0349,-3.0557,-3.0297,-3.0036,-2.9827,-3.7703,-3.7758,-3.7678,-3.7623,0.0,0.0,0.0,-3.7992,-3.8884,-4.0143,-4.0492,-4.1174,-4.2745,-4.3084,-4.2921,-4.2185,-4.4167,-4.4494,-4.2264,-4.2796,-4.3351,-4.369,-4.1071,-4.0156,-4.1436,-4.0065,-3.9467,0.0,0.0,0.0,0.0,0.0,0.0,0.0,-3.8735,-3.9536,-4.0471,-4.0432,-4.24,-4.5536,-4.5092,-4.5647,-4.6559,-4.4887,-4.3724,-4.3122,-4.4116,-4.4028,-4.3503,-4.4022,-4.3622,-4.2849,-4.2526,-4.1595,-4.0497,-3.963,-3.9275,-3.8882,-3.7611,-3.7872,-3.8039,-3.6286,-3.6295,-3.6452,-3.5161,-3.4949,-3.4883,-3.4414,-3.3825,0.0,0.0,0.0,-3.2244,-3.1834,0.0,-3.1933,-3.1055,-3.1082,-3.0804,-2.9853,-2.9521,-2.9512,-2.9763,-2.9817,-2.9892,-2.9979,-3.0059,-3.0332,-3.0801,-3.0959,-3.1338,-3.2006,-3.2085,-3.2229,-3.2493,-3.2555,-3.2555,-3.2342,-3.2443,-3.2392,-3.2128,-3.2015,-3.1863,-3.1669,-3.1322,-3.1178,-3.1178,-3.0713,-3.0557,-3.0672,-3.0245,-3.0193,-3.0287,-3.0287,-3.0141,-2.9879,-3.7557,-3.7128,-3.6813,-3.732,-3.7059,-3.694,-3.7432,-3.7966,-3.8966,-4.0814,-4.1693,-4.2976,-4.5253,-4.6106,-4.6238,-4.5497,-4.6944,-4.7207,-4.5561,-4.4506,-4.4426,-4.548,-4.265,-4.164,-4.2898,-4.1547,-4.0911,-4.1022,0.0,0.0,0.0,0.0,0.0,0.0,-3.9184,-3.9502,-3.9215,-4.0054,-4.1976,-4.4483,-4.463,-4.498,-4.5419,-4.5793,-4.471,-4.3244,-4.5017,-4.4408,-4.2922,-4.4257,-4.382,-4.2657,-4.2488,-4.1345,-4.0129,-4.0062,-3.9491,-3.8752,-3.8509,-3.8202,-3.7771,-3.7109,-3.6182,-3.5423,-3.5299,-3.4525,-3.3908,-3.4059,-3.3514,-3.3072,-3.3241,-3.2803,-3.2511,-3.2889,-3.2654,0.0,0.0,-3.19,-3.1275,-3.0458,-3.0203,-3.0006,-2.9803,-2.9742,-2.9601,-2.9268,-2.9992,-3.0349,-2.9947,-3.0916,-3.1636,-3.1979,-3.2286,-3.2493,-3.2493,-3.2779,-3.2617,-3.2015,-3.2331,-3.2493,-3.2443,-3.2128,-3.2015,-3.1964,-3.1424,-3.1178,-3.1178,-3.0879,-3.062,-3.0391,-3.0391,-3.0245,-2.9994,-2.9994,-2.9827,-2.9606,-3.7925,-3.718,-3.6727,-3.7469,-3.8146,-3.8576,-3.8685,-3.925,-4.0198,-4.1645,-4.1949,-4.3073,-4.5848,-4.6241,-4.6061,-4.5453,-4.6209,-4.6356,-4.5453,-4.4724,-4.5147,-4.6897,-4.4237,-4.3428,-4.5033,-4.2525,-4.1869,-4.3198,-4.1246,0.0,0.0,0.0,0.0,0.0,-3.8802,-3.9179,-3.9825,-4.0546,-4.2054,-4.4024,-4.5248,-4.5372,-4.4815,-4.4548,-4.3856,-4.3039,-4.3527,-4.3461,-4.3193,-4.3831,-4.3642,-4.3054,-4.2867,-4.2451,-4.1902,-4.116,-4.1072,-4.0852,-3.9372,-3.9563,-3.9788,-3.8012,-3.7921,-3.7877,-3.6493,-3.6071,-3.5619,-3.4441,-3.4139,-3.384,-3.2891,-3.2977,-3.2918,-3.2128,-3.2335,-3.2387,0.0,-3.1512,-3.114,-3.0487,-3.0564,-3.0788,-3.0969,-3.0738,-3.0509,-3.0381,-3.0272,-3.0288,-3.0489,-3.0582,-3.1043,-3.1911,-3.1919,-3.209,-3.2493,-3.2392,-3.2179,-3.2015,-3.1936,-3.1885,-3.1885,-3.1772,-3.1721,-3.1721,-3.1373,-3.1178,-3.1178,-3.0713,-3.0505,-3.0391,-3.0193,-3.0099,-2.9994,-2.9994,-2.9942,-2.9879,-3.8059,-3.7334,-3.6866,-3.7504,-3.8785,-3.9723,-3.9708,-4.0784,-4.2013,-4.3089,-4.3347,-4.4284,-4.6618,-4.6683,-4.647,-4.611,-4.6388,-4.6453,-4.6094,-4.5096,-4.5437,-4.7555,-4.5211,-4.4738,-4.6567,-4.4221,-4.3605,-4.4859,-4.2602,-4.1338,0.0,0.0,0.0,0.0,-3.8557,-3.8865,-3.9372,-4.0529,-4.1839,-4.3443,-4.5567,-4.5555,-4.4206,-4.3908,-4.3313,-4.269,-4.3133,-4.3148,-4.303,-4.3427,-4.3384,-4.3155,-4.3036,-4.2915,-4.264,-4.1946,-4.2015,-4.2006,-4.0608,-4.0795,-4.0937,-3.8943,-3.8975,-3.9013,-3.7244,-3.6773,-3.6359,-3.5113,-3.4552,-3.4077,-3.3285,-3.3151,-3.2977,-3.233,-3.2393,-3.2307,0.0,-3.1489,-3.1362,-3.099,-3.1061,-3.1174,-3.1373,-3.1299,-3.1136,-3.1024,-3.0723,-3.0599,-3.0746,-3.0584,-3.0905,-3.1831,-3.1815,-3.2078,-3.2656,-3.2331,-3.2128,-3.2015,-3.1721,-3.1618,-3.1618,-3.1618,-3.1618,-3.1578,-3.1322,-3.1178,-3.1178,-3.0713,-3.0557,-3.0505,-3.0245,-3.0141,-3.0141,-3.0047,-2.9994,-2.9994,-3.7997,-3.7574,-3.727,-3.7482,-3.8969,-4.0193,-4.0434,-4.235,-4.4075,-4.5016,-4.562,-4.6387,-4.7556,-4.7488,-4.7437,-4.747,-4.7421,-4.7354,-4.7421,-4.5533,-4.5304,-4.7322,-4.5533,-4.5419,-4.7454,-4.63,-4.5775,-4.5955,-4.3687,-4.184,0.0,0.0,0.0,0.0,-3.8431,-3.858,-3.8001,-3.9902,-4.1376,-4.2611,-4.5389,-4.5328,-4.3605,-4.3882,-4.3189,-4.2221,-4.3688,-4.3434,-4.2545,-4.308,-4.3155,-4.2981,-4.2996,-4.2688,-4.2392,-4.2351,-4.2242,-4.2092,-4.2063,-4.1717,-4.1054,-3.9841,-3.9325,-3.8811,-3.7596,-3.6747,-3.6182,-3.6021,-3.4769,-3.3898,-3.4365,-3.3409,-3.2767,-3.3472,-3.2819,-3.2132,-3.1923,-3.1877,-3.1877,-3.185,-3.1569,-3.1272,-3.1061,-3.1373,-3.141,-3.1061,-3.1198,-3.1123,-3.0736,-3.0925,-3.1277,-3.1853,-3.1995,-3.237,-3.2951,-3.2661,-3.2348,-3.2033,-3.1761,-3.1618,-3.1618,-3.1618,-3.1618,-3.1578,-3.1322,-3.123,-3.1178,-3.0931,-3.0838,-3.0776,-3.0505,-3.0391,-3.0391,-3.0099,-2.9994,-2.9994,-3.7809,-3.7405,-3.7186,-3.7654,-3.9251,-4.0706,-4.1405,-4.241,-4.3779,-4.5619,-4.4606,-4.4635,-4.7073,-4.6575,-4.641,-4.7202,-4.5971,-4.5448,-4.6268,-4.4338,-4.4111,-4.6218,-4.4769,-4.4946,-4.7218,-4.4193,-4.388,-4.6651,-4.2655,-4.0899,-4.132,0.0,0.0,0.0,0.0,-3.7952,-3.8605,-3.9457,-4.0754,-4.2361,-4.4486,-4.4658,-4.362,-4.3551,-4.3234,-4.2772,-4.2851,-4.2955,-4.3065,-4.3071,-4.3036,-4.2955,-4.2662,-4.2459,-4.2351,-4.1993,-4.198,-4.1949,-4.1307,-4.1108,-4.0957,-4.034,-3.9957,-3.9589,-3.8769,-3.8353,-3.7648,-3.6086,-3.5669,-3.5265,-3.4113,-3.4061,-3.4005,-3.3471,-3.2923,-3.2352,-3.1749,-3.1802,-3.1802,-3.15,-3.1621,-3.1767,-3.1877,-3.1582,-3.1397,-3.1447,-3.136,-3.1235,-3.1161,-3.1175,-3.1651,-3.2675,-3.2302,-3.2556,-3.355,-3.3011,-3.2586,-3.229,-3.2264,-3.2037,-3.1618,-3.1823,-3.1772,-3.1618,-3.1527,-3.1476,-3.1476,-3.123,-3.1075,-3.1086,-3.0827,-3.0557,-3.0391,-3.0099,-2.9994,-2.9994,-3.7713,-3.711,-3.6755,-3.7172,-3.8982,-4.0877,-4.23,-4.3521,-4.4881,-4.6501,-4.5255,-4.4974,-4.6986,-4.657,-4.6273,-4.6473,-4.585,-4.554,-4.5755,-4.4557,-4.4555,-4.6124,-4.4896,-4.5024,-4.6894,-4.4697,-4.4418,-4.6217,-4.3029,-4.146,-4.1423,0.0,0.0,0.0,0.0,-3.8227,-3.8737,-3.9687,-4.08,-4.2084,-4.369,-4.395,0.0,-4.3277,-4.3109,-4.296,-4.2554,-4.2674,-4.301,-4.293,-4.2795,-4.2688,-4.2459,-4.2366,-4.2187,-4.1827,-4.1897,-4.1937,-4.1272,-4.1124,-4.1057,-4.0477,-4.025,-4.0014,-3.9365,-3.9076,-3.8471,-3.6837,-3.6468,-3.6061,-3.4792,-3.4471,-3.4122,-3.3176,-3.2631,-3.2249,-3.1993,-3.2001,-3.1951,-3.1721,-3.1834,-3.1963,-3.2182,-3.1877,-3.173,-3.1853,-3.1656,-3.1582,-3.1582,-3.1435,-3.1643,-3.2337,-3.1898,-3.203,-3.2805,-3.2494,-3.2256,-3.2109,-3.2208,-3.2026,-3.1629,-3.1772,-3.1721,-3.1629,-3.1721,-3.1721,-3.1618,-3.1578,-3.1476,-3.1322,-3.1075,-3.0827,-3.0557,-3.0245,-3.0088,-2.9994,-3.7679,-3.692,-3.6443,-3.6568,-3.8695,-4.1045,-4.2891,-4.4704,-4.6254,-4.7338,-4.6432,-4.6068,-4.7051,-4.6914,-4.6468,-4.583,-4.6352,-4.6385,-4.5617,-4.5282,-4.5488,-4.6352,-4.5186,-4.5186,-4.6566,-4.6144,-4.5786,-4.5456,-4.3943,-4.2542,0.0,0.0,0.0,0.0,0.0,-3.8782,-3.8666,-4.0314,-4.121,-4.1647,-4.2955,-4.3343,-4.3067,-4.281,-4.2821,-4.2863,-4.2405,-4.2459,-4.2688,-4.2648,-4.25,-4.2351,-4.231,-4.216,-4.1953,-4.1702,-4.1814,-4.1926,-4.1438,-4.1255,-4.1086,-4.0445,-4.0213,-4.0023,-3.9394,-3.9161,-3.8759,-3.7679,-3.708,-3.651,-3.5805,-3.4754,-3.3728,-3.3019,-3.2411,-3.2154,-3.2395,-3.23,-3.2218,-3.2205,-3.2017,0.0,-3.2218,-3.2182,-3.2146,-3.2109,-3.2,-3.1927,-3.189,-3.1634,-3.1551,-3.1676,-3.1363,-3.133,-3.1664,-3.1748,-3.1712,-3.1674,-3.1912,-3.1924,-3.1618,-3.1618,-3.1618,-3.1618,-3.1874,-3.1823,-3.1629,-3.1874,-3.1823,-3.1567,-3.1322,-3.1086,-3.0827,-3.0505,-3.0245,-3.0047,-3.7555,-3.7527,-3.7386,-3.6985,-3.9862,-4.2313,-4.2534,-4.3735,-4.5251,-4.7004,-4.5674,-4.5198,-4.6781,-4.6272,-4.6042,-4.6631,-4.6157,-4.5697,-4.5362,-4.4646,-4.4546,-4.5247,-4.4227,-4.4538,-4.6566,-4.4818,-4.4703,-4.637,-4.3532,-4.2062,0.0,0.0,0.0,0.0,0.0,-3.8348,-3.8991,-4.1197,-4.1575,-4.0821,-4.2293,-4.2697,-4.2381,-4.1611,-4.1782,-4.2338,-4.1779,-4.2049,-4.2648,-4.224,-4.209,-4.2049,-4.1868,-4.1675,-4.148,-4.1184,-4.1325,-4.1438,-4.0958,-4.0674,-4.0402,-4.0126,-3.9587,-3.9131,-3.8997,-3.8961,-3.8627,-3.7488,-3.7319,-3.6956,-3.5683,-3.4875,-3.4297,-3.3968,-3.3295,-3.2762,-3.2665,-3.2372,-3.2241,-3.2359,-3.2006,-3.1887,-3.2327,-3.2119,-3.189,-3.172,-3.1963,-3.2073,-3.189,-3.2021,-3.2233,-3.2633,-3.2054,-3.1833,-3.1946,-3.2008,-3.1821,-3.14,-3.2067,-3.2139,-3.1618,-3.1823,-3.1823,-3.1618,-3.1669,-3.1618,-3.1618,-3.1669,-3.1618,-3.1567,-3.1322,-3.1178,-3.1075,-3.0599,-3.0391,-3.0297,-3.7601,-3.7543,-3.7608,-3.7656,-4.0225,-4.2435,-4.2899,-4.4312,-4.5704,-4.6761,-4.5663,-4.5319,-4.659,-4.6362,-4.6099,-4.6067,-4.5996,-4.5712,-4.517,-4.5117,-4.5221,-4.5555,-4.4898,-4.508,-4.6298,-4.5235,-4.4958,-4.5665,-4.3929,-4.2645,0.0,0.0,0.0,-3.9194,-3.8825,-3.9184,-4.009,-4.1139,-4.1122,-4.0524,-4.1453,-4.1881,-4.1879,-4.1127,-4.1411,-4.2038,-4.1412,-4.1535,-4.2007,-4.1758,-4.1675,-4.1675,-4.1591,-4.148,-4.1311,-4.0944,-4.1015,-4.1,-4.0095,-4.0078,-4.0102,-3.9349,-3.9005,-3.881,-3.8572,-3.8591,-3.831,-3.7233,-3.7273,-3.7035,-3.5532,-3.4687,-3.4099,-3.3771,-3.314,-3.261,-3.2454,-3.2314,-3.2205,-3.23,-3.2105,-3.2061,-3.2291,-3.2073,-3.189,-3.189,-3.2,-3.2036,-3.2073,-3.2036,-3.1984,-3.1911,-3.1485,-3.1145,-3.0917,-3.1109,-3.1159,-3.1058,-3.1591,-3.1794,-3.1618,-3.1721,-3.1721,-3.1618,-3.1772,-3.1721,-3.1618,-3.1618,-3.1618,-3.1578,-3.1476,-3.1322,-3.1178,-3.0765,-3.0505,-3.0339,-3.8279,-3.833,-3.8584,-3.8956,-4.0919,-4.2763,-4.3537,-4.5077,-4.6227,-4.6493,-4.5958,-4.5779,-4.6464,-4.6528,-4.6269,-4.5549,-4.5994,-4.6003,-4.5269,-4.5814,-4.6096,-4.6004,-4.5735,-4.5735,-4.5952,-4.5844,-4.5539,-4.495,-4.4402,-4.3304,-4.172,0.0,0.0,-3.9851,-4.0032,-4.0539,-4.1211,-4.1164,-4.0953,-4.0626,-4.0943,-4.1184,-4.1289,-4.0884,-4.1097,-4.1593,-4.1114,-4.1029,-4.1185,-4.1227,-4.1269,-4.1269,-4.1297,-4.1213,-4.1043,-4.0716,-4.0632,-4.0407,-3.935,-3.9461,-3.9643,-3.8428,-3.8415,-3.8619,-3.8193,-3.8314,-3.8249,-3.7267,-3.716,-3.683,-3.5473,-3.4588,-3.3925,-3.3542,-3.2892,-3.2421,-3.2256,-3.2212,-3.2175,-3.2102,-3.2048,-3.2041,-3.2128,-3.1761,-3.1607,-3.1991,-3.1921,-3.189,-3.2059,-3.1927,-3.1591,-3.097,-3.0762,-3.0366,-2.9741,-3.0185,-3.0514,-3.0682,-3.1138,-3.1471,-3.1618,-3.1618,-3.1618,-3.1618,-3.1772,-3.1721,-3.1516,-3.1516,-3.1578,-3.1567,-3.1527,-3.1424,-3.123,-3.0879,-3.0609,-3.0453,-4.0346,-4.1199,-4.1788,-4.1357,-4.3044,-4.4366,-4.4194,-4.4961,-4.5755,-4.6262,-4.625,-4.6234,-4.6333,-4.6333,-4.6317,-4.6202,-4.6266,-4.6211,-4.6001,-4.6175,-4.6064,-4.5589,-4.588,-4.59,-4.5541,-4.5719,-4.5687,-4.5447,-4.4419,-4.3333,-4.2209,-4.1182,-4.0558,-4.0396,-4.1594,-4.196,-4.1666,-4.2093,-4.1879,-4.131,-4.1367,-4.1015,-4.0512,-4.0644,-4.0629,-4.0555,-4.0687,-4.063,-4.0515,-4.0702,-4.0787,-4.0787,-4.0972,-4.0631,-4.0184,-4.0385,-4.0024,-3.9423,-3.8941,-3.8739,-3.8436,-3.7551,-3.7887,-3.8306,-3.7834,-3.8327,-3.8666,-3.8101,-3.712,-3.6243,-3.5645,-3.5114,-3.4561,-3.4113,-3.3252,-3.2594,-3.2397,-3.2203,-3.2051,-3.1873,-3.1547,-3.1521,-3.1882,-3.0811,-3.0482,-3.1384,-3.1589,-3.1633,-3.168,-3.1633,-3.1393,-3.0838,-3.0611,-3.0109,-2.9167,-3.0068,-3.0368,-3.0166,-3.1125,-3.1586,-3.1618,-3.1618,-3.1618,-3.1578,-3.1373,-3.127,-3.123,-3.123,-3.1373,-3.1578,-3.1322,-3.1373,-3.1476,-3.0703,-3.0557,-3.0672,-4.1287,-4.1375,-4.156,-4.1595,-4.2774,-4.3662,-4.3463,-4.4596,-4.5395,-4.5083,-4.5595,-4.6044,-4.6168,-4.6187,-4.5957,-4.5456,-4.577,-4.5638,-4.483,-4.5446,-4.5609,-4.5151,-4.5389,-4.5463,-4.5315,-4.5405,-4.5405,-4.5315,-4.4759,-4.4004,-4.3045,-4.2526,-4.2203,-4.2144,-4.231,-4.2488,-4.2624,-4.2164,-4.166,-4.1142,-4.0845,-4.0516,-4.0154,-4.027,-4.0227,-4.0198,-4.0414,-4.0371,-4.0198,-4.0428,-4.0515,-4.0544,-4.0616,-4.0278,-3.98,-3.9528,-3.9348,-3.8988,-3.7823,-3.8205,-3.8601,-3.7059,-3.7547,-3.8293,-3.7824,-3.8073,-3.8343,-3.8115,-3.7316,-3.6436,-3.5934,-3.5429,-3.4813,-3.3962,-3.3446,-3.3039,-3.2659,-3.2463,-3.2503,-3.2723,-3.2082,-3.1781,-3.2276,-3.1164,-3.0538,-3.0804,-3.1079,-3.1373,-3.1582,-3.111,-3.0727,-3.058,-3.0124,-2.9699,-2.9239,-2.9885,-3.0248,-3.033,-3.0932,-3.1334,-3.1618,-3.1618,-3.1618,-3.1578,-3.1322,-3.127,-3.1424,-3.1424,-3.1527,-3.1578,-3.1476,-3.1424,-3.1322,-3.0817,-3.062,-3.0505,-4.2124,-4.1872,-4.1836,-4.2053,-4.2726,-4.3195,-4.3051,-4.433,-4.5091,-4.4481,-4.5076,-4.5662,-4.6004,-4.6004,-4.5647,-4.4705,-4.5063,-4.4909,-4.3971,-4.4627,-4.4986,-4.4896,-4.5092,-4.5129,-4.5017,-4.5092,-4.5092,-4.5017,-4.4814,-4.4308,-4.3497,-4.3348,-4.331,-4.3288,-4.2992,-4.3052,-4.3329,-4.2184,-4.1479,-4.1057,-4.0445,-4.0069,-3.9922,-3.9966,-3.9966,-3.9966,-4.0255,-4.0211,-3.9938,-4.009,-4.0034,-3.9948,-3.9991,-3.9757,-3.9368,-3.8721,-3.8609,-3.8473,-3.7191,-3.7855,-3.8521,-3.7018,-3.7536,-3.8293,-3.7987,-3.8121,-3.8317,-3.8153,-3.7497,-3.6777,-3.628,-3.5637,-3.4897,-3.4007,-3.3537,-3.3079,-3.2638,-3.2391,-3.2389,-3.2695,-3.206,-3.1798,-3.2278,-3.1389,-3.0757,-3.0653,-3.0643,-3.083,-3.1125,-3.0573,-3.0181,-3.0049,-2.9584,-2.9295,-2.9224,-2.9772,-3.0224,-3.0602,-3.0954,-3.1291,-3.1618,-3.1527,-3.1476,-3.1476,-3.1178,-3.1219,-3.1476,-3.1476,-3.1527,-3.1618,-3.1618,-3.1476,-3.1281,-3.0931,-3.0672,-3.0505,-4.3069,-4.3302,-4.3494,-4.3308,-4.3473,-4.3547,-4.3339,-4.4223,-4.4911,-4.4896,-4.4911,-4.5151,-4.5735,-4.5807,-4.5378,-4.4278,-4.4231,-4.4123,-4.3888,-4.3903,-4.4214,-4.488,-4.5092,-4.5017,-4.4625,-4.4799,-4.4799,-4.461,-4.4396,-4.3968,-4.331,-4.331,-4.331,-4.3318,-4.3784,-4.384,-4.3512,-4.2225,-4.1577,-4.1311,-4.0386,-3.9892,-3.9744,-3.9922,-3.9892,-3.9744,-4.0225,-4.0095,-3.9692,-3.9533,-3.9197,-3.8855,-3.9069,-3.8984,-3.8689,-3.8086,-3.7852,-3.7796,-3.7557,-3.7668,-3.7753,-3.7528,-3.7933,-3.8423,-3.838,-3.8624,-3.876,-3.8277,-3.7738,-3.7151,-3.6689,-3.568,-3.4844,-3.4615,-3.3467,-3.252,-3.2244,-3.1738,-3.1358,-3.1137,-3.1166,-3.1295,-3.1601,-3.1116,-3.0925,-3.1181,-3.0381,-2.9951,-3.01,-3.0113,-2.9817,-2.9249,-2.8998,-2.8929,-2.9026,-2.9711,-3.0354,-3.089,-3.1361,-3.1567,-3.1578,-3.1333,-3.1178,-3.1178,-3.0931,-3.0983,-3.1178,-3.1178,-3.1373,-3.1618,-3.1618,-3.1618,-3.1527,-3.0983,-3.0786,-3.0776,-4.3707,-4.3249,-4.2944,-4.3256,-4.3281,-4.3102,-4.268,-4.3908,-4.4703,-4.409,-4.452,-4.5039,-4.5368,-4.5405,-4.5013,-4.407,-4.4538,-4.4489,-4.3565,-4.4189,-4.4529,-4.4496,-4.4701,-4.4739,-4.461,-4.4549,-4.4473,-4.4396,-4.4205,-4.3997,-4.3784,-4.3784,-4.3846,-4.3976,-4.3858,-4.3675,-4.3329,-4.199,-4.1324,-4.1057,-4.014,-3.9774,-3.97,-3.9774,-3.9628,-3.9452,-3.9818,-3.9426,-3.8855,-3.8996,-3.8652,-3.8071,-3.7563,-3.7839,-3.8281,-3.7624,-3.7585,-3.774,-3.74,-3.7741,-3.8043,-3.7466,-3.8158,-3.8824,-3.8081,-3.8163,-3.8336,-3.8031,-3.7717,-3.7287,-3.669,-3.5884,-3.5089,-3.4661,-3.367,-3.289,-3.2847,-3.2075,-3.1716,-3.2215,-3.1296,-3.0967,-3.1788,-3.0819,-3.0187,-3.0364,-2.9992,-2.9826,-2.9945,-2.9363,-2.8934,-2.8815,-2.8441,-2.8539,-2.9048,-2.9429,-3.0052,-3.0877,-3.1171,-3.1424,-3.1567,-3.1127,-3.1127,-3.1476,-3.0983,-3.1086,-3.1476,-3.1476,-3.1527,-3.1618,-3.1618,-3.1618,-3.1578,-3.1178,-3.0983,-3.0776,-4.3738,-4.3054,-4.2545,-4.2796,-4.2831,-4.2726,-4.2386,-4.3676,-4.4471,-4.3927,-4.4386,-4.4852,-4.498,-4.498,-4.4663,-4.3871,-4.427,-4.422,-4.3356,-4.3859,-4.4234,-4.4305,-4.4358,-4.4358,-4.4358,-4.4243,-4.4166,-4.4166,-4.4065,-4.3949,-4.3871,-4.3949,-4.4065,-4.4166,-4.3847,-4.3557,-4.321,-4.2058,-4.1352,-4.0916,-4.014,-3.973,-3.9554,-3.9554,-3.9316,-3.9051,-3.9516,-3.8978,-3.8084,-3.8384,-3.7932,-3.7205,-3.6456,-3.6811,-3.7385,-3.6792,-3.7119,-3.7627,-3.7358,-3.7952,-3.8425,-3.7714,-3.8118,-3.8407,-3.7405,-3.7316,-3.7342,-3.7072,-3.6767,-3.6482,-3.6109,-3.536,-3.4698,-3.4255,-3.3563,-3.3057,-3.3009,-3.2185,-3.1779,-3.2313,-3.1308,-3.0862,-3.1539,-3.0867,-3.0399,-3.0478,-3.0124,-2.9831,-2.9752,-2.8982,-2.8545,-2.8505,-2.8081,-2.8254,-2.9063,-2.9264,-2.9881,-3.0878,-3.109,-3.1322,-3.1567,-3.1034,-3.1034,-3.1424,-3.0868,-3.0972,-3.1476,-3.1476,-3.1527,-3.1618,-3.1618,-3.1527,-3.1424,-3.127,-3.0972,-3.062,-4.3344,-4.2806,-4.2372,-4.2252,-4.2324,-4.2449,-4.2494,-4.3539,-4.4281,-4.4281,-4.4435,-4.4572,-4.4587,-4.4587,-4.4326,-4.3732,-4.3685,-4.3596,-4.3387,-4.3198,-4.345,-4.4251,-4.4104,-4.3988,-4.3988,-4.3988,-4.3988,-4.3949,-4.3949,-4.3832,-4.3651,-4.3871,-4.3949,-4.3949,-4.3754,-4.3518,-4.321,-4.2333,-4.1576,-4.0916,-4.0243,-3.9733,-3.9305,-3.9305,-3.8952,-3.8545,-3.9349,-3.8689,-3.7485,-3.7739,-3.7094,-3.6153,-3.5778,-3.594,-3.6153,-3.5846,-3.6577,-3.7499,-3.754,-3.8165,-3.872,-3.8209,-3.7802,-3.7307,-3.6398,-3.6149,-3.6017,-3.5563,-3.5264,-3.5053,-3.5053,-3.442,-3.3809,-3.3575,-3.3258,-3.2984,-3.2747,-3.2042,-3.1504,-3.1476,-3.108,-3.0824,-3.0849,-3.1053,-3.1185,-3.1253,-3.053,-2.9907,-2.9516,-2.8889,-2.8443,-2.8263,-2.7846,-2.8072,-2.8985,-2.9204,-2.9841,-3.0776,-3.1023,-3.1322,-3.1527,-3.1034,-3.0931,-3.1127,-3.0599,-3.0703,-3.1178,-3.1178,-3.1322,-3.1567,-3.1578,-3.1424,-3.1178,-3.1178,-3.0858,-3.0443,-4.329,-4.2908,-4.27,-4.3241,-4.3066,-4.3038,-4.3553,-4.3881,-4.4065,-4.4065,-4.4089,-4.4205,-4.4358,-4.4358,-4.4373,-4.4356,-4.4379,-4.4341,-4.4303,-4.4113,-4.4075,-4.4281,-4.4104,-4.3988,-4.3988,-4.3832,-4.3675,-4.3463,-4.3463,-4.3369,-4.3155,-4.3369,-4.3463,-4.3463,-4.325,-4.3115,-4.3036,-4.2143,-4.1395,-4.073,-4.0213,-3.9733,-3.9305,-3.9305,-3.9064,-3.8809,-3.9002,-3.8169,-3.7002,-3.7032,-3.6307,-3.5382,-3.529,-3.5302,-3.5476,-3.6004,-3.6791,-3.7594,-3.7868,-3.8105,-3.8192,-3.7868,-3.6999,-3.6204,-3.5942,-3.562,-3.5322,-3.5232,-3.4996,-3.4771,-3.4771,-3.4318,-3.3897,-3.3809,-3.3096,-3.242,-3.1964,-3.1264,-3.0612,-3.025,-2.9952,-2.9907,-3.0351,-2.9922,-3.0016,-3.0919,-2.965,-2.8994,-2.9492,-2.8423,-2.7797,-2.7753,-2.766,-2.8072,-2.8985,-2.8857,-2.9377,-3.0505,-3.0776,-3.0931,-3.0983,-3.0661,-3.0661,-3.0879,-3.0547,-3.0609,-3.0931,-3.1127,-3.123,-3.1322,-3.1527,-3.1424,-3.1178,-3.1178,-3.0858,-3.0391,-4.329,-4.303,-4.2935,-4.3442,-4.3335,-4.3238,-4.36,-4.3778,-4.3871,-4.3871,-4.3949,-4.405,-4.4127,-4.4243,-4.4358,-4.4473,-4.4549,-4.461,-4.461,-4.432,-4.4166,-4.4166,-4.3856,-4.366,-4.366,-4.3503,-4.329,-4.3155,-4.325,-4.325,-4.3155,-4.3155,-4.321,-4.329,-4.3076,-4.2955,-4.2835,-4.2129,-4.1395,-4.0659,-4.017,-3.9733,-3.9305,-3.9145,-3.8894,-3.8559,-3.8693,-3.7905,-3.6817,-3.6817,-3.6133,-3.5307,-3.5165,-3.5044,-3.5123,-3.5875,-3.6632,-3.7254,-3.7447,-3.7729,-3.7708,-3.68,-3.58,-3.4951,-3.4735,-3.453,-3.428,-3.406,-3.3884,-3.3738,-3.3662,-3.3426,-3.317,-3.3039,-3.2463,-3.192,-3.1686,-3.098,-3.0442,-3.018,-2.9859,-2.9761,-3.0158,-2.9709,-2.9822,-3.0805,-2.9849,-2.9304,-2.9456,-2.8583,-2.7973,-2.7625,-2.7694,-2.8088,-2.8796,-2.9082,-2.9641,-3.0391,-3.0557,-3.0672,-3.0776,-3.0505,-3.0505,-3.0609,-3.0349,-3.0349,-3.062,-3.0931,-3.1034,-3.1034,-3.1333,-3.1167,-3.0858,-3.0972,-3.0661,-3.0245,-4.325,-4.3155,-4.3115,-4.325,-4.329,-4.329,-4.329,-4.3503,-4.3636,-4.3636,-4.3793,-4.391,-4.3949,-4.4127,-4.4281,-4.4281,-4.4473,-4.4572,-4.461,-4.4205,-4.3988,-4.3988,-4.3542,-4.329,-4.329,-4.3115,-4.2981,-4.2981,-4.313,-4.317,-4.317,-4.3036,-4.3036,-4.321,-4.2996,-4.2795,-4.2552,-4.2087,-4.1395,-4.0573,-4.017,-3.9634,-3.9125,-3.8876,-3.8491,-3.8054,-3.834,-3.7674,-3.6688,-3.6688,-3.6122,-3.536,-3.5067,-3.488,-3.4861,-3.561,-3.617,-3.6638,-3.6867,-3.72,-3.7166,-3.5564,-3.4617,-3.3907,-3.3441,-3.3313,-3.321,-3.2909,-3.2729,-3.2618,-3.2542,-3.2449,-3.23,-3.2025,-3.1761,-3.1522,-3.1524,-3.0894,-3.0469,-3.0415,-3.0102,-2.994,-3.0144,-2.9839,-2.9976,-3.0756,-3.021,-2.9683,-2.9296,-2.8762,-2.8205,-2.7651,-2.7814,-2.8183,-2.8711,-2.957,-3.0088,-3.0349,-3.0349,-3.0453,-3.0672,-3.0453,-3.0349,-3.0339,-3.0099,-3.0141,-3.0339,-3.062,-3.0724,-3.0776,-3.1023,-3.0868,-3.0443,-3.0672,-3.0412,-3.0047,-4.329,-4.325,-4.325,-4.329,-4.329,-4.329,-4.329,-4.3329,-4.3384,-4.3384,-4.3369,-4.3503,-4.3714,-4.391,-4.4089,-4.4281,-4.432,-4.4435,-4.4572,-4.4205,-4.3988,-4.3988,-4.3542,-4.329,-4.329,-4.3115,-4.2981,-4.2981,-4.285,-4.2703,-4.2555,-4.2688,-4.2769,-4.2769,-4.2581,-4.2363,-4.2087,-4.166,-4.0944,-4.0083,-4.0039,-3.9388,-3.8515,-3.8283,-3.8023,-3.775,-3.7621,-3.6977,-3.6197,-3.6197,-3.5489,-3.457,-3.452,-3.4481,-3.4557,-3.5201,-3.5437,-3.5811,-3.7192,-3.7152,-3.6371,-3.5055,-3.4234,-3.3641,-3.324,-3.2982,-3.2934,-3.3307,-3.2871,-3.2579,-3.299,-3.2707,-3.23,-3.2045,-3.1582,-3.1149,-3.0715,-3.0418,-3.0089,-2.9617,-2.9546,-2.9641,-2.9861,-2.9294,-2.9318,-3.0253,-2.9095,-2.8487,-2.8785,-2.7988,-2.7596,-2.7859,-2.7883,-2.8328,-2.9187,-2.9725,-3.0047,-3.0047,-3.0047,-3.0099,-3.0099,-3.0099,-3.0047,-3.0047,-2.9994,-3.0047,-3.0099,-3.0349,-3.0443,-3.0495,-3.0776,-3.0661,-3.0391,-3.0453,-3.0245,-2.9994,-4.329,-4.321,-4.3155,-4.329,-4.329,-4.329,-4.329,-4.329,-4.329,-4.329,-4.329,-4.3384,-4.369,-4.3871,-4.4089,-4.4281,-4.4396,-4.4458,-4.4435,-4.4065,-4.3847,-4.3847,-4.3369,-4.305,-4.2824,-4.2915,-4.2875,-4.2688,-4.2688,-4.2648,-4.2581,-4.2541,-4.2648,-4.2835,-4.2377,-4.2117,-4.1949,-4.1283,-4.0616,-3.9996,-3.9733,-3.9084,-3.8206,-3.7973,-3.7723,-3.7515,-3.7293,-3.6917,-3.6541,-3.6214,-3.5561,-3.4829,-3.4502,-3.4397,-3.4515,-3.5116,-3.573,-3.631,-3.6727,-3.6507,-3.5861,-3.4868,-3.4075,-3.3428,-3.297,-3.281,-3.2698,-3.2695,-3.2428,-3.2242,-3.2354,-3.2196,-3.1981,-3.1869,-3.1247,-3.0738,-3.0521,-3.0097,-2.9702,-2.9425,-2.9704,-2.9961,-3.002,-2.9941,-3.0112,-3.0479,-2.9443,-2.8917,-2.9225,-2.8348,-2.7977,-2.8286,-2.8535,-2.899,-2.9673,-2.9891,-2.9994,-2.9994,-2.9994,-2.9994,-2.9994,-2.9994,-2.9994,-2.9994,-2.9994,-2.9994,-3.0047,-3.0287,-3.0287,-3.0193,-3.0505,-3.0401,-3.0193,-3.0193,-3.0099,-3.0047,-4.325,-4.3155,-4.3076,-4.325,-4.329,-4.329,-4.329,-4.329,-4.329,-4.329,-4.329,-4.3384,-4.3596,-4.3793,-4.3988,-4.4127,-4.4281,-4.432,-4.4166,-4.3832,-4.3596,-4.3596,-4.317,-4.2809,-4.2474,-4.2729,-4.2688,-4.2392,-4.2514,-4.2541,-4.2541,-4.2392,-4.2541,-4.2915,-4.224,-4.1895,-4.1769,-4.0972,-4.03,-3.9807,-3.9275,-3.8617,-3.7859,-3.7467,-3.7166,-3.6929,-3.6708,-3.6606,-3.6541,-3.607,-3.5547,-3.5012,-3.4541,-3.4502,-3.4724,-3.5312,-3.6305,-3.705,-3.6305,-3.5934,-3.5585,-3.4825,-3.3946,-3.3227,-3.2797,-3.2636,-3.2456,-3.224,-3.2034,-3.193,-3.1886,-3.1801,-3.1661,-3.1528,-3.0954,-3.0482,-3.0425,-2.9892,-2.9515,-2.9586,-2.9986,-3.0259,-3.0252,-3.0526,-3.0691,-3.0625,-2.9785,-2.9356,-2.952,-2.8676,-2.839,-2.8752,-2.9114,-2.9528,-2.9994,-2.9994,-2.9994,-2.9994,-2.9994,-2.9994,-2.9994,-2.9994,-2.9994,-2.9994,-2.9994,-2.9994,-2.9994,-3.0245,-3.0193,-3.0047,-3.0245,-3.0193,-2.9994,-2.9994,-2.9994,-3.0047,-4.325,-4.3155,-4.3076,-4.325,-4.329,-4.329,-4.329,-4.329,-4.329,-4.329,-4.329,-4.329,-4.3329,-4.3557,-4.3729,-4.3729,-4.3769,-4.3769,-4.3769,-4.3463,-4.3329,-4.3329,-4.293,-4.2688,-4.2688,-4.2541,-4.2433,-4.2392,-4.2242,-4.2133,-4.2133,-4.2133,-4.2366,-4.2688,-4.2034,-4.159,-4.1296,-4.0631,-3.9968,-3.9295,-3.8708,-3.7995,-3.7201,-3.6425,-3.5958,-3.5716,-3.5503,-3.543,-3.5417,-3.5365,-3.4959,-3.4463,-3.441,-3.4776,-3.5338,-3.5887,-3.6894,-3.7586,-3.6423,-3.5934,-3.5585,-3.4825,-3.3873,-3.3068,-3.2754,-3.2376,-3.2171,-3.267,-3.2188,-3.1874,-3.2346,-3.201,-3.1584,-3.1107,-3.0746,-3.0425,-3.0236,-2.9979,-2.9852,-3.0101,-3.019,-3.0284,-3.0462,-3.0329,-3.0214,-3.0136,-2.9296,-2.882,-2.9058,-2.8351,-2.8328,-2.9228,-2.929,-2.9528,-2.9994,-2.9994,-2.9994,-2.9994,-2.9994,-2.9994,-2.9994,-2.9994,-2.9994,-2.9994,-2.9994,-2.9994,-2.9994,-3.0047,-2.9994,-2.9994,-3.0047,-2.9994,-2.9994,-2.9994,-2.9994,-2.9994,-4.329,-4.325,-4.321,-4.329,-4.329,-4.329,-4.329,-4.329,-4.329,-4.329,-4.329,-4.3384,-4.3518,-4.3636,-4.3769,-4.3886,-4.3738,-4.366,-4.369,-4.3329,-4.3036,-4.293,-4.289,-4.2688,-4.2325,-4.2392,-4.2366,-4.2201,-4.2133,-4.2092,-4.2092,-4.2092,-4.231,-4.2648,-4.1868,-4.1437,-4.1254,-4.0431,-3.9513,-3.8516,-3.83,-3.7625,-3.6691,-3.6024,-3.5811,-3.5843,-3.546,-3.5299,-3.5299,-3.5299,-3.4894,-3.4397,-3.4397,-3.4554,-3.4855,-3.543,-3.6162,-3.6684,-3.6227,-3.5846,-3.5466,-3.4781,-3.383,-3.2995,-3.2593,-3.2388,-3.223,-3.216,-3.1894,-3.1777,-3.1994,-3.1849,-3.1572,-3.1229,-3.0974,-3.0793,-3.0713,-3.0325,-3.0133,-3.0419,-3.0904,-3.1061,-3.076,-3.1278,-3.1361,-3.0847,-2.9789,-2.9388,-2.9835,-2.9454,-2.9373,-2.9715,-2.9735,-2.9818,-2.9994,-2.9994,-2.9994,-2.9994,-2.9994,-2.9994,-2.9994,-2.9994,-2.9994,-2.9994,-2.9994,-2.9994,-2.9994,-2.9994,-2.9994,-2.9994,-2.9994,-2.9994,-2.9994,-2.9994,-2.9994,-3.0047,-4.329,-4.321,-4.313,-4.329,-4.329,-4.329,-4.329,-4.329,-4.329,-4.329,-4.329,-4.3384,-4.3557,-4.3557,-4.3636,-4.3778,-4.3566,-4.3433,-4.3463,-4.313,-4.2809,-4.2607,-4.2688,-4.25,-4.2092,-4.2242,-4.2242,-4.2092,-4.2092,-4.2092,-4.2092,-4.2092,-4.2284,-4.2581,-4.1758,-4.1367,-4.1282,-4.0372,-3.947,-3.8563,-3.8243,-3.7601,-3.6787,-3.5933,-3.571,-3.5783,-3.5221,-3.5012,-3.5012,-3.5012,-3.4737,-3.4397,-3.4397,-3.4528,-3.4763,-3.5182,-3.5678,-3.6031,-3.5579,-3.5326,-3.5128,-3.4686,-3.3786,-3.2853,-3.2475,-3.2344,-3.2169,-3.1793,-3.1705,-3.1661,-3.1572,-3.1572,-3.1484,-3.1116,-3.1062,-3.0939,-3.0781,-3.0601,-3.0454,-3.0487,-3.1216,-3.1495,-3.0858,-3.1538,-3.1699,-3.0838,-2.9885,-2.9563,-3.0129,-3.0068,-3.0047,-3.0141,-3.0047,-2.9994,-2.9994,-2.9994,-2.9994,-2.9994,-2.9994,-2.9994,-2.9994,-2.9994,-2.9994,-2.9994,-2.9994,-2.9994,-2.9994,-2.9994,-2.9994,-2.9994,-2.9994,-2.9994,-2.9994,-2.9994,-2.9994,-3.0047,-4.321,-4.297,-4.2809,-4.321,-4.329,-4.329,-4.3305,-4.329,-4.329,-4.329,-4.329,-4.329,-4.329,-4.329,-4.329,-4.329,-4.3115,-4.2981,-4.2981,-4.2809,-4.2622,-4.2392,-4.2216,-4.2092,-4.2092,-4.2092,-4.2092,-4.2092,-4.2092,-4.2092,-4.2092,-4.2092,-4.2216,-4.2351,-4.1689,-4.1396,-4.1354,-4.0386,-3.9878,-3.9601,-3.8536,-3.793,-3.7563,-3.6148,-3.547,-3.5221,-3.462,-3.4397,-3.4397,-3.4397,-3.4397,-3.4397,-3.4397,-3.4816,-3.5286,-3.5299,-3.5678,-3.5805,-3.4471,-3.4332,-3.4597,-3.4597,-3.3644,-3.2636,-3.2431,-3.2169,-3.1937,-3.1749,-3.1705,-3.1617,-3.135,-3.1306,-3.1172,-3.0668,-3.0826,-3.0793,-3.0261,-3.0646,-3.0793,-3.0261,-3.1111,-3.1394,-3.0704,-3.084,-3.0673,-2.9888,-2.9303,-2.9205,-2.9667,-2.9891,-3.0141,-3.0391,-3.0151,-2.9994,-2.9994,-2.9994,-2.9994,-2.9994,-2.9994,-2.9994,-2.9994,-2.9994,-2.9994,-2.9994,-2.9994,-2.9994,-2.9994,-2.9994,-2.9994,-2.9994,-2.9994,-2.9994,-2.9994,-2.9994,-2.9994,-2.9994,-4.329,-4.309,-4.2955,-4.3076,-4.3076,-4.3036,-4.289,-4.313,-4.325,-4.3115,-4.321,-4.329,-4.329,-4.329,-4.329,-4.329,-4.297,-4.2648,-4.2392,-4.2433,-4.2392,-4.2216,-4.2284,-4.2242,-4.2092,-4.2092,-4.2092,-4.2092,-4.2092,-4.2092,-4.2092,-4.2092,-4.2216,-4.2351,-4.1689,-4.1396,-4.1354,-4.0386,-3.953,-3.8727,-3.8071,-3.771,-3.7338,-3.5946,-3.5577,-3.573,-3.475,-3.4397,-3.4397,-3.4397,-3.4397,-3.4397,-3.4397,-3.4515,-3.475,-3.5168,-3.5417,-3.5413,-3.4804,-3.4628,-3.4451,-3.3883,-3.3224,-3.2636,-3.2431,-3.2169,-3.1937,-3.1749,-3.1705,-3.1617,-3.135,-3.1306,-3.1217,-3.0916,-3.0927,-3.0972,-3.0982,-3.1005,-3.0939,-3.0793,-3.1495,-3.1816,-3.1418,-3.1954,-3.2074,-3.1394,-3.0472,-2.9795,-2.9464,-2.9798,-3.0047,-3.0141,-3.0047,-2.9994,-2.9994,-2.9994,-2.9994,-2.9994,-2.9994,-2.9994,-2.9994,-2.9994,-2.9994,-2.9994,-2.9994,-2.9994,-2.9994,-2.9994,-2.9994,-2.9994,-2.9994,-2.9994,-2.9994,-2.9994,-2.9994,-3.0046,-4.329,-4.309,-4.2915,-4.3076,-4.3036,-4.2996,-4.293,-4.313,-4.325,-4.3115,-4.321,-4.325,-4.321,-4.317,-4.317,-4.317,-4.289,-4.2541,-4.2133,-4.2201,-4.2242,-4.2092,-4.2201,-4.2201,-4.2092,-4.2092,-4.2092,-4.2092,-4.2092,-4.2092,-4.2092,-4.2092,-4.2175,-4.2242,-4.1647,-4.1339,-4.1198,-4.0343,-3.9513,-3.8691,-3.822,-3.7789,-3.7289,-3.6066,-3.5691,-3.5665,-3.4724,-3.4397,-3.4397,-3.4397,-3.4397,-3.4437,-3.4672,-3.458,-3.4515,-3.5116,-3.5299,-3.5148,-3.456,-3.4504,-3.4382,-3.3508,-3.297,-3.2636,-3.2431,-3.2257,-3.2025,-3.1617,-3.1617,-3.1572,-3.1128,-3.1026,-3.0994,-3.0871,-3.0927,-3.1099,-3.1333,-3.1504,-3.1541,-3.1457,-3.2125,-3.2391,-3.1897,-3.2233,-3.2113,-3.1323,-3.057,-3.0025,-2.9725,-2.9891,-3.0047,-3.0141,-3.0047,-2.9942,-2.9827,-2.9942,-2.9994,-2.9994,-2.9994,-2.9994,-2.9994,-2.9994,-2.9994,-2.9994,-2.9994,-2.9994,-2.9994,-2.9994,-2.9994,-2.9994,-2.9994,-2.9994,-2.9994,-2.9994,-3.0108,-3.0315,-4.3325,-4.3059,-4.2928,-4.3334,-4.3254,-4.3159,-4.326,-4.33,-4.3325,-4.3265,-4.325,-4.317,-4.2996,-4.2996,-4.2996,-4.2996,-4.2809,-4.2541,-4.2133,-4.2133,-4.2133,-4.2092,-4.2092,-4.2092,-4.2092,-4.2092,-4.2092,-4.2092,-4.2092,-4.2092,-4.2092,-4.2092,-4.2092,-4.2092,-4.1564,-4.1241,-4.0958,-4.0257,-3.9689,-3.9247,-3.8774,-3.8081,-3.7316,-3.6424,-3.5717,-3.5221,-3.462,-3.4397,-3.4397,-3.4397,-3.4397,-3.4502,-3.5103,-3.4881,-3.4515,-3.5116,-3.5299,-3.5027,-3.3964,-3.4105,-3.4339,-3.3348,-3.2896,-3.2636,-3.2475,-3.2388,-3.2169,-3.1484,-3.1528,-3.1439,-3.0758,-3.0623,-3.0623,-3.0623,-3.0826,-3.1115,-3.1402,-3.2035,-3.2396,-3.2147,-3.2779,-3.2968,-3.2227,-3.1957,-3.1362,-3.0288,-2.9954,-2.994,-3.0318,-3.0141,-3.0099,-3.0339,-3.0141,-2.9879,-2.9606,-2.9827,-2.9942,-2.9942,-2.9942,-2.9942,-2.9942,-2.9942,-2.9994,-2.9994,-2.9994,-2.9994,-2.9994,-2.9994,-2.9994,-2.9994,-2.9994,-2.9994,-2.9994,-2.9994,-3.0284,-3.0688,-4.3775,-4.3634,-4.3605,-4.4007,-4.4053,-4.3877,-4.3378,-4.3469,-4.3415,-4.2883,-4.2809,-4.2809,-4.2769,-4.2769,-4.2769,-4.2769,-4.2729,-4.2541,-4.2133,-4.2242,-4.2242,-4.2092,-4.2092,-4.2092,-4.2092,-4.2092,-4.2092,-4.2092,-4.2092,-4.2092,-4.2092,-4.2092,-4.2092,-4.2051,-4.1367,-4.1043,-4.0958,-4.0097,-3.9584,-3.922,-3.8495,-3.7887,-3.7276,-3.6121,-3.5519,-3.5221,-3.462,-3.4397,-3.4397,-3.4397,-3.4397,-3.4502,-3.5103,-3.4881,-3.4515,-3.5116,-3.5158,-3.48,-3.3922,-3.4007,-3.4096,-3.3305,-3.2779,-3.2475,-3.2593,-3.2332,-3.2038,-3.1893,-3.1617,-3.1306,-3.096,-3.0724,-3.0623,-3.0623,-3.0826,-3.116,-3.1562,-3.1954,-3.2235,-3.2383,-3.2731,-3.2915,-3.2715,-3.227,-3.1759,-3.1313,-3.0647,-3.0182,-3.0088,-3.0047,-3.0047,-3.0099,-3.0047,-2.9879,-2.9606,-2.9659,-2.9554,-2.929,-2.9554,-2.9669,-2.9669,-2.9669,-2.9774,-2.9994,-2.9994,-2.9994,-2.9994,-2.9994,-2.9994,-2.9994,-2.9994,-2.9879,-2.9711,-2.9942,-3.0115,-3.0376,-4.3496,-4.3634,-4.3767,-4.3965,-4.4188,-4.4219,-4.3967,-4.4049,-4.3912,-4.3263,-4.3175,-4.3016,-4.2611,-4.2541,-4.25,-4.2433,-4.25,-4.2433,-4.2133,-4.2216,-4.2201,-4.2092,-4.2092,-4.2092,-4.2092,-4.2092,-4.2051,-4.1897,-4.2051,-4.2036,-4.1897,-4.2036,-4.2092,-4.2051,-4.1311,-4.0958,-4.0802,-4.0023,-3.9452,-3.906,-3.8391,-3.7651,-3.6867,-3.597,-3.5286,-3.4829,-3.4515,-3.4397,-3.4397,-3.4397,-3.4397,-3.4554,-3.5417,-3.5286,-3.4933,-3.5508,-3.5787,-3.5587,-3.4105,-3.4254,-3.4526,-3.3411,-3.2822,-3.255,-3.255,-3.2257,-3.1906,-3.1596,-3.1407,-3.1172,-3.0691,-3.0499,-3.0442,-3.0578,-3.0724,-3.1038,-3.1798,-3.2135,-3.2511,-3.3003,-3.3208,-3.3224,-3.3114,-3.2437,-3.1863,-3.1618,-3.0858,-3.0297,-2.9994,-2.9994,-2.9942,-2.9827,-2.9827,-2.9617,-2.9195,-2.929,-2.9132,-2.8717,-2.9185,-2.9448,-2.9606,-2.9606,-2.9659,-2.9827,-2.9942,-2.9994,-2.9994,-2.9994,-2.9994,-2.9994,-2.9879,-2.9722,-2.9637,-2.9809,-3.0299,-3.0976,-4.3144,-4.3478,-4.3814,-4.3889,-4.4263,-4.4586,-4.4683,-4.4654,-4.4433,-4.3858,-4.3681,-4.3319,-4.257,-4.2424,-4.2284,-4.2092,-4.2284,-4.231,-4.2092,-4.2133,-4.2133,-4.2092,-4.2092,-4.2092,-4.2092,-4.2051,-4.1953,-4.1744,-4.1995,-4.1995,-4.1744,-4.1995,-4.2092,-4.2051,-4.1283,-4.0845,-4.0659,-3.9936,-3.9349,-3.8854,-3.8347,-3.7561,-3.6564,-3.592,-3.5184,-3.4541,-3.4437,-3.4397,-3.4397,-3.4397,-3.4397,-3.4593,-3.5744,-3.573,-3.5404,-3.5896,-3.6374,-3.628,-3.4204,-3.4395,-3.4869,-3.3462,-3.2896,-3.2636,-3.2431,-3.2169,-3.1862,-3.1285,-3.1229,-3.1038,-3.0454,-3.0261,-3.0261,-3.0487,-3.0578,-3.0938,-3.1925,-3.2253,-3.2745,-3.3601,-3.3679,-3.353,-3.3281,-3.2342,-3.1721,-3.1516,-3.0754,-3.0193,-2.9994,-2.9942,-2.9827,-2.9606,-2.9554,-2.9248,-2.8737,-2.893,-2.8824,-2.8344,-2.8814,-2.9185,-2.9448,-2.9448,-2.9448,-2.9501,-2.9774,-2.9837,-2.9837,-2.9837,-2.9889,-2.9889,-2.9669,-2.9605,-2.9684,-2.989,-3.06,-3.1579,-4.3522,-4.3948,-4.4352,-4.4676,-4.5272,-4.5564,-4.5172,-4.4982,-4.4705,-4.4264,-4.3553,-4.3047,-4.2918,-4.2439,-4.2133,-4.2092,-4.2284,-4.231,-4.2092,-4.2242,-4.2284,-4.2092,-4.2092,-4.2092,-4.2092,-4.1883,-4.1841,-4.2051,-4.2092,-4.2092,-4.2051,-4.2092,-4.2092,-4.2051,-4.1128,-4.0744,-4.0659,-3.9747,-3.9203,-3.8854,-3.8509,-3.7947,-3.7188,-3.6292,-3.5616,-3.5103,-3.458,-3.4397,-3.4397,-3.4397,-3.4397,-3.4593,-3.5744,-3.573,-3.5361,-3.5734,-3.5747,-3.5289,-3.3844,-3.3781,-3.3947,-3.3275,-3.2896,-3.2636,-3.2431,-3.2169,-3.1994,-3.1906,-3.1419,-3.1017,-3.0927,-3.0499,-3.0216,-3.0261,-3.0442,-3.0892,-3.1711,-3.2028,-3.2542,-3.3552,-3.3481,-3.3231,-3.2992,-3.1732,-3.1054,-3.123,-3.0287,-2.9764,-2.9994,-2.9774,-2.9659,-2.9606,-2.9343,-2.9036,-2.8684,-2.8727,-2.8727,-2.8631,-2.8727,-2.8791,-2.8834,-2.8834,-2.893,-2.9185,-2.9185,-2.9237,-2.9237,-2.9237,-2.9396,-2.9659,-2.9606,-2.9693,-2.987,-3.0372,-3.0807,-3.1297,-4.3688,-4.429,-4.4836,-4.4879,-4.5445,-4.5838,-4.5622,-4.5214,-4.4705,-4.4181,-4.3484,-4.2861,-4.2528,-4.2252,-4.2092,-4.2092,-4.2175,-4.2201,-4.2092,-4.2175,-4.2216,-4.2092,-4.2092,-4.2092,-4.2092,-4.1841,-4.1744,-4.1897,-4.1773,-4.1704,-4.1704,-4.1704,-4.1704,-4.1662,-4.0859,-4.0502,-4.0402,-3.9645,-3.9247,-3.9104,-3.861,-3.8061,-3.7444,-3.6404,-3.5698,-3.5221,-3.462,-3.4397,-3.4397,-3.4397,-3.4397,-3.4541,-3.5391,-3.5704,-3.5796,-3.5913,-3.6048,-3.5852,-3.4433,-3.4101,-3.3947,-3.3262,-3.2822,-3.2519,-3.2431,-3.2125,-3.1805,-3.1629,-3.1285,-3.1066,-3.1178,-3.0905,-3.0663,-3.0663,-3.0755,-3.1055,-3.171,-3.1897,-3.2326,-3.3353,-3.3242,-3.3031,-3.2891,-3.1742,-3.1064,-3.1178,-3.0349,-2.9879,-2.9994,-2.9889,-2.9774,-2.9606,-2.929,-2.8983,-2.8684,-2.8684,-2.8684,-2.8684,-2.8684,-2.8684,-2.8737,-2.8887,-2.893,-2.8877,-2.9026,-2.9079,-2.9079,-2.9079,-2.929,-2.9574,-2.953,-2.9719,-3.0079,-3.0295,-3.0876,-3.1516]},{"header":{"parameterUnit":"m.s-1","parameterCategory":1,"la1":30.6,"la2":28.766,"lo1":-90.7593,"lo2":-88.6598,"dy":0.0162,"dx":0.0183,"nx":116,"ny":114,"refTime":"2023-05-05T18:00:00:Z","depth":0,"parameterNumber":3,"parameterNumberName":"V-component_of_WINDS"},"data":[0.0,0.0,0.0,0.0,0.0,0.0,0.0,0.0,0.0,0.0,0.0,0.0,0.0,0.0,0.0,0.0,0.0,0.0,0.0,0.0,0.0,0.0,0.0,0.0,0.0,0.0,0.0,0.0,0.0,0.0,0.0,0.0,0.0,0.0,0.0,0.0,0.0,0.0,0.0,0.0,0.0,0.0,0.0,0.0,0.0,0.0,0.0,0.0,0.0,0.0,0.0,0.0,0.0,0.0,0.0,0.0,0.0,0.0,0.0,0.0,0.0,0.0,0.0,0.0,0.0,0.0,0.0,0.0,0.0,0.0,0.0,0.0,0.0,0.0,0.0,0.0,0.0,0.0,0.0,0.0,0.0,0.0,0.0,0.0,0.0,0.0,0.0,0.0,0.0,0.0,0.0,0.0,0.0,0.0,0.0,0.0,0.0,0.0,0.0,0.0,0.0,0.0,0.0,0.0,0.0,0.0,0.0,0.0,0.0,0.0,0.0,0.0,0.0,0.0,0.0,0.0,0.0,0.0,0.0,0.0,0.0,0.0,0.0,0.0,0.0,0.0,0.0,0.0,0.0,0.0,0.0,0.0,0.0,0.0,0.0,0.0,0.0,0.0,0.0,0.0,0.0,0.0,0.0,0.0,0.0,0.0,0.0,0.0,0.0,0.0,0.0,0.0,0.0,0.0,0.0,0.0,0.0,0.0,0.0,0.0,0.0,0.0,0.0,0.0,0.0,0.0,0.0,0.0,0.0,0.0,0.0,0.0,0.0,0.0,0.0,0.0,0.0,0.0,0.0,0.0,0.0,0.0,0.0,0.0,0.0,0.0,0.0,0.0,0.0,0.0,0.0,0.0,0.0,0.0,0.0,0.0,0.0,0.0,0.0,0.0,0.0,0.0,0.0,0.0,0.0,0.0,0.0,0.0,0.0,0.0,0.0,0.0,0.0,0.0,0.0,0.0,0.0,0.0,0.0,0.0,0.0,0.0,0.0,0.0,0.0,0.0,0.0,0.0,0.0,0.0,0.0,0.0,0.0,0.0,0.0,0.0,0.0,0.0,0.0,0.0,0.0,0.0,0.0,0.0,0.0,0.0,0.0,0.0,0.0,0.0,0.0,0.0,0.0,0.0,0.0,0.0,0.0,0.0,0.0,0.0,0.0,0.0,0.0,0.0,0.0,0.0,0.0,0.0,0.0,0.0,0.0,0.0,0.0,0.0,0.0,0.0,0.0,0.0,0.0,0.0,0.0,0.0,0.0,0.0,0.0,0.0,0.0,0.0,0.0,0.0,0.0,0.0,0.0,0.0,0.0,0.0,0.0,0.0,0.0,0.0,0.0,0.0,0.0,0.0,0.0,0.0,0.0,0.0,0.0,0.0,0.0,0.0,0.0,0.0,0.0,0.0,0.0,0.0,0.0,0.0,0.0,0.0,0.0,0.0,0.0,0.0,0.0,0.0,0.0,0.0,0.0,0.0,0.0,0.0,0.0,0.0,0.0,0.0,0.0,0.0,0.0,0.0,0.0,0.0,0.0,0.0,0.0,0.0,0.0,0.0,0.0,0.0,0.0,0.0,0.0,0.0,0.0,0.0,0.0,0.0,0.0,0.0,0.0,0.0,0.0,0.0,0.0,0.0,0.0,0.0,0.0,0.0,0.0,0.0,0.0,0.0,0.0,0.0,0.0,0.0,0.0,0.0,0.0,0.0,0.0,0.0,0.0,0.0,0.0,0.0,0.0,0.0,0.0,0.0,0.0,0.0,0.0,0.0,0.0,0.0,0.0,0.0,0.0,0.0,0.0,0.0,0.0,0.0,0.0,0.0,0.0,0.0,0.0,0.0,0.0,0.0,0.0,0.0,0.0,0.0,0.0,0.0,0.0,0.0,0.0,0.0,0.0,0.0,0.0,0.0,0.0,0.0,0.0,0.0,0.0,0.0,0.0,0.0,0.0,0.0,0.0,0.0,0.0,0.0,0.0,0.0,0.0,0.0,0.0,0.0,0.0,0.0,0.0,0.0,0.0,0.0,0.0,0.0,0.0,0.0,0.0,0.0,0.0,0.0,0.0,0.0,0.0,0.0,0.0,0.0,0.0,0.0,0.0,0.0,0.0,0.0,0.0,0.0,0.0,0.0,0.0,0.0,0.0,0.0,0.0,0.0,0.0,0.0,0.0,0.0,0.0,0.0,0.0,0.0,0.0,0.0,0.0,0.0,0.0,0.0,0.0,0.0,0.0,0.0,0.0,0.0,0.0,0.0,0.0,0.0,0.0,0.0,0.0,0.0,0.0,0.0,0.0,0.0,0.0,0.0,0.0,0.0,0.0,0.0,0.0,0.0,0.0,0.0,0.0,0.0,0.0,0.0,0.0,0.0,0.0,0.0,0.0,0.0,0.0,0.0,0.0,0.0,0.0,0.0,0.0,0.0,0.0,0.0,0.0,0.0,0.0,0.0,0.0,0.0,0.0,0.0,0.0,0.0,0.0,0.0,0.0,0.0,0.0,0.0,0.0,0.0,0.0,0.0,0.0,0.0,0.0,0.0,0.0,0.0,0.0,0.0,0.0,0.0,0.0,0.0,0.0,0.0,0.0,0.0,0.0,0.0,0.0,0.0,0.0,0.0,0.0,0.0,0.0,0.0,0.0,0.0,0.0,0.0,0.0,0.0,0.0,0.0,0.0,0.0,0.0,0.0,0.0,0.0,0.0,0.0,0.0,0.0,0.0,0.0,0.0,0.0,0.0,0.0,0.0,0.0,0.0,0.0,0.0,0.0,0.0,0.0,0.0,0.0,0.0,0.0,0.0,0.0,0.0,0.0,0.0,0.0,0.0,0.0,0.0,0.0,0.0,0.0,0.0,0.0,0.0,0.0,0.0,0.0,0.0,0.0,0.0,0.0,0.0,0.0,0.0,0.0,0.0,0.0,0.0,0.0,0.0,0.0,0.0,0.0,0.0,0.0,0.0,0.0,0.0,0.0,0.0,0.0,0.0,0.0,0.0,0.0,0.0,0.0,0.0,0.0,0.0,0.0,0.0,0.0,0.0,0.0,0.0,0.0,0.0,0.0,0.0,0.0,0.0,0.0,0.0,0.0,0.0,0.0,0.0,0.0,0.0,0.0,0.0,0.0,0.0,0.0,0.0,0.0,0.0,0.0,0.0,0.0,0.0,0.0,0.0,0.0,0.0,0.0,0.0,0.0,0.0,0.0,0.0,0.0,0.0,0.0,0.0,0.0,0.0,0.0,0.0,0.0,0.0,0.0,0.0,0.0,0.0,0.0,0.0,0.0,0.0,0.0,0.0,0.0,0.0,0.0,0.0,0.0,0.0,0.0,0.0,0.0,0.0,0.0,0.0,0.0,0.0,0.0,0.0,0.0,0.0,0.0,0.0,0.0,0.0,0.0,0.0,0.0,0.0,0.0,0.0,0.0,0.0,0.0,0.0,0.0,0.0,0.0,0.0,0.0,0.0,0.0,0.0,0.0,0.0,0.0,0.0,0.0,0.0,0.0,0.0,0.0,0.0,0.0,0.0,0.0,0.0,0.0,0.0,0.0,0.0,0.0,0.0,0.0,0.0,0.0,0.0,0.0,0.0,0.0,0.0,0.0,0.0,0.0,0.0,0.0,0.0,0.0,0.0,0.0,0.0,0.0,0.0,0.0,0.0,0.0,0.0,0.0,0.0,0.0,0.0,0.0,0.0,0.0,0.0,0.0,0.0,0.0,0.0,0.0,0.0,0.0,0.0,0.0,0.0,0.0,0.0,0.0,0.0,0.0,0.0,0.0,0.0,0.0,0.0,0.0,0.0,0.0,0.0,0.0,0.0,0.0,0.0,0.0,0.0,0.0,0.0,0.0,0.0,0.0,0.0,0.0,0.0,0.0,0.0,0.0,0.0,0.0,0.0,0.0,0.0,0.0,0.0,0.0,0.0,0.0,0.0,0.0,0.0,0.0,0.0,0.0,0.0,0.0,0.0,0.0,0.0,0.0,0.0,0.0,0.0,0.0,0.0,0.0,0.0,0.0,0.0,0.0,0.0,0.0,0.0,0.0,0.0,0.0,0.0,0.0,0.0,0.0,0.0,0.0,0.0,0.0,0.0,0.0,0.0,0.0,0.0,0.0,0.0,0.0,0.0,0.0,0.0,0.0,0.0,0.0,0.0,0.0,0.0,0.0,0.0,0.0,0.0,0.0,0.0,0.0,0.0,0.0,0.0,0.0,0.0,0.0,0.0,0.0,0.0,0.0,0.0,0.0,0.0,0.0,0.0,0.0,0.0,0.0,0.0,0.0,0.0,0.0,0.0,0.0,0.0,0.0,0.0,0.0,0.0,0.0,0.0,0.0,0.0,0.0,0.0,0.0,0.0,0.0,0.0,0.0,0.0,0.0,0.0,0.0,0.0,0.0,0.0,0.0,0.0,0.0,0.0,0.0,0.0,0.0,0.0,0.0,0.0,0.0,0.0,0.0,0.0,0.0,0.0,0.0,0.0,0.0,0.0,0.0,0.0,0.0,0.0,0.0,0.0,0.0,0.0,0.0,0.0,0.0,0.0,0.0,0.0,0.0,0.0,0.0,0.0,0.0,0.0,0.0,0.0,0.0,0.0,0.0,0.0,0.0,0.0,0.0,0.0,0.0,0.0,0.0,0.0,0.0,0.0,0.0,0.0,0.0,0.0,0.0,0.0,0.0,0.0,0.0,0.0,0.0,0.0,0.0,0.0,0.0,0.0,0.0,0.0,0.0,0.0,0.0,0.0,0.0,0.0,0.0,0.0,0.0,0.0,0.0,0.0,0.0,0.0,0.0,0.0,0.0,0.0,0.0,0.0,0.0,0.0,0.0,0.0,0.0,0.0,0.0,0.0,0.0,0.0,0.0,0.0,0.0,0.0,0.0,0.0,0.0,0.0,0.0,0.0,0.0,0.0,0.0,0.0,0.0,0.0,0.0,0.0,0.0,0.0,0.0,0.0,0.0,0.0,0.0,0.0,0.0,0.0,0.0,0.0,0.0,0.0,0.0,0.0,0.0,0.0,0.0,0.0,0.0,0.0,0.0,0.0,0.0,0.0,0.0,0.0,0.0,0.0,0.0,0.0,0.0,0.0,0.0,0.0,0.0,0.0,0.0,0.0,0.0,0.0,0.0,0.0,0.0,0.0,0.0,0.0,0.0,0.0,0.0,0.0,0.0,0.0,0.0,0.0,0.0,0.0,0.0,0.0,0.0,0.0,0.0,0.0,0.0,0.0,0.0,0.0,0.0,0.0,0.0,0.0,0.0,0.0,0.0,0.0,0.0,0.0,0.0,0.0,0.0,0.0,0.0,0.0,0.0,0.0,0.0,0.0,0.0,0.0,0.0,0.0,0.0,0.0,0.0,0.0,0.0,0.0,0.0,0.0,0.0,0.0,0.0,0.0,0.0,0.0,0.0,0.0,0.0,0.0,0.0,0.0,0.0,0.0,0.0,0.0,0.0,0.0,0.0,0.0,0.0,0.0,0.0,0.0,0.0,0.0,0.0,0.0,0.0,0.0,0.0,0.0,0.0,0.0,0.0,0.0,0.0,0.0,0.0,0.0,0.0,0.0,0.0,0.0,0.0,0.0,0.0,0.0,0.0,0.0,0.0,0.0,0.0,0.0,0.0,0.0,0.0,0.0,0.0,0.0,0.0,0.0,0.0,0.0,0.0,0.0,0.0,0.0,0.0,0.0,0.0,0.0,0.0,0.0,0.0,0.0,0.0,0.0,0.0,0.0,0.0,0.0,0.0,0.0,0.0,0.0,0.0,0.0,0.0,0.0,0.0,0.0,0.0,0.0,0.0,0.0,0.0,0.0,0.0,0.0,0.0,0.0,0.0,0.0,0.0,0.0,0.0,0.0,0.0,0.0,0.0,0.0,0.0,0.0,0.0,0.0,0.0,0.0,0.0,0.0,0.0,0.0,0.0,0.0,0.0,0.0,0.0,0.0,0.0,0.0,0.0,0.0,0.0,0.0,0.0,0.0,0.0,0.0,0.0,0.0,0.0,0.0,0.0,0.0,0.0,0.0,0.0,0.0,0.0,0.0,0.0,0.0,0.0,0.0,0.0,0.0,0.0,0.0,0.0,0.0,0.0,0.0,0.0,0.0,0.0,3.6826,3.5927,0.0,0.0,0.0,0.0,0.0,0.0,0.0,0.0,0.0,0.0,0.0,0.0,0.0,0.0,0.0,0.0,0.0,0.0,0.0,0.0,0.0,0.0,0.0,0.0,0.0,0.0,0.0,0.0,0.0,0.0,0.0,0.0,0.0,0.0,0.0,0.0,0.0,0.0,3.1828,3.1775,3.189,3.1458,3.0774,2.9797,0.0,0.0,0.0,0.0,0.0,0.0,0.0,0.0,0.0,0.0,0.0,0.0,0.0,0.0,0.0,0.0,0.0,0.0,0.0,0.0,0.0,0.0,0.0,0.0,0.0,0.0,0.0,0.0,0.0,0.0,0.0,0.0,0.0,0.0,0.0,0.0,0.0,0.0,0.0,0.0,0.0,0.0,0.0,0.0,0.0,0.0,0.0,0.0,0.0,0.0,0.0,0.0,0.0,0.0,0.0,0.0,0.0,0.0,0.0,0.0,0.0,0.0,0.0,0.0,0.0,0.0,0.0,0.0,0.0,0.0,3.9971,3.8542,0.0,0.0,0.0,0.0,0.0,0.0,0.0,0.0,0.0,0.0,0.0,0.0,0.0,0.0,0.0,0.0,0.0,0.0,0.0,0.0,0.0,0.0,0.0,0.0,0.0,0.0,0.0,0.0,0.0,0.0,0.0,0.0,0.0,0.0,0.0,0.0,0.0,3.3361,3.2577,3.2335,3.2627,3.2421,3.1857,3.0897,2.9673,0.0,0.0,0.0,0.0,0.0,0.0,0.0,0.0,0.0,0.0,0.0,0.0,0.0,0.0,0.0,0.0,0.0,0.0,0.0,0.0,0.0,0.0,0.0,0.0,0.0,0.0,0.0,0.0,0.0,0.0,0.0,0.0,0.0,0.0,0.0,0.0,0.0,0.0,0.0,0.0,0.0,0.0,0.0,0.0,0.0,0.0,0.0,0.0,0.0,0.0,0.0,0.0,0.0,0.0,0.0,0.0,0.0,0.0,0.0,0.0,0.0,0.0,0.0,4.5344,4.5978,4.7056,4.6376,4.6165,4.6163,4.3558,4.1821,4.0771,3.961,0.0,0.0,0.0,0.0,0.0,0.0,0.0,0.0,0.0,0.0,0.0,0.0,0.0,0.0,0.0,0.0,0.0,0.0,0.0,0.0,0.0,2.8596,2.9476,2.9524,3.0254,3.0683,0.0,0.0,0.0,0.0,0.0,0.0,0.0,3.3075,3.3366,3.357,3.3591,3.3831,3.4282,3.4094,3.3751,3.3183,3.0945,3.0468,3.1316,0.0,0.0,0.0,0.0,0.0,0.0,0.0,0.0,0.0,0.0,0.0,0.0,0.0,0.0,0.0,0.0,0.0,0.0,0.0,0.0,0.0,0.0,0.0,0.0,0.0,0.0,0.0,0.0,0.0,0.0,0.0,0.0,0.0,0.0,0.0,0.0,0.0,0.0,0.0,0.0,0.0,3.9098,3.8661,0.0,0.0,0.0,0.0,0.0,0.0,0.0,0.0,0.0,0.0,0.0,0.0,0.0,4.6692,4.7022,4.7403,4.746,4.7229,4.7765,4.8062,4.8184,4.8304,4.8546,4.88,4.8035,0.0,4.3792,4.2032,0.0,0.0,0.0,0.0,0.0,0.0,0.0,0.0,0.0,0.0,0.0,0.0,0.0,0.0,0.0,0.0,0.0,0.0,0.0,0.0,0.0,2.9801,3.0794,3.1108,3.1509,3.174,3.1644,0.0,0.0,0.0,0.0,3.4052,3.4486,3.4654,3.4813,3.5025,3.4981,3.5032,3.5115,3.5004,3.4817,3.4475,3.3301,3.2611,3.2228,3.0971,0.0,0.0,0.0,0.0,0.0,0.0,0.0,0.0,0.0,0.0,0.0,0.0,0.0,0.0,0.0,0.0,0.0,0.0,0.0,0.0,0.0,0.0,0.0,0.0,0.0,0.0,0.0,0.0,0.0,0.0,0.0,0.0,0.0,0.0,0.0,0.0,0.0,0.0,0.0,3.9773,4.0379,4.0269,4.0781,4.1112,0.0,0.0,0.0,0.0,0.0,0.0,0.0,0.0,0.0,4.8519,4.8009,4.7845,4.8104,4.8561,4.8675,4.85,4.9496,4.9858,4.9657,4.9997,5.0068,4.9898,4.9517,4.8541,4.7034,4.5132,4.4571,4.4732,0.0,0.0,0.0,0.0,4.336,4.4421,0.0,0.0,0.0,0.0,0.0,0.0,0.0,0.0,0.0,0.0,0.0,0.0,2.944,3.0881,3.1978,3.2441,3.2653,3.2829,3.2902,3.3446,0.0,0.0,0.0,3.5497,3.5961,3.5825,3.6029,3.6555,3.636,3.6251,3.6262,3.621,3.6063,3.5877,3.5625,3.4733,3.333,3.2397,3.2149,3.2292,0.0,0.0,0.0,0.0,0.0,0.0,0.0,0.0,0.0,0.0,0.0,0.0,0.0,0.0,0.0,0.0,0.0,0.0,0.0,0.0,0.0,0.0,0.0,0.0,0.0,0.0,0.0,0.0,0.0,0.0,0.0,0.0,0.0,0.0,0.0,0.0,0.0,4.1029,4.1603,4.1893,4.2138,4.2469,0.0,0.0,0.0,0.0,0.0,0.0,4.7738,4.8253,4.8785,4.9319,4.8904,4.8776,4.8968,4.9709,4.9889,4.9483,5.1016,5.1488,5.0965,5.1479,5.1509,5.1195,5.0874,5.0464,4.9836,4.7845,4.6862,4.6619,4.5523,4.5853,4.6914,4.6103,4.6713,4.7951,0.0,0.0,0.0,0.0,0.0,0.0,0.0,0.0,0.0,0.0,0.0,2.8817,2.9181,3.1108,3.2438,3.2684,3.3394,3.3977,3.4269,3.4922,3.5428,3.5756,3.6423,3.6601,3.6193,3.6193,3.6714,3.7788,3.7608,3.7791,3.8339,3.8153,3.7951,3.7762,3.7434,3.6571,3.533,3.4492,3.4383,3.4584,0.0,0.0,0.0,0.0,0.0,0.0,0.0,0.0,0.0,0.0,0.0,0.0,0.0,0.0,0.0,0.0,0.0,0.0,0.0,0.0,0.0,0.0,0.0,0.0,0.0,0.0,0.0,0.0,0.0,0.0,0.0,0.0,0.0,0.0,0.0,0.0,0.0,0.0,0.0,4.3082,4.3076,0.0,0.0,0.0,0.0,4.6991,4.7892,4.8727,4.9603,4.9024,4.9351,5.0751,5.0273,5.0075,5.0229,5.1684,5.17,5.0253,5.2511,5.2989,5.1974,5.275,5.3196,5.3315,5.3112,5.2623,5.1782,4.9521,4.8727,4.892,4.8835,4.9066,4.9415,4.9365,4.9981,5.0646,0.0,0.0,0.0,0.0,0.0,0.0,0.0,0.0,0.0,2.6129,2.8425,3.0025,3.016,3.208,3.3403,3.3471,3.4318,3.4935,3.5024,3.5585,3.6133,3.665,3.6745,3.7162,3.7963,3.8296,3.8586,3.8865,3.8799,3.8794,3.8885,3.8943,3.8929,3.887,3.9052,3.881,3.8131,3.6389,3.5744,3.579,3.4733,3.3813,0.0,0.0,0.0,0.0,0.0,0.0,0.0,0.0,0.0,0.0,0.0,0.0,0.0,0.0,0.0,0.0,0.0,0.0,0.0,0.0,0.0,0.0,0.0,0.0,0.0,0.0,0.0,0.0,0.0,0.0,0.0,0.0,0.0,0.0,0.0,0.0,0.0,4.3772,4.4169,0.0,4.5066,4.6068,4.69,4.7317,4.8698,4.9618,4.9769,5.0128,5.0537,5.107,5.0639,5.0656,5.1127,5.1681,5.1984,5.2052,5.3513,5.4127,5.4042,5.4697,5.4957,5.4905,5.4974,5.4632,5.3928,5.2649,5.1239,4.9931,4.9826,5.0157,5.0692,5.0692,5.1487,5.2498,0.0,0.0,0.0,0.0,0.0,0.0,0.0,0.0,0.0,2.6379,2.8951,3.0759,3.0928,3.299,3.437,3.4488,3.514,3.5633,3.599,3.6281,3.6802,3.7595,3.7635,3.8211,3.9371,3.9614,3.9753,3.9768,4.0,4.007,3.9941,4.0311,4.0438,4.0411,4.1093,4.1189,4.0677,3.9265,3.8266,3.7617,3.6606,3.5765,3.4982,0.0,0.0,0.0,0.0,0.0,0.0,0.0,0.0,0.0,0.0,0.0,0.0,0.0,0.0,0.0,0.0,0.0,0.0,0.0,0.0,0.0,0.0,0.0,0.0,0.0,0.0,0.0,0.0,0.0,0.0,0.0,0.0,0.0,0.0,4.406,4.46,4.4882,4.5531,4.6101,4.6468,4.753,4.8352,4.8682,4.9715,5.0359,5.0268,5.0736,5.1167,5.1523,5.1157,5.1277,5.1941,5.2403,5.2787,5.3028,5.4496,5.5165,5.5132,5.5701,5.5926,5.5822,5.5857,5.5683,5.5259,5.4703,5.3489,5.191,5.108,5.109,5.1539,5.1432,5.199,5.2887,0.0,0.0,0.0,0.0,0.0,0.0,0.0,2.5237,2.6127,2.7604,2.949,3.0894,3.1443,3.3654,3.5253,3.5648,3.5727,3.6178,3.7129,3.702,3.7491,3.8672,3.9234,3.9745,4.02,3.9964,4.0065,4.0489,4.1236,4.1595,4.1641,4.2289,4.2519,4.2408,4.3549,4.3561,4.2801,4.3041,4.2065,4.0197,3.8409,3.7801,3.7783,0.0,0.0,0.0,0.0,0.0,0.0,0.0,0.0,0.0,0.0,0.0,0.0,0.0,0.0,0.0,0.0,0.0,0.0,0.0,0.0,0.0,0.0,0.0,0.0,0.0,0.0,0.0,0.0,0.0,0.0,0.0,0.0,0.0,4.5503,4.5337,4.5487,4.641,4.7061,4.7766,4.8707,4.942,5.0204,5.1102,5.0994,5.101,5.1183,5.0874,5.1141,5.2171,5.1825,5.2013,5.2773,5.4033,5.4152,5.3132,5.5368,5.6032,5.5199,5.5751,5.6047,5.6064,5.5837,5.5784,5.5749,5.5522,5.531,5.4924,5.2752,5.2006,5.2132,5.1749,5.1696,5.1982,0.0,0.0,0.0,0.0,0.0,0.0,0.0,2.5169,2.6141,2.7211,2.9432,3.1062,3.1476,3.3654,3.5253,3.5648,3.6687,3.7219,3.6995,3.7744,3.8471,3.9116,3.983,4.0358,4.0646,4.0696,4.073,4.073,4.1084,4.1426,4.1751,4.2217,4.2911,4.3728,4.4524,4.4931,4.501,4.4634,4.4261,4.3615,4.0442,3.9224,3.9079,0.0,0.0,0.0,0.0,0.0,0.0,0.0,0.0,0.0,0.0,0.0,0.0,0.0,0.0,0.0,0.0,0.0,0.0,0.0,0.0,0.0,0.0,0.0,0.0,0.0,0.0,0.0,0.0,0.0,0.0,0.0,4.3975,4.5086,4.5273,4.5594,4.6226,4.7253,4.7513,4.7983,4.8857,4.9604,5.0105,5.039,5.0854,5.1146,5.1183,5.1577,5.1894,5.2187,5.2448,5.3053,5.3938,5.4419,5.4956,5.5464,5.5698,5.6278,5.7111,5.6607,5.6801,5.7576,5.7557,5.7433,5.7256,5.6499,5.6155,5.5998,5.4681,5.404,5.3857,5.3894,5.4245,5.4883,0.0,0.0,0.0,0.0,0.0,0.0,0.0,2.5139,2.6275,2.7509,2.9652,3.1296,3.1856,3.4122,3.5648,3.5766,3.7081,3.7674,3.7044,3.8167,3.9066,3.9577,4.0255,4.0696,4.0799,4.1037,4.112,4.0987,4.1518,4.1912,4.2185,4.2991,4.3698,4.4335,4.5305,4.5709,4.557,4.5333,4.5224,4.4887,4.2205,4.1055,4.0797,3.9182,3.8516,3.8262,3.6941,3.6477,3.6359,3.5555,0.0,0.0,0.0,0.0,0.0,0.0,0.0,0.0,0.0,0.0,0.0,0.0,0.0,0.0,0.0,0.0,0.0,0.0,0.0,0.0,0.0,0.0,0.0,0.0,4.4386,4.5247,4.5321,4.6029,4.6889,4.7919,4.8365,4.8812,4.9398,5.0131,5.0552,5.0552,5.0957,5.1313,5.1588,5.1916,5.2417,5.3094,5.3396,5.4002,5.4931,5.5352,5.5879,5.6541,5.6554,5.7019,5.7865,5.7425,5.7584,5.8188,5.8116,5.8007,5.7865,5.7316,5.7038,5.6811,0.0,0.0,0.0,0.0,5.4998,5.5666,0.0,0.0,0.0,0.0,0.0,0.0,0.0,2.5173,2.6443,2.798,2.9929,3.1495,3.2341,3.467,3.6073,3.5918,3.7043,3.765,3.7377,3.8295,3.9191,3.9965,4.0489,4.0765,4.0765,4.1088,4.129,4.129,4.2151,4.2566,4.2676,4.399,4.4615,4.4641,4.5997,4.6169,4.5544,4.5641,4.5464,4.4958,4.373,4.3047,4.2531,4.0359,3.9465,3.9169,3.7508,3.6881,3.6808,3.686,0.0,0.0,0.0,0.0,0.0,0.0,0.0,0.0,0.0,0.0,0.0,0.0,0.0,0.0,0.0,0.0,0.0,0.0,0.0,0.0,0.0,0.0,0.0,0.0,4.4836,4.5321,4.5431,4.6476,4.7537,4.8434,4.9229,4.9812,5.0212,5.0811,5.1221,5.1221,5.1221,5.1513,5.2209,5.213,0.0,0.0,0.0,5.4962,5.5757,5.6486,5.6796,5.6796,5.7429,5.7814,5.7881,5.7942,5.8031,5.8152,5.7971,5.7881,5.7881,5.7881,5.7772,5.7453,5.5558,5.4948,5.5079,5.4692,5.4895,5.5431,0.0,0.0,0.0,0.0,0.0,0.0,0.0,2.4987,2.6191,2.7272,2.9537,3.1296,3.2037,3.4027,3.5488,3.5874,3.663,3.7475,3.8337,3.8041,3.8461,3.995,4.0366,4.0558,4.0558,4.095,4.1135,4.1135,4.1447,4.1875,4.2472,4.3604,4.4706,4.583,4.6623,4.7188,4.7494,4.6677,4.626,4.6125,4.517,4.4154,4.3068,4.1917,4.1124,4.0513,3.9356,3.8549,3.7948,3.7322,3.7099,3.7075,3.7267,0.0,0.0,0.0,0.0,0.0,0.0,0.0,0.0,0.0,0.0,0.0,0.0,0.0,0.0,0.0,0.0,0.0,0.0,0.0,0.0,4.4312,4.5077,4.5573,4.5278,4.6695,4.7998,4.8645,4.89,4.9542,5.0859,5.1102,5.1258,5.1424,5.1296,5.155,5.24,5.2825,5.3459,5.4373,5.5301,5.5939,5.6267,5.7025,5.7439,5.7422,5.6965,0.0,5.7865,5.7002,5.7089,5.7971,5.7918,5.7881,5.7881,5.7881,5.7881,5.7775,5.7046,5.6891,5.704,5.678,5.6891,5.7147,0.0,0.0,0.0,0.0,0.0,0.0,0.0,2.4412,2.5501,2.6516,2.873,3.0488,3.1202,3.3158,3.4389,3.4445,3.4986,3.6197,3.8317,3.7858,3.8187,3.9793,4.0086,4.0296,4.0401,4.0643,4.0848,4.095,4.1205,4.1478,4.1873,4.2886,4.3754,4.4538,4.5237,4.5766,4.612,4.5853,4.5498,4.5074,4.4799,4.4122,4.3127,4.2548,4.1851,4.1107,4.0009,3.9307,3.8856,3.8562,3.8337,3.8239,3.853,3.8144,3.7539,0.0,0.0,0.0,0.0,0.0,0.0,0.0,0.0,0.0,0.0,0.0,0.0,0.0,0.0,4.1832,4.2863,0.0,4.42,4.454,4.5352,4.5807,4.5405,4.6581,4.7781,4.8556,4.9288,5.0107,5.1118,5.1183,5.1258,5.1462,5.1424,5.168,5.2454,5.3093,5.3841,5.4675,5.5811,5.6541,5.6834,5.7439,5.7735,5.7735,5.7473,5.7562,5.7865,5.742,5.7454,5.7881,5.7881,5.7881,5.7881,5.7881,5.7881,5.7881,5.7662,5.7442,5.7229,5.749,5.7442,5.7246,0.0,0.0,0.0,0.0,0.0,0.0,0.0,0.0,2.4695,2.5752,2.7765,2.9395,3.0156,3.207,3.3267,3.321,3.3428,3.4842,3.7818,3.761,3.8068,3.9636,3.9925,4.0137,4.0312,4.0436,4.0558,4.0696,4.1021,4.1189,4.1171,4.2129,4.2697,4.2898,4.3561,4.3981,4.4202,4.4639,4.4386,4.3769,4.4095,4.3733,4.3017,4.2714,4.216,4.1427,4.0416,3.9873,3.9625,3.9788,3.9601,3.9318,3.9708,3.9298,3.862,3.8304,3.8282,0.0,0.0,0.0,0.0,0.0,0.0,0.0,0.0,4.0468,4.0957,4.1831,4.1841,4.211,4.3583,4.3772,4.3925,4.4688,4.5515,4.5968,4.5552,4.6539,4.7601,4.836,4.9597,5.0583,5.1092,5.1183,5.1258,5.1462,5.1499,5.1792,5.2438,5.3079,5.3873,5.4972,5.5842,5.659,5.7273,5.76,5.7782,5.7881,5.8116,5.808,5.7935,5.808,5.8027,5.7881,5.7881,5.7881,5.7881,5.7881,5.7881,5.7881,5.7881,5.7526,5.7087,5.7679,5.7509,5.7103,0.0,0.0,0.0,0.0,0.0,0.0,0.0,0.0,0.0,2.5001,2.6877,2.838,2.8957,3.0701,3.2397,3.377,3.3511,3.4399,3.7144,3.7084,3.7793,3.9636,4.0051,4.0277,4.0312,4.0436,4.0455,4.0381,4.0696,4.0749,4.0608,4.1669,4.2375,4.273,4.322,4.3674,4.4034,4.4077,4.4042,4.3979,4.4147,4.3681,4.2911,4.2674,4.225,4.1736,4.1412,4.0892,4.0385,4.0385,4.0478,4.0622,4.0842,4.0225,3.9421,3.9541,3.9172,3.8738,3.8854,3.9188,3.9645,4.0276,4.0562,4.0865,0.0,4.2281,4.2858,4.2801,4.3278,4.367,4.3731,4.4189,4.4532,4.4474,4.5381,4.5968,4.5552,4.6951,4.8068,4.8222,4.9058,4.9983,5.0848,5.1124,5.1258,5.1462,5.1499,5.1792,5.2438,5.2568,5.3351,5.4956,5.483,5.5576,5.7273,5.722,5.7435,5.7881,5.8116,5.808,5.7881,5.7918,5.7918,5.7881,5.7881,5.7881,5.7881,5.7881,5.7881,5.7881,5.7881,5.7831,5.778,5.7865,5.7831,5.778,0.0,0.0,0.0,0.0,0.0,0.0,0.0,0.0,0.0,0.0,2.5153,2.6458,2.7039,2.8886,3.0625,3.1907,3.2414,3.3684,3.5981,3.6625,3.751,3.8872,3.9214,3.9458,3.965,3.9131,3.8948,3.9149,3.9535,3.9821,3.9924,4.0892,4.1594,4.208,4.2264,4.2558,4.2923,4.3354,4.3239,4.282,4.3253,4.2998,4.2295,4.2097,4.1897,4.168,4.1594,4.1289,0.0,0.0,4.1241,4.1358,4.1239,4.085,4.0404,4.015,4.002,4.0047,4.0394,4.0719,4.1023,4.139,4.1534,4.1678,4.1933,4.2637,4.3293,4.3593,4.3845,4.4135,4.4658,4.4725,4.4752,4.4851,4.5622,4.608,4.5735,4.7178,4.8185,4.8029,4.9267,5.0318,5.0836,5.0826,5.0978,5.1462,5.1499,5.1629,5.1906,5.2501,5.3201,5.4055,5.4592,5.5526,5.6985,5.6951,5.7243,5.7881,5.8116,5.808,5.7881,5.8044,5.8007,5.7881,5.7772,5.7735,5.7698,5.7588,5.7551,5.7551,5.7551,5.7551,5.7588,5.7808,5.7881,5.7881,0.0,0.0,0.0,0.0,0.0,0.0,0.0,0.0,0.0,0.0,0.0,0.0,0.0,2.7484,2.8991,3.0249,3.14,3.2877,3.4842,3.5921,3.695,3.7953,3.8442,3.886,3.9154,3.8376,3.8115,3.8418,3.8755,3.9036,3.9309,4.0235,4.0935,4.139,4.1439,4.1637,4.1915,4.2571,4.2491,4.1946,4.2522,4.2426,4.1963,4.1866,4.1945,4.2072,4.1816,4.1606,0.0,0.0,4.1997,4.2045,4.1588,4.1439,4.1311,4.0628,4.0647,4.1018,4.1538,4.1817,4.198,4.2158,4.2206,4.2238,4.2238,4.2911,4.368,4.4109,4.4245,4.4449,4.507,4.487,4.4712,4.494,4.5613,4.6028,4.5844,4.7215,4.811,4.7763,4.9298,5.0432,5.0521,5.0639,5.0865,5.1291,5.1499,5.1573,5.1499,5.2343,5.3036,5.3476,5.4078,5.5053,5.6406,5.6256,5.6628,5.7431,5.763,5.7768,5.7808,5.8044,5.8044,5.7881,5.7735,5.7662,5.7588,5.7439,5.7364,5.7289,5.7289,5.7289,5.7327,5.7625,5.7808,5.7881,0.0,0.0,0.0,0.0,0.0,0.0,0.0,0.0,0.0,0.0,0.0,0.0,0.0,2.6754,2.7845,2.9594,3.0773,3.2145,3.3831,3.4891,3.5877,3.6901,3.8068,3.881,3.8998,3.878,3.8696,3.8696,3.8711,3.8711,3.8741,3.9836,4.0505,4.0833,4.1034,4.1187,4.1357,4.175,4.193,4.1947,4.2286,4.2302,4.2109,4.2318,4.2832,4.3315,4.2414,0.0,0.0,4.2412,4.2711,4.2744,4.2093,4.2045,4.2061,4.1091,4.0935,4.1218,4.175,4.198,4.2142,4.2349,4.2476,4.2602,4.2602,4.3557,4.4407,4.4255,4.4594,4.4878,4.4483,4.4432,4.4396,4.4412,4.5028,4.5594,4.5771,4.6977,4.7678,4.7255,4.8823,4.9859,4.966,5.058,5.1104,5.0906,5.1462,5.1721,5.1499,5.19,5.2613,5.3673,5.3023,5.3569,5.5435,5.4937,5.522,5.6235,5.6471,5.6915,5.7625,5.7808,5.7935,5.7881,5.7881,5.7772,5.7588,5.7588,5.7476,5.7289,5.7289,5.7289,5.7289,5.7327,5.7551,5.7881,0.0,0.0,0.0,0.0,0.0,0.0,0.0,0.0,0.0,0.0,0.0,0.0,0.0,0.0,0.0,0.0,2.9337,3.096,3.2471,3.3381,3.4376,3.5449,3.6285,3.699,3.7595,3.7045,3.6841,3.6958,3.7022,3.7261,3.7729,3.8477,3.9335,4.0231,4.0405,4.0749,4.1189,4.1406,4.1653,4.1898,4.2028,4.2575,4.3378,4.3535,4.4288,4.5299,0.0,0.0,0.0,4.3939,4.3687,4.3235,4.2476,4.2045,4.1737,4.1153,4.112,4.1339,4.1899,4.2061,4.2174,4.2476,4.2571,4.2602,4.2602,4.3235,4.3813,4.3731,4.4143,4.4402,4.4126,4.4471,4.4752,4.461,4.521,4.5698,4.5625,4.6508,4.7038,4.6774,4.8355,4.9337,4.9143,4.9846,5.0497,5.0884,5.1054,5.1226,5.1499,5.1961,5.2404,5.2743,5.2811,5.3337,5.445,5.4285,5.4636,5.5481,5.604,5.6482,5.6898,5.7442,5.7772,5.7881,5.7625,5.7476,5.7364,5.7101,5.6949,5.6911,5.6911,5.6911,5.6911,5.6911,5.7176,5.7476,0.0,0.0,0.0,0.0,0.0,0.0,0.0,0.0,0.0,0.0,0.0,0.0,0.0,0.0,0.0,0.0,0.0,2.9727,3.0761,3.1725,3.2656,3.3561,3.4416,3.5152,3.5824,3.5418,3.5339,3.5644,3.5672,3.5925,3.6393,3.7168,3.7982,3.8799,3.9234,3.9942,4.0847,4.1079,4.1772,4.2751,4.2942,4.3695,4.4757,4.5033,4.5892,0.0,0.0,0.0,4.5507,4.5477,4.4647,4.3479,4.2941,4.1964,4.1075,4.1325,4.1182,4.1108,4.1835,4.2029,4.2093,4.2445,4.246,4.2445,4.2508,4.2912,4.3312,4.3361,4.414,4.4713,4.4557,4.5092,4.5496,4.5351,4.5468,4.5552,4.5515,4.6118,4.6583,4.653,4.8009,4.8967,4.8961,4.947,5.009,5.083,5.0978,5.1226,5.1684,5.2089,5.2324,5.2307,5.2607,5.2981,5.3396,5.3519,5.3922,5.4603,5.5355,5.5913,5.6292,5.6835,5.7298,5.7662,5.7402,5.7252,5.7176,5.6911,5.6757,5.668,5.668,5.668,5.668,5.668,5.6911,5.7176,0.0,0.0,0.0,0.0,0.0,0.0,0.0,0.0,0.0,0.0,0.0,0.0,0.0,0.0,0.0,0.0,0.0,0.0,2.8837,2.9921,3.0827,3.1415,3.2543,3.3358,3.3796,3.4004,3.4306,3.4668,3.4612,3.4643,3.478,3.5814,3.6457,3.6697,3.7516,3.8739,4.0195,4.0705,4.2149,4.4154,4.4743,4.5373,4.6046,4.6587,0.0,0.0,0.0,0.0,4.6929,4.683,4.5358,4.3578,4.3379,4.1866,4.0377,4.1529,4.1179,4.0589,4.161,4.1898,4.1996,4.2286,4.2238,4.2158,4.243,4.2749,4.3013,4.3259,4.4646,4.5792,4.566,4.615,4.6526,4.6495,4.579,4.5325,4.5478,4.5862,4.6275,4.6583,4.7752,4.8666,4.8934,4.9372,4.9977,5.083,5.1237,5.161,5.203,5.2266,5.2357,5.2288,5.2483,5.2483,5.2272,5.2694,5.315,5.3656,5.4369,5.5085,5.5805,5.6024,5.6553,5.7222,5.7239,5.7143,5.6987,5.6987,5.6872,5.668,5.668,5.668,5.668,5.668,5.6834,5.6987,0.0,0.0,0.0,0.0,0.0,0.0,0.0,0.0,0.0,0.0,0.0,0.0,0.0,0.0,0.0,0.0,0.0,0.0,2.8238,2.8598,2.9268,3.0329,3.1099,3.1783,3.2328,3.2779,3.2983,3.2847,3.2889,3.2832,3.2676,3.3619,3.4382,3.5056,3.5994,3.7258,3.8623,3.918,4.0753,4.2877,0.0,4.4354,4.6051,0.0,0.0,0.0,0.0,4.7496,4.645,4.6428,4.5166,4.3465,4.267,4.219,4.1901,4.1738,4.1592,4.153,4.1834,4.1898,4.1931,4.2125,4.2142,4.2381,4.3487,4.3719,4.387,4.4448,4.5282,4.5782,4.5258,4.6142,4.6771,4.6217,4.6166,4.6006,4.5541,4.5583,4.5906,4.645,4.7255,4.8028,4.863,4.9231,4.9866,5.0557,5.0695,5.0962,5.1408,5.1904,5.2086,5.1944,5.2106,5.2194,5.2158,5.2409,5.2599,5.2727,5.344,5.3927,5.4289,5.4875,5.5636,5.6486,5.63,5.6525,5.6987,5.6834,5.6757,5.668,5.668,5.668,5.668,5.668,5.6834,5.6987,0.0,0.0,0.0,0.0,0.0,0.0,0.0,0.0,0.0,0.0,0.0,0.0,0.0,0.0,0.0,0.0,0.0,0.0,0.0,2.7385,2.7975,2.9149,2.9626,3.0102,3.0585,3.1099,3.1435,3.1613,3.1472,0.0,3.1098,3.1726,3.2209,3.2619,3.3913,3.5459,3.7152,3.8123,0.0,0.0,0.0,0.0,0.0,0.0,0.0,0.0,0.0,4.6986,4.5641,4.5026,4.4393,4.3612,4.2186,4.158,4.1308,4.0928,4.0626,4.0468,4.0689,4.0768,4.0847,4.1229,4.1276,4.1529,4.2673,4.335,4.3886,4.4458,4.577,4.6729,4.6426,4.694,4.7278,4.6724,4.6376,4.6013,4.5562,4.5442,4.5675,4.6568,4.6943,4.7543,4.8651,4.9128,4.9613,5.0175,5.0502,5.0902,5.1445,5.1868,5.1957,5.1684,5.1957,5.2102,5.2102,5.2318,5.2409,5.2409,5.2771,5.3191,5.3562,5.3994,5.4832,5.5921,5.5809,5.6186,5.6872,5.6757,5.668,5.668,5.668,5.6757,5.6834,5.6834,5.6949,5.7139,0.0,0.0,0.0,0.0,0.0,0.0,0.0,0.0,0.0,0.0,0.0,0.0,0.0,0.0,0.0,0.0,0.0,0.0,0.0,0.0,0.0,2.7956,2.8223,2.8538,2.8895,2.925,2.9744,3.0376,3.0046,2.976,0.0,0.0,0.0,0.0,0.0,0.0,0.0,0.0,0.0,0.0,0.0,0.0,0.0,0.0,0.0,0.0,4.6943,4.5909,4.465,4.3383,4.3397,4.3624,4.1845,4.0621,3.983,3.9799,3.9247,3.8745,3.9172,3.9361,3.9549,4.0113,4.0266,4.0448,4.1366,4.2576,4.3639,4.4082,4.6176,4.7966,4.805,4.8095,4.8054,4.7759,4.6865,4.6082,4.5709,4.553,4.5781,4.6742,4.6647,4.7163,4.8732,4.8831,4.9085,4.9694,5.0393,5.1048,5.1647,5.1806,5.172,5.1352,5.1818,5.2066,5.2066,5.2283,5.239,5.2354,5.239,5.2705,5.3248,5.3248,5.408,5.5433,5.5433,5.5847,5.6509,5.6647,5.663,5.6509,5.6647,5.6796,5.6949,5.6949,5.7101,5.7252,0.0,0.0,0.0,0.0,0.0,0.0,0.0,0.0,0.0,0.0,0.0,0.0,0.0,0.0,0.0,0.0,0.0,0.0,0.0,0.0,0.0,0.0,2.7474,2.7725,2.7805,2.8011,2.7951,2.7603,2.7964,2.784,0.0,0.0,0.0,0.0,0.0,0.0,0.0,0.0,0.0,0.0,0.0,0.0,0.0,0.0,0.0,0.0,4.4223,4.4124,4.3946,4.3485,4.2939,4.2329,4.1538,4.0713,4.0031,3.983,3.9627,3.9408,3.933,3.961,3.9997,4.0122,4.0542,4.1273,4.2556,4.3497,4.4231,4.4851,4.6729,4.8169,4.7956,4.8677,4.9221,4.8948,4.8586,4.794,4.675,4.6555,4.6522,4.657,4.6412,4.6765,4.806,4.7966,4.8177,4.8937,4.9662,5.0363,5.101,5.0839,5.068,5.0607,5.143,5.1851,5.1851,5.223,5.2318,5.2139,5.2302,5.2368,5.232,5.25,5.3351,5.4672,5.4672,5.501,5.5589,5.6393,5.6255,5.5606,5.641,5.6719,5.6757,5.6757,5.6872,5.7063,0.0,0.0,0.0,0.0,0.0,0.0,0.0,0.0,0.0,0.0,1.6985,1.8014,0.0,0.0,0.0,0.0,0.0,0.0,0.0,0.0,0.0,0.0,0.0,0.0,2.7208,2.7278,2.7259,2.7155,0.0,2.6846,2.6474,2.7217,2.7485,2.7404,2.9206,3.0481,3.1477,0.0,0.0,3.7785,3.8975,4.0543,0.0,0.0,0.0,0.0,0.0,4.2976,4.3093,4.231,4.1822,4.1484,4.1021,4.086,4.0642,3.9453,3.9203,3.9172,3.8606,3.8402,3.8384,3.8693,3.9249,4.0117,4.1496,4.3226,4.4781,4.5563,4.7169,4.8435,4.8308,4.8497,4.863,4.836,4.8351,4.8004,4.6945,4.6728,4.6705,4.6839,4.6694,4.6865,4.7583,4.7806,4.7955,4.8112,4.8735,4.9515,5.043,5.033,5.014,4.9821,5.0255,5.0667,5.1079,5.1366,5.1707,5.2102,5.2211,5.2247,5.2283,5.2354,5.2953,5.3947,5.3947,5.4287,5.4906,5.5383,5.5279,5.4956,5.5814,5.5978,5.5754,5.6136,5.6475,5.6757,0.0,0.0,0.0,0.0,0.0,0.0,0.0,1.5213,1.5363,1.5319,1.6173,1.7072,1.7898,1.9649,0.0,0.0,0.0,0.0,0.0,0.0,0.0,0.0,0.0,0.0,0.0,0.0,0.0,2.6909,2.6394,0.0,0.0,0.0,0.0,0.0,2.8008,2.9141,2.9871,3.185,3.3833,0.0,0.0,3.8655,0.0,0.0,0.0,0.0,0.0,4.1955,4.229,4.1272,4.1118,4.1228,4.063,4.0737,4.0732,3.9094,3.8654,3.8573,3.7886,3.7312,3.7002,3.7385,3.8048,3.8895,4.0148,4.2489,4.4642,4.5437,4.7107,4.8443,4.8388,4.8324,4.8243,4.8135,4.8189,4.7943,4.7038,4.6887,4.6839,4.6648,4.6772,4.6963,4.7277,4.763,4.7801,4.7767,4.8136,4.8732,4.9592,4.9791,4.9604,4.9017,4.9254,4.9632,5.0203,5.0563,5.1136,5.1872,5.202,5.2175,5.2266,5.2302,5.2699,5.3361,5.3361,5.3675,5.4221,5.4423,5.439,5.4287,5.509,5.5235,5.5015,5.5521,5.601,5.6368,0.0,0.0,0.0,0.0,0.0,0.0,0.0,1.4756,1.49,1.4713,1.5675,1.6534,1.6973,1.8638,0.0,0.0,0.0,0.0,0.0,0.0,0.0,0.0,0.0,0.0,0.0,0.0,0.0,2.5222,2.5189,0.0,0.0,0.0,0.0,0.0,0.0,2.7677,2.8761,3.0284,0.0,0.0,0.0,0.0,0.0,0.0,0.0,0.0,0.0,4.0906,4.1505,4.1466,4.1688,4.1821,4.0672,3.9815,3.9184,3.8997,3.8433,3.7808,3.7715,3.7653,3.759,3.7509,3.8128,3.9025,3.999,4.1566,4.2971,4.3468,4.5951,4.7986,4.7722,4.8647,4.9584,4.9993,4.9702,4.8914,4.7473,4.7754,4.7302,4.5087,4.5888,4.6793,4.7239,4.6894,4.7214,4.8567,4.833,4.8168,4.8201,4.8787,4.8803,4.8158,4.9045,4.9581,4.9662,5.0547,5.1013,5.1114,5.1789,5.2013,5.1851,5.205,5.2534,5.323,5.323,5.321,5.3276,5.4155,5.4018,5.3432,5.4492,5.514,5.5492,5.5265,5.5519,5.5896,0.0,0.0,0.0,0.0,0.0,0.0,0.0,1.4497,1.472,1.4788,1.5576,1.6329,1.6845,1.8195,0.0,0.0,0.0,0.0,0.0,0.0,0.0,0.0,0.0,0.0,0.0,0.0,2.5568,2.488,2.515,0.0,0.0,0.0,0.0,0.0,0.0,2.7184,2.7736,2.916,0.0,0.0,0.0,0.0,0.0,0.0,0.0,0.0,0.0,0.0,4.0312,3.9897,4.0372,4.1044,4.0525,4.0007,3.9545,3.9231,3.9115,3.8919,3.8109,3.7638,3.7381,3.7348,3.821,3.9395,4.0832,4.213,4.342,4.4746,4.6035,4.6912,4.6922,4.7596,4.8089,4.8013,4.8322,4.8089,4.6841,4.6857,4.6601,4.551,4.6214,4.6865,4.706,4.7216,4.7577,4.8274,4.8423,4.8324,4.8007,4.8146,4.7932,4.7362,4.7728,4.819,4.8627,4.9026,4.9526,5.0148,5.0443,5.0697,5.0836,5.1388,5.177,5.2087,5.255,5.2571,5.2351,5.2993,5.2871,5.247,5.3529,5.3855,5.3719,5.4106,5.4484,5.4756,0.0,0.0,0.0,0.0,0.0,0.0,1.4129,1.431,1.4511,1.4725,1.5374,1.6119,1.6834,1.7931,1.8976,1.9936,0.0,0.0,0.0,0.0,0.0,0.0,0.0,0.0,0.0,0.0,2.5333,2.4695,2.4971,2.4843,0.0,0.0,2.4855,2.485,0.0,0.0,0.0,0.0,0.0,0.0,0.0,0.0,0.0,0.0,0.0,0.0,0.0,0.0,0.0,0.0,0.0,4.0389,4.0161,4.0254,4.0308,3.9888,3.9853,3.9748,3.8808,3.8421,3.8238,3.8106,3.8925,4.0155,4.1595,4.2704,4.382,4.5316,4.6065,4.6398,4.6423,4.7022,4.7393,4.6887,4.7476,4.7502,4.6197,4.6167,4.609,4.5495,4.6284,4.6943,4.7006,4.7659,4.811,4.8115,4.8377,4.8537,4.8533,4.8042,4.7626,4.7232,4.7109,4.7422,4.8118,4.8204,4.8658,4.9462,4.9606,4.9826,5.0134,5.0932,5.1194,5.1102,5.1971,5.1938,5.1267,5.2059,5.199,5.1499,5.2768,5.3028,5.2757,5.3396,5.3807,5.401,0.0,0.0,0.0,0.0,0.0,0.0,0.0,1.4093,1.4173,1.4397,1.4998,1.5805,1.6863,1.7765,1.8665,1.9518,0.0,0.0,0.0,0.0,0.0,0.0,0.0,0.0,0.0,0.0,2.4777,2.4489,2.4334,2.4041,2.3733,2.3924,2.4164,2.4421,0.0,0.0,0.0,0.0,0.0,0.0,0.0,0.0,0.0,0.0,0.0,0.0,0.0,0.0,0.0,0.0,0.0,0.0,0.0,4.0307,4.1348,4.1055,4.0446,3.9915,3.9884,4.0305,4.0665,4.0266,4.0627,4.1289,4.2103,4.2968,4.3719,4.422,4.5688,4.6765,4.6273,4.7503,4.838,4.7682,4.7997,4.7691,4.5866,4.6172,4.6017,4.4488,4.585,4.6998,4.7278,4.8215,4.8694,4.8419,4.8222,4.86,4.9721,4.8647,4.801,4.7993,4.7677,4.7814,4.8502,4.8689,4.8892,4.9127,4.9634,4.9912,4.9928,5.0778,5.0914,5.0493,5.1759,5.1375,4.995,5.1684,5.1625,5.0589,5.2254,5.3092,5.339,5.3481,5.3718,5.396,0.0,0.0,0.0,0.0,0.0,0.0,0.0,1.4153,1.4715,1.4872,1.5606,1.6458,1.7179,1.7774,1.8393,1.9121,0.0,0.0,0.0,0.0,0.0,0.0,0.0,0.0,0.0,0.0,2.4242,2.3815,2.393,2.3666,2.3087,2.3602,2.3853,2.3863,2.4365,2.4991,0.0,0.0,0.0,0.0,0.0,0.0,3.5179,0.0,0.0,0.0,0.0,0.0,0.0,0.0,0.0,0.0,0.0,0.0,0.0,4.0876,4.0995,4.0768,3.9958,4.0228,4.072,4.0735,4.1229,4.1954,4.2805,4.3082,4.3471,4.4509,4.5139,4.5577,4.5712,4.6626,4.7095,4.6322,4.6535,4.6469,4.5285,4.5195,4.5234,4.5187,4.6555,4.754,4.7617,4.8435,4.878,4.8424,4.8482,4.8558,4.8696,4.8188,4.8294,4.908,4.8075,4.7814,4.8502,4.8571,4.8689,4.8892,4.9089,4.9238,4.9357,4.964,5.0004,5.0466,5.1368,5.1147,5.0335,5.1883,5.1608,5.0371,5.2042,5.2774,5.2905,5.3177,5.3381,5.3446,0.0,0.0,0.0,0.0,0.0,0.0,0.0,1.4096,1.4758,1.4973,1.5834,1.666,1.7249,1.7713,1.8282,1.8922,0.0,0.0,0.0,0.0,0.0,0.0,0.0,0.0,0.0,2.396,2.3888,2.3481,2.3763,2.3597,2.3066,2.3809,2.4133,2.4066,2.4558,2.5085,0.0,0.0,0.0,0.0,0.0,0.0,3.4222,0.0,0.0,0.0,0.0,0.0,0.0,0.0,0.0,0.0,0.0,0.0,0.0,0.0,4.1103,4.1541,4.089,4.1187,4.175,4.206,4.2354,4.2792,4.3502,4.3518,4.3564,4.4172,4.4337,4.4502,4.494,4.5709,4.615,4.5578,4.6097,4.6173,4.5051,4.4939,4.5133,4.5608,4.7027,4.7833,4.7489,4.8109,4.848,4.826,4.8393,4.8583,4.8737,4.8407,4.8742,4.9809,4.836,4.7933,4.8691,4.8444,4.838,4.858,4.858,4.8696,4.8878,4.9276,4.9609,4.9942,5.1245,5.11,0.0,5.1874,5.1586,5.0193,5.1997,5.2527,5.238,5.306,5.3264,5.3264,0.0,0.0,0.0,0.0,0.0,0.0,0.0,0.0,0.0,0.0,1.5755,1.658,1.7173,1.7666,0.0,0.0,0.0,0.0,0.0,0.0,0.0,0.0,0.0,0.0,0.0,2.3878,2.3743,2.3555,2.3743,2.37,2.3503,2.4343,2.4737,2.4775,2.4846,2.5319,0.0,0.0,0.0,0.0,0.0,0.0,0.0,0.0,0.0,0.0,0.0,0.0,0.0,0.0,0.0,0.0,0.0,0.0,0.0,0.0,0.0,0.0,0.0,4.2788,4.335,4.3837,4.3746,4.3703,4.4167,4.4166,0.0,4.3471,4.349,4.3698,4.4216,4.4966,4.5568,4.5578,4.6526,4.671,4.5235,4.5426,4.5764,4.5872,4.7314,4.7968,4.7042,4.7467,4.7835,4.7936,4.8053,4.849,4.9368,4.8985,4.9123,5.0004,4.853,4.815,4.9011,4.8398,4.8132,4.8246,4.8278,4.8358,4.8552,4.9554,4.9651,4.9144,5.1195,5.1026,4.9458,5.156,5.1416,5.0032,5.2078,5.2401,5.195,5.3079,5.3382,5.3264,0.0,0.0,0.0,0.0,0.0,0.0,0.0,0.0,0.0,0.0,0.0,1.6855,1.7493,1.769,0.0,0.0,0.0,0.0,0.0,0.0,0.0,0.0,0.0,0.0,0.0,2.3626,2.3496,2.3945,2.3446,2.3281,2.3438,2.3823,2.4153,2.4364,2.4614,2.5436,0.0,0.0,0.0,0.0,0.0,0.0,0.0,0.0,0.0,0.0,3.3866,3.4131,0.0,0.0,0.0,0.0,0.0,0.0,0.0,0.0,4.0285,4.0943,4.1474,0.0,4.2849,4.3145,4.3282,4.3494,0.0,4.4281,4.4427,4.4334,4.4112,4.419,4.506,4.5556,4.6006,4.645,4.7013,4.7188,4.6453,4.6622,4.6842,4.6863,4.7956,4.8408,4.7659,4.781,4.7834,4.7481,4.7287,4.7373,4.774,4.778,4.8033,4.8514,4.8232,4.8398,4.9077,4.9028,4.8895,4.8645,4.8928,4.8928,4.8729,4.8934,4.9196,4.9475,4.9841,4.9743,4.9393,5.0355,5.0155,4.9409,5.148,5.2186,5.2152,5.3163,5.3467,5.3467,0.0,0.0,0.0,0.0,0.0,0.0,0.0,0.0,0.0,0.0,0.0,0.0,0.0,0.0,0.0,0.0,0.0,0.0,0.0,0.0,0.0,0.0,0.0,0.0,2.4223,2.3701,2.3563,2.3974,2.3513,2.355,2.4039,2.4609,2.5011,2.5301,2.5298,0.0,0.0,0.0,0.0,0.0,3.1679,0.0,0.0,0.0,0.0,0.0,3.3094,3.3289,0.0,3.4237,3.4965,3.5661,0.0,0.0,0.0,0.0,3.995,4.036,4.0831,4.1641,4.2425,4.291,4.3213,4.3569,4.4014,4.4396,4.4533,4.4209,4.4115,4.4289,4.4929,4.523,4.5651,4.638,4.7204,4.7688,4.7421,4.7362,4.7205,4.7054,4.7956,4.8453,4.8104,4.7826,4.7677,4.7625,4.7262,4.7098,4.7183,4.7403,4.7604,4.7853,4.8017,4.8249,4.8597,4.868,4.8597,4.8448,4.863,4.8729,4.8794,4.8826,4.9017,4.9327,4.9389,4.9522,4.9687,5.0059,4.9926,4.9655,5.106,5.1613,5.1796,5.2639,5.3179,5.3534,0.0,0.0,0.0,0.0,0.0,0.0,0.0,0.0,0.0,0.0,0.0,0.0,0.0,0.0,0.0,0.0,0.0,0.0,0.0,0.0,0.0,0.0,0.0,2.3571,2.4136,2.3825,2.3765,2.3946,2.388,2.4205,2.4965,2.5684,2.6179,2.6415,2.6102,2.6285,0.0,0.0,2.9277,3.0582,3.1323,0.0,0.0,0.0,0.0,0.0,0.0,0.0,0.0,3.3462,3.4652,3.5719,3.5942,0.0,0.0,0.0,0.0,0.0,4.0247,4.1172,4.218,4.2598,4.2967,4.3374,4.3899,4.4166,4.4216,4.3775,4.3883,4.4158,4.4641,4.4796,4.5163,4.604,4.7246,4.8057,4.8152,4.7738,4.7324,4.705,4.7845,4.8376,4.8248,4.7709,4.7505,4.7812,4.7403,4.7132,4.7132,4.7369,4.7537,4.7605,4.7886,4.8001,4.7935,4.7968,4.7968,4.7968,4.8001,4.8228,4.8675,4.8877,4.894,4.8942,4.9216,4.9549,4.9919,4.9859,4.9892,4.9968,5.0584,5.0871,5.1036,5.1794,5.2572,5.3331,0.0,0.0,0.0,0.0,0.0,0.0,0.0,0.0,0.0,0.0,0.0,0.0,0.0,0.0,0.0,0.0,0.0,0.0,0.0,0.0,0.0,0.0,2.2579,2.349,2.4319,2.385,2.3914,2.4558,2.4555,2.4895,2.5561,2.5746,2.5795,2.577,2.5694,2.6119,2.6942,2.7801,2.8905,3.019,3.1174,0.0,0.0,0.0,0.0,0.0,0.0,0.0,0.0,3.308,3.3768,3.4423,3.5597,0.0,0.0,0.0,0.0,0.0,3.9703,4.1136,4.2303,4.1495,4.1483,4.1832,4.2469,4.2894,4.3324,4.3987,4.3905,4.4141,4.5356,4.5623,4.5867,4.6586,4.7312,4.7928,4.8371,4.793,4.7695,4.7934,4.8244,4.8168,4.7529,4.7741,4.7664,4.7103,4.6992,4.6961,4.6961,4.7301,4.7436,4.7285,4.7869,4.7984,4.7571,4.7869,4.7919,4.7754,4.7935,4.8033,4.8131,4.8578,4.8688,4.8547,4.8278,4.8474,4.8955,4.8461,4.8559,4.9085,4.9811,4.9984,4.9921,5.0675,5.153,5.2438,0.0,0.0,0.0,0.0,0.0,0.0,0.0,0.0,0.0,0.0,0.0,0.0,0.0,0.0,0.0,0.0,0.0,0.0,0.0,0.0,0.0,2.1769,2.2553,2.3343,2.4017,2.4006,2.4205,2.4713,2.4801,2.5204,2.591,2.6232,2.6349,2.6271,2.5937,2.6146,2.6768,2.7476,2.8466,2.96,0.0,0.0,0.0,0.0,0.0,0.0,0.0,0.0,0.0,0.0,3.3628,3.4419,3.5561,0.0,0.0,0.0,0.0,0.0,3.9732,4.0614,4.1224,4.0741,4.1832,4.2999,4.3091,4.3511,4.4038,4.4611,4.4777,4.5089,4.5937,4.5936,4.6119,4.7141,4.7033,4.7244,4.8345,4.7955,4.7661,4.802,4.7979,4.7987,4.8176,4.8136,4.7956,4.7649,4.7545,4.7313,4.6909,4.708,4.7217,4.7369,4.7554,4.7688,4.777,4.7737,4.7721,4.7704,4.7787,4.7919,4.8115,4.8324,4.8467,4.8483,4.7984,4.8114,4.8595,4.8033,4.813,4.866,4.9013,4.9318,4.9739,5.0994,5.1732,5.2236,0.0,0.0,0.0,0.0,0.0,0.0,0.0,0.0,0.0,0.0,0.0,0.0,0.0,0.0,0.0,0.0,0.0,0.0,0.0,0.0,2.1205,2.1655,2.2327,2.295,2.3433,2.3984,2.4331,2.4492,2.492,2.5475,2.6141,2.6535,2.6644,2.6467,2.6135,2.6177,2.6633,2.7284,2.8159,2.9172,0.0,0.0,0.0,0.0,0.0,0.0,0.0,0.0,0.0,0.0,0.0,0.0,0.0,0.0,0.0,3.8414,3.8943,3.9243,3.9964,4.0365,4.0657,4.0775,4.2262,4.3588,4.3262,4.3748,4.4349,4.4866,4.5227,4.5575,4.592,4.5774,4.6001,4.7257,4.6803,4.6776,4.815,4.806,4.7876,4.8107,4.7901,4.8104,4.9044,4.8562,4.8227,4.8278,4.8083,4.7686,4.6994,4.6961,4.7098,4.7369,4.7319,4.7487,4.7869,4.7704,4.7753,4.8034,4.782,4.8051,4.8694,4.8329,4.836,4.8671,4.8233,4.8199,4.8388,4.8215,4.8247,4.842,4.8483,4.8835,4.9455,5.0959,5.1546,5.173,0.0,0.0,0.0,0.0,0.0,0.0,0.0,0.0,0.0,0.0,0.0,0.0,0.0,0.0,0.0,0.0,0.0,0.0,0.0,0.0,2.0625,2.1205,2.1655,2.2159,2.2757,2.3569,2.3935,2.3777,2.4922,2.5698,2.6185,2.6218,2.5926,2.5369,2.5904,2.6321,2.6569,2.7406,2.8303,2.917,2.9767,0.0,0.0,0.0,0.0,0.0,0.0,0.0,0.0,0.0,0.0,0.0,0.0,0.0,3.6425,3.8267,3.8943,3.9348,4.0362,4.1086,4.1632,4.2212,4.194,4.1531,4.1495,4.215,4.3051,4.4055,4.4382,4.4602,4.5043,4.5078,4.5392,4.652,4.6778,4.7105,4.7831,4.8366,4.8749,4.8887,4.8619,4.8731,4.9482,4.8737,4.8278,4.8468,4.8188,4.7756,4.7215,4.7183,4.7115,4.6961,4.7404,4.7621,4.7554,4.7803,4.8316,4.8994,4.8117,4.8597,5.0209,4.8713,4.8447,4.921,4.9078,4.868,4.8277,4.914,4.8974,4.8227,4.842,4.8421,4.8426,4.9389,4.9903,5.0198,0.0,0.0,0.0,0.0,0.0,0.0,0.0,0.0,0.0,0.0,0.0,0.0,0.0,0.0,0.0,0.0,0.0,0.0,0.0,0.0,2.0654,2.0984,2.1397,2.1769,2.2138,2.3274,2.3906,2.3946,2.5153,2.5845,2.6032,2.6135,2.6166,2.6093,2.6052,2.6302,2.6757,2.7115,2.7655,2.8391,2.8882,2.9236,0.0,0.0,0.0,0.0,0.0,0.0,0.0,0.0,3.2704,3.3438,0.0,3.5826,3.6273,3.8231,3.887,3.9201,4.0547,4.1055,4.1438,4.2345,4.2314,4.2237,4.2746,4.3314,4.392,4.4689,4.5071,4.5254,4.5148,4.5636,4.5928,4.5473,4.6241,4.7127,4.7748,4.8679,4.9277,4.9255,4.9142,4.8944,4.8628,4.8591,4.8372,4.7896,4.8016,4.7812,4.7062,4.6996,4.703,4.7098,4.7268,4.7454,4.7621,4.8082,4.8562,4.911,4.8746,4.9176,5.0256,4.9177,4.8862,4.9161,4.8647,4.8299,4.8099,4.8446,4.8413,4.8082,4.8147,4.8179,4.8311,4.9256,4.9719,5.003,0.0,0.0,0.0,0.0,0.0,0.0,0.0,0.0,0.0,0.0,0.0,0.0,0.0,0.0,0.0,0.0,0.0,0.0,0.0,1.9971,2.0498,2.0702,2.1051,2.1349,2.1617,2.2866,2.3668,2.3908,2.5044,2.5644,2.5686,2.5957,2.6166,2.626,2.6302,2.6509,2.6891,2.7056,2.7383,2.7921,2.8203,2.859,0.0,0.0,0.0,0.0,0.0,0.0,0.0,0.0,3.2576,3.3403,0.0,0.0,3.6437,3.8179,3.876,3.9158,4.0766,4.1113,4.1283,4.2512,4.2873,4.3069,4.3685,4.4013,4.4346,4.5064,4.5263,4.5269,4.514,4.57,4.5914,4.5066,4.6126,4.7242,4.7688,4.8762,4.9475,4.9327,4.9393,4.926,4.873,4.8778,4.8627,4.8065,4.8121,4.7865,4.7147,4.6961,4.6961,4.7098,4.7183,4.7319,4.7538,4.803,4.8459,4.8909,4.8842,4.9271,5.0068,4.9176,4.8862,4.8977,4.8779,4.8431,4.8034,4.8564,4.8464,4.8049,4.8001,4.8082,4.8294,4.8988,4.9399,4.9643,0.0,0.0,0.0,0.0,0.0,0.0,0.0,0.0,0.0,0.0,0.0,0.0,0.0,0.0,0.0,0.0,0.0,0.0,1.9262,1.9666,2.002,2.0264,2.0489,2.0809,2.1177,2.233,2.3113,2.3517,2.4462,2.4988,2.52,2.5675,2.5759,2.558,2.6693,2.7074,2.6944,2.733,2.7667,2.7893,2.7893,2.8271,2.8843,0.0,0.0,0.0,0.0,0.0,0.0,0.0,3.2401,3.3606,0.0,0.0,0.0,3.814,3.8649,3.9225,4.1167,4.1351,4.1368,4.2914,4.346,4.3646,4.3876,4.375,4.392,4.5005,4.467,4.4372,4.4886,4.5,4.5098,4.5434,4.6553,4.7471,4.7671,4.8614,4.9244,4.911,4.9393,4.9758,5.0155,4.9458,4.9011,4.9094,4.8536,4.8003,4.7503,4.7115,4.6876,4.6876,4.7098,4.7217,4.7217,4.7538,4.7966,4.8486,4.8313,4.8809,4.9862,4.858,4.8299,4.8841,4.977,4.9359,4.8117,4.9726,4.9543,4.8195,4.8066,4.8082,4.8227,4.842,4.8627,4.8801,0.0,0.0,0.0,0.0,0.0,0.0,0.0,0.0,0.0,0.0,0.0,0.0,0.0,0.0,0.0,0.0,0.0,0.0,1.9091,1.9587,1.9942,2.002,2.0411,2.0869,2.1451,2.3284,2.4332,2.4462,2.5062,2.5454,2.5675,2.5999,2.6249,2.652,2.7023,2.7432,2.7676,2.7967,2.8091,2.8151,2.7993,2.807,2.8407,0.0,0.0,0.0,0.0,0.0,0.0,0.0,0.0,0.0,3.4843,0.0,0.0,3.7786,3.8538,3.9121,4.0589,4.1431,4.2187,4.3245,4.3571,4.3806,4.4614,4.467,4.4716,4.5468,4.5172,4.4813,4.4967,4.5098,4.5111,4.484,4.6167,4.7404,4.7852,4.8811,4.9475,4.9327,4.9393,4.9243,4.873,4.8448,4.8249,4.8134,4.7866,4.7581,4.7301,4.703,4.6876,4.6876,4.6961,4.7064,4.7217,4.7653,4.7923,4.7933,4.8103,4.8809,4.9879,4.8564,4.8372,4.8977,4.8596,4.8266,4.8034,4.853,4.8448,4.8066,4.8001,4.8082,4.8227,4.842,4.8627,4.8801,0.0,0.0,0.0,0.0,0.0,0.0,0.0,0.0,0.0,0.0,0.0,0.0,0.0,0.0,0.0,0.0,0.0,0.0,0.0,0.0,2.0152,2.0152,2.0595,2.131,2.2311,2.3997,2.5022,2.5401,2.5737,2.5915,2.5895,2.6302,2.6693,2.7061,2.7439,2.7858,2.8307,2.8403,2.853,2.8591,2.8204,2.8216,2.8505,0.0,0.0,0.0,0.0,0.0,0.0,0.0,0.0,0.0,3.4098,0.0,3.5733,3.7184,3.8074,3.8855,4.0312,4.1161,4.1925,4.3039,4.3534,4.3979,4.5069,4.5151,4.5188,4.576,4.5163,4.4683,4.5131,4.5094,4.4876,4.4618,4.5978,4.7184,4.7503,4.8427,4.8991,4.8861,4.8959,4.8776,4.8083,4.8066,4.8017,4.782,4.7654,4.7487,4.7335,4.7149,4.6996,4.6876,4.6807,4.6876,4.7064,4.7415,4.7503,4.737,4.7505,4.803,4.8817,4.8134,4.8075,4.853,4.8051,4.8051,4.8415,4.8117,4.8001,4.8001,4.8001,4.8066,4.8147,4.8324,4.8532,4.869,0.0,0.0,0.0,0.0,0.0,0.0,0.0,0.0,0.0,0.0,0.0,0.0,0.0,0.0,0.0,0.0,0.0,0.0,0.0,0.0,2.0479,2.0479,2.1053,2.207,2.3555,2.4582,2.5478,2.6238,2.6445,2.6373,2.6021,2.6689,2.7145,2.7395,2.79,2.8356,2.8769,2.8812,2.8953,2.9157,2.8645,2.8715,2.9058,2.8481,0.0,0.0,0.0,0.0,0.0,0.0,0.0,0.0,3.2866,3.4259,3.5767,3.6438,3.7359,3.8506,4.0113,4.0631,4.1046,4.2412,4.3355,4.4215,4.5274,4.5373,4.5395,4.585,4.4856,4.4241,4.5224,4.4838,4.4471,4.4771,4.5945,4.6841,4.6974,4.7683,4.8147,4.8001,4.8276,4.8324,4.8033,4.8115,4.8147,4.8001,4.7787,4.7621,4.752,4.7319,4.7098,4.6927,4.6738,4.6703,4.6842,4.6842,4.6876,4.6876,4.6703,4.6842,4.7217,4.7335,4.7487,4.7671,4.7886,4.8349,4.8878,4.8249,4.8001,4.7968,4.8001,4.8001,4.8001,4.8147,4.8324,4.8515,0.0,0.0,0.0,0.0,0.0,0.0,0.0,0.0,0.0,0.0,0.0,0.0,0.0,0.0,0.0,0.0,0.0,0.0,0.0,0.0,2.0437,2.0277,2.1864,2.3265,2.4344,2.5741,2.6491,2.6509,2.6715,2.6839,2.6951,2.7663,2.7957,2.7874,2.8772,2.9228,2.9376,2.9727,2.9901,2.9953,2.9796,2.975,2.9774,2.907,2.8961,0.0,0.0,0.0,0.0,0.0,0.0,0.0,3.2603,3.365,3.4602,3.5683,3.6945,3.8142,3.8996,4.0051,4.1064,4.1669,4.306,4.4532,4.5446,4.5765,4.5786,4.5651,4.4831,4.428,4.4774,4.4066,4.3904,4.5474,4.5908,4.6444,4.7603,4.7934,4.8033,4.8001,4.8066,4.8099,4.8001,4.8033,4.8033,4.8001,4.7704,4.7537,4.752,4.7319,4.7098,4.6927,4.6858,4.6687,4.6442,4.6582,4.6652,4.6668,4.6772,4.703,4.7403,4.6807,4.6842,4.7302,4.7638,4.777,4.7868,4.7968,4.7886,4.777,4.7935,4.8001,4.8001,4.8147,4.8324,4.8515,0.0,0.0,0.0,0.0,0.0,0.0,0.0,0.0,0.0,0.0,0.0,0.0,0.0,0.0,0.0,0.0,0.0,0.0,0.0,0.0,0.0,2.1573,2.3008,2.4146,2.4891,2.6127,2.6768,2.6727,2.7044,2.7323,2.7617,2.8173,2.8537,2.8735,2.9263,2.963,2.9837,3.0239,3.0372,3.0381,3.0213,3.0141,3.0081,2.945,2.9178,2.9133,2.9169,0.0,0.0,0.0,0.0,0.0,0.0,0.0,3.3544,3.483,3.6226,3.7535,3.8509,3.9561,4.0608,4.1553,4.3129,4.4649,4.5338,4.5991,4.6354,4.5987,4.5141,4.4593,4.5115,4.4127,4.3649,4.4803,4.5158,4.568,4.687,4.7303,4.7603,4.7968,4.8001,4.8001,4.8001,4.8001,4.7968,4.7853,4.7688,4.7537,4.7369,4.7369,4.738,4.741,4.7427,4.7322,4.713,4.713,4.6988,4.6738,4.6842,4.6996,4.7217,4.7048,4.7048,4.7217,4.7538,4.7621,4.7504,4.7671,4.7737,4.7704,4.782,4.7935,4.8001,4.8147,4.826,4.8388,0.0,0.0,0.0,0.0,0.0,0.0,0.0,0.0,0.0,0.0,0.0,0.0,0.0,0.0,0.0,0.0,0.0,0.0,0.0,0.0,0.0,0.0,2.4069,2.4765,2.5242,2.6207,2.6798,2.6974,2.7371,2.7795,2.8326,2.8596,2.9013,2.9537,2.9584,2.9848,3.0216,3.0487,3.0623,3.0588,3.0414,3.0349,3.0279,2.9695,2.931,2.9089,2.9436,2.9266,2.9016,2.9853,0.0,0.0,0.0,0.0,3.2718,3.3974,3.5414,3.6865,3.8179,3.9145,4.0152,4.167,4.3114,4.4327,4.4982,4.586,4.6493,4.6405,4.5685,4.5212,4.5618,4.4561,4.375,4.411,4.4474,4.4998,4.5882,4.6505,4.7123,4.7736,4.7918,4.8001,4.8001,4.7968,4.7886,4.7704,4.7638,4.7504,4.7217,4.7517,4.7792,4.8048,4.8194,4.8223,4.8152,4.7881,4.751,4.7001,4.6941,4.6876,4.6911,4.7437,4.7487,4.7217,4.7538,4.7588,4.7504,4.7571,4.7637,4.7671,4.7754,4.782,4.7968,4.8115,4.8163,4.826,0.0,0.0,0.0,0.0,0.0,0.0,0.0,0.0,0.0,0.0,0.0,0.0,0.0,0.0,0.0,0.0,0.0,0.0,0.0,0.0,0.0,2.342,2.4274,2.502,2.5559,2.6569,2.7144,2.7144,2.7626,2.8404,2.9473,2.9369,2.946,2.9746,3.0019,3.0158,3.0216,3.0487,3.0623,3.0623,3.08,3.0878,3.0819,3.0047,2.9715,2.9642,2.9487,2.9326,2.9241,2.9967,3.0143,0.0,0.0,0.0,3.2372,3.307,3.4681,3.6382,3.725,3.8788,4.0419,4.1566,4.224,4.2984,4.4186,4.4765,4.5308,4.6209,4.6503,4.6313,4.5437,4.4886,4.466,4.514,4.494,4.4998,4.5882,4.6505,4.6941,4.704,4.7603,4.8001,4.8001,4.7853,4.7737,4.7704,4.7437,4.7251,4.7217,4.7925,4.8317,4.8258,4.9001,4.917,4.8703,4.8194,4.7732,4.7333,4.7044,4.6876,4.6911,4.7335,4.7403,4.7217,4.7436,4.752,4.7504,4.7803,4.777,4.7571,4.7836,4.7853,4.777,4.7968,4.8115,4.8195,0.0,0.0,0.0,0.0,0.0,0.0,0.0,0.0,0.0,0.0,0.0,0.0,0.0,0.0,0.0,0.0,0.0,0.0,0.0,0.0,0.0,2.3614,2.4423,2.5189,2.5915,2.6674,2.7196,2.7528,2.7886,2.8531,2.9487,2.9648,3.0005,3.0454,3.044,3.0442,3.0442,3.0532,3.0532,3.0397,3.0679,3.0691,3.0521,3.0334,3.0066,2.9875,3.026,3.0013,2.9594,3.0202,3.0433,3.0566,3.088,0.0,0.0,0.0,3.4278,3.5489,3.7309,3.885,4.0097,4.0893,4.1647,4.2435,4.323,4.4217,4.5131,4.5522,4.6497,4.6968,4.5838,4.5183,4.4797,4.4778,4.4478,4.4554,4.542,4.5621,4.5814,4.6228,4.6924,4.7356,4.7242,4.7605,4.7754,4.7437,4.7386,4.7447,4.7647,4.8097,4.8635,4.9287,4.9684,4.9774,4.9519,4.9176,4.859,4.7729,4.7179,4.6876,4.6927,4.7064,4.7183,4.7217,4.7487,4.7571,4.7504,4.7637,4.7671,4.7621,4.7787,4.7853,4.7886,4.8049,4.8147,4.8227,0.0,0.0,0.0,0.0,0.0,0.0,0.0,0.0,0.0,0.0,0.0,0.0,0.0,0.0,0.0,0.0,0.0,0.0,0.0,0.0,0.0,2.3927,2.4562,2.5316,2.6185,2.6745,2.736,2.7983,2.8247,2.8763,2.963,2.976,3.0276,3.1083,3.0845,3.0724,3.0724,3.0623,3.0487,3.0318,3.0683,3.0603,3.0318,3.0683,3.0506,3.0197,3.091,3.0788,3.0332,3.056,3.0847,3.1141,3.1115,3.1552,0.0,0.0,0.0,3.5095,3.711,3.8385,3.93,3.9956,4.077,4.1601,4.2196,4.3442,4.4528,4.4659,4.582,4.6642,4.5938,4.5507,4.5033,4.4387,4.4097,4.4169,4.4821,4.483,4.4948,4.5481,4.6162,4.6546,4.6401,4.7143,4.7391,4.6797,4.7043,4.7302,4.7496,4.7995,4.876,4.9848,5.0253,5.0411,5.0374,4.9817,4.9026,4.7993,4.7249,4.6876,4.6876,4.6961,4.7098,4.7285,4.7554,4.7621,4.762,4.762,4.7637,4.7654,4.7737,4.782,4.7902,4.8082,4.8163,4.8227,0.0,0.0,0.0,0.0,0.0,0.0,0.0,0.0,0.0,0.0,0.0,0.0,0.0,2.1696,2.1776,2.2024,0.0,0.0,0.0,0.0,0.0,2.4411,2.4733,0.0,2.6185,2.7021,2.7805,2.8471,2.8685,2.9349,3.0411,2.9683,3.0101,3.1443,3.1148,3.0984,3.0972,3.0724,3.0578,3.0624,3.1135,3.1031,3.0636,3.1147,3.1156,3.0937,3.0982,3.1392,3.1746,3.0964,3.1352,3.1989,3.1162,3.1704,3.2725,0.0,0.0,0.0,3.6101,3.6884,3.7841,3.8823,3.9367,3.9957,4.1113,4.1995,4.2767,4.3589,4.4353,4.4926,4.518,4.5775,4.5785,4.45,4.4184,4.4114,4.4147,4.4573,4.4856,4.4768,4.54,4.5847,4.5847,4.6351,4.637,4.563,4.6126,4.6388,4.6206,4.7663,4.8742,4.9316,5.0717,5.1338,5.1118,4.9575,4.849,4.7993,4.7249,4.6876,4.6927,4.7115,4.7285,4.7486,4.7504,4.7671,4.7968,4.7968,4.7803,4.7537,4.7869,4.7803,4.7587,4.7902,4.8082,4.8195,0.0,0.0,0.0,0.0,0.0,0.0,0.0,0.0,0.0,0.0,0.0,0.0,0.0,2.2309,2.2337,2.2183,2.25,0.0,0.0,0.0,0.0,2.4454,2.4743,2.5454,2.6633,2.7336,2.8075,2.8907,2.9079,2.9401,2.9808,2.997,3.022,3.0474,3.0642,3.1054,3.1658,3.1102,3.1013,3.1294,3.1165,3.12,3.1282,3.1165,3.1212,3.1248,3.1404,3.1407,3.1332,3.126,3.1711,3.2258,3.1876,3.2215,3.2874,3.3499,3.43,3.5073,3.5725,3.6301,3.691,3.7649,3.8595,3.9554,4.0186,4.1468,4.2603,4.2925,4.4158,4.4992,4.4453,4.5059,4.5358,4.4609,4.4355,4.4196,4.4097,4.4186,4.4205,4.4009,4.4638,4.5055,4.49,4.6052,4.6321,4.5147,4.6422,4.706,4.664,4.7791,4.8811,4.9477,4.9749,4.9807,4.9607,4.9127,4.8602,4.7993,4.7249,4.6876,4.6876,4.6961,4.7115,4.7319,4.7436,4.7637,4.782,4.782,4.7704,4.7504,4.7637,4.7671,4.7654,4.7754,4.7968,4.8195,0.0,0.0,0.0,0.0,0.0,0.0,0.0,0.0,0.0,0.0,0.0,0.0,0.0,0.0,2.3169,2.3198,2.3355,2.3523,2.378,2.3803,2.4153,2.4839,2.5041,2.5664,2.685,2.7377,2.7961,2.8626,2.9042,2.9222,2.9273,2.9874,3.0117,3.0087,3.0344,3.0977,3.1779,3.1312,3.1295,3.1545,3.1614,3.172,3.185,3.1874,3.1946,3.2052,3.2096,3.2141,3.2075,3.1794,3.2393,3.3168,3.2154,3.2187,3.2778,3.3421,3.3846,3.4209,3.4792,3.5218,3.5621,3.6329,3.7302,3.8224,3.8791,4.011,4.131,4.1677,4.308,4.416,4.3796,4.434,4.4742,4.4485,4.4153,4.3939,4.4006,4.3956,4.3839,4.3628,4.4042,4.428,4.4158,4.534,4.5659,4.4477,4.6059,4.6881,4.6451,4.7584,4.8635,4.9458,4.9102,4.8849,4.8739,4.8534,4.8268,4.7887,4.7214,4.6876,4.6876,4.6876,4.6996,4.7217,4.7403,4.7537,4.7654,4.7754,4.7654,4.7403,4.7537,4.7588,4.7654,4.7671,4.7902,4.8195,0.0,0.0,0.0,0.0,0.0,0.0,0.0,0.0,0.0,2.3308,0.0,0.0,0.0,0.0,0.0,2.5138,2.4811,2.4859,2.5564,2.4918,2.4839,2.5559,0.0,0.0,0.0,2.717,2.7421,2.7741,2.8522,2.8925,2.9038,2.9286,2.9795,3.0463,3.0425,3.0682,3.1204,3.1301,3.133,3.1437,3.2482,3.2601,3.2279,3.3291,3.3528,3.3262,3.3027,3.3526,3.4118,3.2564,3.3437,3.4698,3.199,3.1721,3.246,3.2883,3.3104,3.327,0.0,0.0,0.0,3.4813,3.5369,3.5938,3.6902,3.7852,3.8764,3.9791,4.1114,4.238,4.324,4.3789,4.408,4.4068,4.3608,4.3362,4.3794,4.3881,4.3839,4.3628,4.3598,4.3598,4.3598,4.4274,4.4406,4.3681,4.5003,4.5752,4.5546,4.6914,4.8178,4.9199,4.8857,4.8691,4.8723,4.785,4.7497,4.7661,4.7128,4.6876,4.6876,4.6876,4.6996,4.7217,4.7403,4.752,4.752,4.7836,4.7688,4.7251,4.7588,4.7621,4.7504,4.7654,4.7902,4.8227,0.0,0.0,0.0,0.0,0.0,0.0,0.0,0.0,0.0,0.0,0.0,0.0,2.4361,2.4947,2.548,2.5986,2.5693,2.5597,2.5815,2.5166,2.5041,2.5559,2.5549,2.5988,2.7115,2.713,2.769,2.8714,0.0,0.0,0.0,0.0,0.0,2.9731,3.0514,3.0827,3.0868,3.1549,3.2252,3.2986,3.3083,3.3378,3.3737,3.3641,3.3621,3.3541,3.3264,3.3263,3.3252,3.303,3.3542,3.4098,3.2934,3.2259,3.2034,3.2606,3.2514,3.2397,3.3162,0.0,0.0,0.0,0.0,0.0,3.5592,3.6922,3.844,3.9712,4.1129,4.238,4.324,4.3431,4.3506,4.3722,4.3814,4.3679,4.316,4.3564,4.3839,4.3628,4.3492,4.3492,4.3598,4.4061,4.4237,4.4039,4.553,4.6353,4.6175,4.7144,4.7718,4.7769,4.8137,4.7977,4.7229,4.7496,4.7293,4.6673,4.6695,4.6687,4.6703,4.6842,4.6927,4.6996,4.7369,4.7403,4.7319,4.7654,4.7654,4.7436,4.7504,4.7588,4.7654,4.7671,4.7853,4.8049,0.0,0.0,0.0,0.0,0.0,0.0,0.0,0.0,0.0,0.0,0.0,0.0,2.4904,2.5882,2.6466,2.6412,2.6271,2.6159,2.6054,2.5509,2.5338,2.5696,2.5884,2.629,2.7074,0.0,0.0,0.0,0.0,0.0,0.0,0.0,0.0,0.0,3.0165,3.0573,3.0606,3.1363,3.2305,3.3266,3.3477,3.3729,3.4058,3.4191,3.4052,3.3827,3.4005,3.3921,3.3731,3.3857,3.3817,3.3588,3.3358,3.2508,3.1739,3.2167,3.1954,3.1802,3.2646,3.2603,3.2359,3.2503,0.0,0.0,3.3974,3.5111,3.6574,3.7907,3.9298,4.0532,4.1395,4.1805,4.1968,4.1873,4.2166,4.2591,4.307,4.3481,4.3734,4.3628,4.3479,4.3432,4.3598,4.369,4.3928,4.4348,4.5546,4.6436,4.6931,4.7358,4.7487,4.7217,4.742,4.7176,4.6458,4.6892,4.6801,4.6223,4.6458,4.6582,4.6582,4.6738,4.6807,4.6927,4.7251,4.7301,4.7217,4.7487,4.7571,4.752,4.7571,4.7621,4.7704,4.7704,4.782,4.8001,0.0,0.0,0.0,0.0,0.0,0.0,0.0,0.0,0.0,0.0,2.4785,2.5124,2.5564,2.6621,2.7083,2.6702,2.6617,2.6492,2.6238,2.5861,2.5728,2.5937,2.6354,2.6727,2.6974,0.0,0.0,0.0,0.0,0.0,0.0,0.0,0.0,0.0,0.0,3.0135,3.0469,3.1041,3.1867,3.2873,3.3731,3.3897,3.3825,3.4834,3.4787,3.4186,3.4908,3.503,3.48,3.4818,3.4029,3.3117,3.3397,3.2602,3.1577,3.158,3.1409,3.1345,3.1843,3.1969,3.195,3.1817,3.2105,0.0,3.2273,3.296,3.3954,3.5194,3.6562,3.7808,3.8681,3.9564,3.9964,3.9439,3.9783,4.0863,4.296,4.3231,4.3294,4.3466,4.3317,4.329,4.3552,4.3235,4.3532,4.4693,4.5412,4.6338,4.7572,4.7521,4.7335,4.7149,4.6772,4.6458,4.6278,4.6278,4.6223,4.6096,4.6404,4.6598,4.6582,4.6617,4.6738,4.6927,4.7098,4.7217,4.7251,4.7436,4.752,4.7504,4.7654,4.7704,4.7704,4.7754,4.7853,4.8001,0.0,0.0,0.0,0.0,0.0,0.0,0.0,0.0,0.0,2.504,2.5409,2.5738,2.5826,2.6567,2.7012,2.6915,2.6725,2.6596,2.6541,2.6084,2.5937,2.6146,2.6437,2.6839,2.736,2.7245,0.0,0.0,0.0,0.0,0.0,0.0,0.0,0.0,0.0,3.0418,3.069,3.1497,3.222,3.2873,3.3913,3.4407,3.463,3.5279,3.5162,3.4691,3.509,3.503,3.4811,3.5053,3.4115,3.2918,3.3187,3.24,3.1351,3.0871,3.086,3.1022,3.1159,3.0837,3.0545,3.1048,3.0947,0.0,3.1185,3.1882,3.28,3.4179,3.5497,3.6727,3.7773,3.868,3.9235,3.9093,3.9819,4.0576,4.0975,4.0975,4.1382,4.258,4.2261,4.2339,4.3353,4.3007,4.3389,4.5076,4.6405,4.7175,4.7302,4.7098,4.6911,4.6738,4.6458,4.6278,4.6132,4.6132,4.6148,4.6112,4.6278,4.6423,4.6617,4.6772,4.6842,4.6927,4.7098,4.7285,4.7436,4.747,4.752,4.7504,4.7654,4.7704,4.7704,4.7886,4.7968,4.8001,0.0,0.0,0.0,0.0,0.0,0.0,0.0,0.0,2.5465,2.5733,2.6034,2.6131,2.5808,2.639,2.6726,2.6476,2.6683,0.0,2.6257,2.6128,2.6093,2.621,2.6437,2.688,2.7482,2.7502,0.0,0.0,0.0,0.0,0.0,0.0,0.0,0.0,0.0,3.0418,3.0846,3.1381,3.2378,3.3628,3.3748,3.3798,3.3851,3.4413,3.4433,3.4268,3.4832,3.51,3.5223,3.5368,3.4518,3.3443,3.3736,3.2736,3.1369,3.1038,3.0739,3.0508,3.0674,3.047,3.033,3.0861,3.0722,0.0,0.0,3.1505,3.2146,3.3093,3.4182,3.519,3.5914,3.6625,3.7155,3.7276,3.7632,3.8053,3.8592,3.9892,4.132,4.2776,4.1771,4.1573,4.3106,4.2387,4.2781,4.5016,4.6175,4.6909,4.7201,4.6996,4.6807,4.6617,4.6388,4.6259,4.6112,4.6112,4.604,4.5952,4.6132,4.6278,4.6458,4.6528,4.6703,4.6927,4.6996,4.7098,4.7217,4.7319,4.7285,4.7217,4.7487,4.7654,4.7704,4.782,4.7919,4.8001,2.4829,0.0,0.0,0.0,0.0,0.0,0.0,0.0,2.6206,2.6357,2.6584,2.6518,2.5915,2.6401,2.6574,2.6138,2.6757,0.0,2.616,2.6228,2.6357,2.6402,2.6579,2.688,2.7441,2.7748,2.7841,0.0,0.0,0.0,0.0,0.0,0.0,0.0,0.0,3.0606,3.124,3.1357,3.2581,3.4335,3.3558,3.3338,3.3448,3.391,3.4046,3.4153,3.4827,3.529,3.5585,3.5635,3.493,3.4049,3.4237,3.31,3.161,3.1381,3.08,3.0214,3.0356,3.0317,3.0419,3.1042,3.085,3.0684,0.0,0.0,0.0,3.2019,3.2783,3.352,3.3942,3.4438,3.4949,3.519,3.5213,3.5558,3.666,3.8855,4.0892,4.2288,4.0892,4.0516,4.2252,4.156,4.1997,4.435,4.5292,4.6007,4.6591,4.6781,4.6738,4.6563,4.6369,4.6223,4.6112,4.6076,4.5988,4.5916,4.6024,4.6168,4.6298,4.6333,4.6528,4.6842,4.6876,4.6911,4.6961,4.7098,4.7098,4.7064,4.7386,4.7588,4.7671,4.7737,4.7886,4.8049,2.5431,2.579,0.0,0.0,0.0,0.0,0.0,0.0,0.0,2.6637,2.6948,2.7103,2.6778,2.7196,2.7293,2.6809,2.7409,2.7501,2.683,2.6819,2.6908,2.7085,2.6937,2.6962,2.7226,2.7667,2.7898,0.0,0.0,0.0,0.0,0.0,0.0,0.0,3.0912,3.1614,3.2494,3.2333,3.3081,3.4372,3.3776,3.4384,3.5661,3.5722,3.5746,3.5758,3.5819,3.577,3.5646,3.5868,3.5087,3.3992,3.4023,3.3176,3.1976,3.1327,3.0863,3.0525,3.0433,3.0114,3.01,3.1447,3.106,3.0534,3.1396,0.0,3.0874,3.1099,0.0,3.2019,3.2525,0.0,0.0,3.3939,3.4632,3.5434,3.633,3.676,3.75,3.8883,3.8481,3.8592,3.9864,4.0404,4.1167,4.243,4.3779,4.4533,4.4613,4.5922,4.6528,4.6333,4.6187,4.6112,4.6112,4.5916,4.5972,4.6227,4.6168,4.6168,4.6298,4.6493,4.6582,4.6652,4.6807,4.6996,4.7132,4.6996,4.7132,4.7436,4.7621,4.7621,4.7571,4.7869,4.8049,4.8163,2.6088,2.6218,0.0,0.0,0.0,0.0,0.0,0.0,0.0,2.7443,2.7574,2.759,2.7338,2.7474,2.7409,2.6926,2.7675,2.7772,2.6969,2.7388,2.7745,2.7847,2.7368,2.7468,2.8236,2.7901,2.8002,0.0,2.8512,0.0,0.0,0.0,0.0,0.0,3.1306,3.2118,3.2975,3.3208,3.4341,3.5966,3.5428,3.5893,3.6765,3.5368,3.5041,3.533,3.5648,3.5817,3.5849,3.5782,3.5193,3.4524,3.4789,3.3916,3.2711,3.2486,3.2244,3.1937,3.1506,3.1763,3.2096,3.1915,3.1422,3.1018,3.1061,3.0599,3.0318,3.0874,0.0,0.0,0.0,0.0,0.0,0.0,3.3612,3.418,3.4507,3.4967,3.6088,3.8403,3.7513,3.7059,3.7992,3.8867,3.978,4.0795,4.1477,4.2546,4.4106,4.4866,4.5658,4.6442,4.6404,4.6349,4.6223,4.6136,4.6171,4.6298,4.6243,4.6314,4.6458,4.6547,4.6668,4.6772,4.6996,4.7098,4.7217,4.7302,4.742,4.7504,4.777,4.7754,4.7621,4.7787,4.7951,4.8082,2.6584,2.6438,2.6382,2.6899,0.0,0.0,0.0,2.7921,2.8057,2.8174,2.8287,2.8298,2.8025,2.8113,2.8006,2.7526,2.8273,2.8414,2.7512,2.8125,2.849,2.8508,2.7964,2.8052,2.8812,2.825,2.8282,0.0,0.0,0.0,0.0,0.0,0.0,0.0,3.1648,3.2519,3.3288,3.3702,3.5185,3.7122,3.6678,3.6799,3.7035,3.5465,3.4857,3.492,3.5804,3.5973,3.5782,3.5888,3.5482,3.5009,3.5369,3.4595,3.3532,3.3624,3.347,3.3208,3.2767,3.3359,3.3877,3.2672,3.2252,3.1897,3.1176,3.0649,3.0457,3.0986,3.1542,0.0,0.0,0.0,3.2884,3.2465,0.0,3.3213,3.3157,3.3772,3.5125,3.7447,3.6537,3.6041,3.6919,3.7401,3.8089,3.9158,3.9441,4.0435,4.2491,4.3604,4.4651,4.5709,4.625,4.6458,4.6298,4.6278,4.6278,4.6404,4.6333,4.6369,4.6528,4.6582,4.6687,4.6842,4.7098,4.7217,4.7217,4.7521,4.7621,4.7571,4.782,4.7853,4.777,4.777,4.7886,4.8049,2.6789,2.6483,2.6319,2.7052,2.7736,2.8409,2.9114,2.8675,2.8376,2.8645,2.9058,2.9261,2.8968,2.9373,2.9457,2.8985,2.9548,2.9642,2.8956,2.8972,2.8988,2.8974,2.8768,2.8551,2.8326,2.8755,2.8846,2.8724,0.0,0.0,0.0,0.0,0.0,0.0,3.2086,3.2927,3.3419,3.3758,3.5144,3.7078,3.6872,3.6505,3.6209,3.6835,3.6125,3.5018,3.6862,3.6526,3.5382,3.6402,3.6042,3.5242,3.5415,3.4924,3.4274,3.4292,3.4028,3.3836,3.3995,3.4397,3.4611,3.4004,3.374,3.3322,3.2133,3.1706,3.1482,3.1347,3.1873,3.2359,3.2241,3.266,3.2868,3.2461,3.2725,0.0,0.0,3.3542,3.4205,3.496,3.5129,3.5681,3.6886,3.6079,3.6069,3.7461,3.796,3.8325,3.8764,4.1972,4.3743,4.3614,4.5368,4.6298,4.6298,4.6168,4.6259,4.6582,4.6388,4.6298,4.6333,4.6528,4.6582,4.6617,4.703,4.7217,4.7217,4.7436,4.7604,4.7704,4.7704,4.782,4.8001,4.8001,4.8082,4.8195,2.7681,2.7013,2.644,2.6912,2.7842,2.8675,2.9019,2.9176,2.9206,2.916,2.9442,2.9673,2.9703,3.003,2.9984,2.9307,2.9937,3.0032,2.9307,2.9743,2.9953,2.9949,2.9628,2.9569,2.9736,2.9022,2.9113,3.0178,2.9421,0.0,0.0,0.0,0.0,0.0,3.2057,3.2948,3.3938,3.4477,3.5839,3.7683,3.8052,3.7568,3.6615,3.6479,3.5752,3.493,3.5722,3.5986,3.6003,3.6212,3.6136,3.6047,3.6209,3.6096,3.5867,3.5859,3.6019,3.6063,3.5141,3.6095,3.686,3.4984,3.5054,3.5244,3.3807,3.3198,3.2854,3.2541,3.3111,3.3472,3.282,3.3121,3.3207,3.2339,3.2547,3.2743,0.0,3.3425,3.3984,3.3786,3.432,3.4723,3.4927,3.4819,3.4942,3.5414,3.5917,3.6743,3.7989,3.9408,4.1195,4.3422,4.4237,4.5196,4.6298,4.6369,4.6493,4.6582,4.6684,4.6719,4.6719,4.6772,4.6807,4.6807,4.7064,4.7217,4.7217,4.7521,4.7654,4.7704,4.7853,4.7935,4.8001,4.8001,4.8033,4.8049,2.8355,2.7563,2.6846,2.6999,2.7793,2.8596,2.9115,2.9428,2.9555,2.9476,2.9792,3.0081,3.0202,3.0461,3.0395,2.9944,3.0341,3.0384,2.9934,3.0275,3.0504,3.0515,3.028,3.0247,3.0603,2.9757,2.9829,3.0903,3.0108,2.9896,0.0,0.0,0.0,0.0,3.2139,3.3047,3.3776,3.4768,3.621,3.7848,3.9004,3.8565,3.7258,3.6762,3.5705,3.4647,3.5556,3.5965,3.6107,3.6118,3.6323,3.6534,3.6675,3.6815,3.6985,3.6948,3.7253,3.741,3.6483,3.7382,3.8091,3.6077,3.6186,3.646,3.5035,3.4366,3.398,3.3761,3.4252,3.4451,3.3723,3.3882,3.3778,3.2827,3.282,3.2876,0.0,3.3474,3.3779,3.3378,3.3897,3.4244,3.4088,3.4157,3.4278,3.438,3.465,3.5355,3.6641,3.7937,3.9825,4.2337,4.3589,4.4868,4.6207,4.6388,4.6528,4.6582,4.6807,4.6876,4.6876,4.6876,4.6876,4.6927,4.7098,4.7217,4.7217,4.7521,4.7621,4.7654,4.782,4.7886,4.7886,4.7968,4.8001,4.8001,2.8698,2.8058,2.7452,2.7295,2.7669,2.834,2.9445,2.9516,2.9519,2.9655,3.0123,3.0485,3.0442,3.0692,3.0806,3.0827,3.0795,3.0826,3.0795,3.064,3.063,3.0805,3.064,3.0635,3.0817,3.0864,3.0876,3.0924,3.0875,3.0468,0.0,0.0,0.0,0.0,3.2319,3.317,3.3034,3.4686,3.6206,3.7699,3.9717,3.949,3.7989,3.7728,3.616,3.4419,3.6416,3.6445,3.5621,3.6229,3.6534,3.6709,3.6722,3.7108,3.7505,3.7551,3.7703,3.79,3.7874,3.8226,3.8367,3.7234,3.7155,3.7072,3.5912,3.5331,3.5017,3.5014,3.5304,3.5333,3.4742,3.4747,3.4604,3.384,3.3469,3.3347,3.3493,3.3591,3.3591,3.3563,3.3854,3.4128,3.4346,3.4088,3.4054,3.4346,3.4196,3.4264,3.4664,3.7432,3.9409,4.0224,4.3141,4.5068,4.5877,4.6108,4.6304,4.6499,4.6756,4.6876,4.6876,4.6876,4.6876,4.6927,4.7098,4.7183,4.7217,4.7403,4.7486,4.7504,4.7654,4.7704,4.7704,4.7935,4.8001,4.8001,2.8881,2.8315,2.7958,2.8375,2.878,2.9169,2.9602,3.0042,3.03,3.0266,3.0442,3.0677,3.0936,3.1121,3.1157,3.1094,3.0935,3.0872,3.0842,3.083,3.0815,3.0882,3.1203,3.1325,3.1105,3.0801,3.094,3.1393,3.0707,3.0264,3.0021,0.0,0.0,0.0,0.0,3.2702,3.3559,3.4603,3.6056,3.7892,3.9706,3.9424,3.8002,3.8109,3.7253,3.6049,3.5956,3.6044,3.6216,3.6543,3.6675,3.6769,3.7168,3.74,3.7551,3.7893,3.7965,3.7854,3.7603,3.8166,3.8613,3.77,3.8418,3.9074,3.8348,3.8186,3.7896,3.6721,3.7017,3.6999,3.5479,3.5503,3.5367,3.406,3.3284,3.2778,3.2521,3.3149,3.3366,3.2762,3.3322,3.3695,3.3591,3.3868,3.404,3.402,3.4074,3.4162,3.423,3.5005,3.633,3.8258,3.9536,4.1112,4.3039,4.4308,4.5057,4.5269,4.6077,4.6615,4.6876,4.6738,4.6772,4.6876,4.6961,4.6996,4.6996,4.7183,4.7285,4.7301,4.747,4.7621,4.7704,4.7935,4.8001,4.8001,2.9135,2.8669,2.8394,2.8652,2.9242,2.9699,2.9826,3.0262,3.0558,3.0632,3.0669,3.0838,3.1173,3.1338,3.1359,3.1273,3.1218,3.1153,3.108,3.1199,3.127,3.1405,3.1803,3.1893,3.1556,3.1443,3.1464,3.1616,3.1191,3.0819,3.0442,0.0,0.0,0.0,0.0,3.3011,3.3972,3.5345,3.6737,3.8142,3.9598,3.9747,0.0,3.8626,3.8139,3.751,3.6667,3.6527,3.6734,3.6828,3.6956,3.7108,3.74,3.7564,3.7736,3.8076,3.8057,3.7926,3.7902,3.8349,3.8707,3.858,3.921,3.9839,3.9797,3.9505,3.8978,3.798,3.7929,3.767,3.6344,3.6325,3.5957,3.443,3.357,3.2961,3.2556,3.3066,3.3304,3.2848,3.3254,3.3536,3.3326,3.3591,3.373,3.364,3.3799,3.3868,3.3868,3.4456,3.5609,3.7364,3.8782,4.0358,4.2083,4.3914,4.4909,4.5015,4.5997,4.6598,4.6892,4.6772,4.6807,4.6892,4.6807,4.6807,4.6876,4.6927,4.6996,4.7098,4.7285,4.747,4.7621,4.782,4.7919,4.8001,2.9306,2.904,2.8794,2.8698,2.9491,3.0165,3.0242,3.0438,3.0615,3.0815,3.0878,3.1,3.1216,3.1421,3.149,3.1351,3.1486,3.1508,3.1351,3.156,3.1777,3.2006,3.2305,3.2305,3.2004,3.2236,3.2134,3.1755,3.1926,3.1623,0.0,0.0,0.0,0.0,0.0,3.3713,3.4435,3.6459,3.768,3.833,3.9361,3.9978,4.0161,3.9143,3.8725,3.8679,3.7931,3.74,3.7108,3.7155,3.7353,3.7551,3.7598,3.7795,3.8024,3.8213,3.8148,3.8083,3.8557,3.8724,3.8904,3.9486,3.9777,4.0023,4.0616,4.0025,3.927,3.8932,3.8397,3.7807,3.7158,3.6945,3.6407,3.4795,3.408,3.3515,3.3037,3.3157,3.329,3.3276,3.3592,0.0,3.329,3.3326,3.3361,3.3396,3.3501,3.357,3.3605,3.475,3.5898,3.7005,3.9165,4.083,4.1925,4.4,4.508,4.5131,4.6108,4.6668,4.6876,4.6876,4.6876,4.6876,4.6703,4.6738,4.6892,4.6703,4.6738,4.6911,4.7098,4.7301,4.747,4.7654,4.782,4.7968,2.9275,2.9056,2.9078,2.9618,3.0312,3.0813,3.0974,3.0909,3.0883,3.1111,3.1025,3.1064,3.148,3.1431,3.1422,3.1527,3.1427,3.1407,3.1616,3.148,3.1555,3.2052,3.2133,3.2137,3.2004,3.2116,3.2108,3.1944,3.1992,3.184,0.0,0.0,0.0,0.0,0.0,3.3853,3.5417,3.685,3.7599,3.79,3.884,3.9382,3.9521,3.9058,3.9047,3.9223,3.862,3.7861,3.7155,3.7618,3.7815,3.7861,3.8031,3.8272,3.8512,3.8742,3.8621,3.8557,3.9038,3.9278,3.953,3.9865,4.0372,4.0788,4.0916,4.0788,4.0351,3.9332,3.8899,3.8436,3.7438,3.6831,3.6141,3.5022,3.4478,3.3852,3.288,3.3086,3.3241,3.3072,3.4247,3.4571,3.3185,3.3333,3.3605,3.3793,3.3536,3.3431,3.3605,3.3669,3.449,3.6164,3.7118,3.8531,4.0523,4.2669,4.3899,4.4225,4.569,4.6545,4.6876,4.6738,4.6738,4.6876,4.6842,4.6876,4.6876,4.6842,4.6876,4.6911,4.7098,4.7217,4.7285,4.7571,4.7704,4.7787,2.9311,2.9796,3.0184,3.0155,3.0866,3.1472,3.1599,3.1681,3.1706,3.1615,3.1457,3.1439,3.1796,3.1715,3.1683,3.1661,3.1834,3.1934,3.1923,3.2033,3.2256,3.2494,3.2771,3.2753,3.2493,3.2639,3.2589,3.2273,3.2506,3.2428,0.0,0.0,0.0,3.2381,3.3454,3.4439,3.5391,3.6798,3.7516,3.779,3.8655,3.9312,3.9742,3.9285,3.9298,3.9545,3.8956,3.8395,3.7907,3.8181,3.8272,3.8272,3.8362,3.8512,3.8692,3.9024,3.8922,3.8823,3.9144,3.9385,3.9667,3.9867,4.004,4.0365,4.1183,4.0844,4.0195,3.9493,3.9106,3.8603,3.7607,3.7035,3.6408,3.5509,3.4923,3.4214,3.317,3.3171,3.3276,3.3157,3.3832,3.4008,3.322,3.3431,3.3605,3.3605,3.3501,3.3466,3.3431,3.3466,3.4,3.5131,3.606,3.7199,3.8522,4.1096,4.269,4.3341,4.5117,4.626,4.6876,4.6807,4.6807,4.6876,4.6772,4.6807,4.6876,4.6876,4.6876,4.6927,4.6996,4.7098,4.7217,4.7487,4.7654,4.7737,2.9839,3.0626,3.1245,3.0779,3.147,3.2078,3.2216,3.2525,3.2594,3.2179,3.1957,3.1906,3.2083,3.2128,3.2023,3.1894,3.228,3.2437,3.229,3.2603,3.288,3.3042,3.3381,3.3381,3.3081,3.3231,3.3086,3.2733,3.3081,3.3078,3.2668,0.0,0.0,3.2997,3.4417,3.5085,3.5353,3.674,3.7527,3.7967,3.86,3.9339,4.0047,3.9481,3.9514,3.973,3.9186,3.8935,3.8827,3.8782,3.8737,3.8737,3.8679,3.8769,3.8948,3.9319,3.9152,3.8935,3.9094,3.9204,3.9298,3.962,3.9606,3.9817,4.1136,4.0729,3.9956,3.9703,3.9159,3.8557,3.7957,3.75,3.6942,3.6127,3.5504,3.4768,3.3769,3.3649,3.3684,3.3754,3.3994,3.4135,3.4079,3.4209,3.4192,3.3859,3.3711,3.3605,3.3417,3.357,3.41,3.5083,3.5859,3.6755,3.781,4.0423,4.2096,4.2817,4.4886,4.6221,4.6876,4.6876,4.6876,4.6876,4.6772,4.6807,4.6945,4.6945,4.6927,4.6911,4.6961,4.703,4.7183,4.7436,4.7588,4.7688,3.138,3.1329,3.1489,3.2022,3.2289,3.2605,3.3001,3.3345,3.3319,3.2544,3.246,3.2448,3.2443,3.2443,3.2432,3.2426,3.2471,3.2583,3.2812,3.2633,3.2857,3.358,3.3181,3.3119,3.3545,3.3369,3.3346,3.3476,3.3548,3.3552,3.3499,3.3498,3.3582,3.3746,3.4901,3.5679,3.614,3.7077,3.7874,3.8522,3.8575,3.9092,3.9724,3.9421,3.9493,3.968,3.9377,3.9407,3.9554,3.9305,3.9216,3.9216,3.8966,3.9322,3.9834,3.9686,3.9246,3.891,3.9282,3.8739,3.8268,3.9056,3.9491,3.9928,4.0483,4.0743,4.0746,4.0151,3.9116,3.836,3.873,3.8237,3.7552,3.6742,3.6367,3.5804,3.4817,3.4837,3.4977,3.5166,3.6291,3.6906,3.6595,3.6638,3.6327,3.5551,3.4473,3.3848,3.375,3.3848,3.4942,3.7327,3.6805,3.7768,4.0515,4.2056,4.2969,4.3182,4.5606,4.6828,4.6876,4.6876,4.6876,4.6927,4.7064,4.7132,4.7183,4.7183,4.7064,4.6927,4.7098,4.7064,4.6996,4.7504,4.7621,4.7571,3.2112,3.2253,3.2397,3.2352,3.2452,3.2604,3.2901,3.3377,3.3514,3.2981,3.2975,3.2919,3.2779,3.2718,3.2705,3.2499,3.2798,3.3082,3.3324,3.3246,3.3519,3.4101,3.3817,3.3717,3.3915,3.3828,3.3828,3.3915,3.4036,3.3995,3.3858,3.3978,3.4099,3.4204,3.511,3.581,3.6405,3.7468,3.8258,3.8787,3.91,3.9469,3.9892,3.9747,3.9791,3.9848,3.9628,3.9672,3.9848,3.9642,3.9554,3.9496,3.9394,3.9237,3.9111,3.9442,3.9262,3.8904,3.8573,3.9047,3.9452,3.8797,3.9222,3.9914,4.0385,4.0473,4.0406,4.0165,3.9495,3.8902,3.8703,3.8664,3.8326,3.7226,3.6983,3.6613,3.5798,3.5817,3.6019,3.6503,3.6342,3.632,3.6561,3.6569,3.6153,3.528,3.4593,3.4088,3.3868,3.4249,3.527,3.6932,3.6953,3.7843,3.9786,4.1418,4.2504,4.3115,4.5217,4.6455,4.6876,4.6876,4.6876,4.6927,4.7098,4.7132,4.703,4.703,4.6961,4.6927,4.6996,4.703,4.7098,4.7454,4.7604,4.7654,3.3134,3.3232,3.3278,3.3003,3.2933,3.2995,3.3183,3.3633,3.3824,3.3595,3.3583,3.3481,3.3042,3.3042,3.2937,3.2704,3.3042,3.3382,3.3588,3.3629,3.3899,3.4372,3.4211,3.4162,3.431,3.4211,3.4211,3.431,3.4543,3.4462,3.4137,3.4326,3.4373,3.4433,3.5204,3.5806,3.6358,3.7651,3.8427,3.8877,3.9486,3.9895,4.0097,4.0053,4.0053,4.0053,3.9818,3.9862,4.0025,3.9568,3.9513,3.9601,3.9557,3.9155,3.8771,3.906,3.9033,3.881,3.8345,3.9115,3.9803,3.8755,3.9125,3.9914,4.0205,4.0347,4.0377,4.0558,4.021,3.9785,3.942,3.932,3.9013,3.8185,3.774,3.7389,3.6971,3.6772,3.6852,3.7363,3.688,3.6823,3.7543,3.7657,3.7394,3.6693,3.6038,3.5232,3.4341,3.5016,3.5968,3.719,3.7611,3.8525,4.0039,4.1451,4.2568,4.3401,4.525,4.639,4.6876,4.6961,4.6996,4.6996,4.7217,4.7167,4.6996,4.6996,4.6961,4.6876,4.6876,4.6996,4.7149,4.7403,4.7571,4.7654,3.4644,3.429,3.3982,3.4218,3.4041,3.3946,3.4242,3.4318,3.4384,3.4372,3.4384,3.4101,3.3381,3.3281,3.3273,3.3215,3.318,3.3324,3.36,3.3612,3.385,3.436,3.4211,3.431,3.4787,3.4531,3.4531,3.4775,3.5078,3.4895,3.4373,3.4373,3.4373,3.4457,3.5219,3.574,3.6108,3.7605,3.8349,3.8692,3.9601,4.0154,4.0356,4.0097,4.0154,4.0356,3.9876,4.0007,4.0215,3.9104,3.9026,3.9367,3.9154,3.924,3.9284,3.8672,3.8518,3.8546,3.8806,3.8752,3.867,3.8861,3.9366,3.9788,3.983,4.0435,4.1113,4.159,4.1184,4.09,4.1288,4.0329,3.9557,3.9732,3.884,3.816,3.8342,3.7823,3.7454,3.7688,3.8572,3.952,4.0447,4.0919,4.1039,4.082,3.9415,3.7569,3.532,3.6127,3.7401,3.8903,3.9188,4.0277,4.2332,4.2928,4.3552,4.4321,4.606,4.6911,4.6927,4.7115,4.7217,4.7217,4.7403,4.7369,4.7217,4.7217,4.7064,4.6876,4.6876,4.6876,4.6961,4.7369,4.752,4.7504,3.5315,3.4325,3.3703,3.4253,3.3588,3.3148,3.3722,3.415,3.4302,3.4138,3.4316,3.4249,3.3878,3.3828,3.3766,3.3587,3.3714,3.3907,3.4113,3.4138,3.4401,3.492,3.4689,3.464,3.4775,3.4884,3.4981,3.5078,3.532,3.5391,3.5219,3.5219,3.5111,3.498,3.5595,3.6003,3.6358,3.7808,3.8535,3.8877,3.9878,4.0298,4.0399,4.0298,4.0414,4.0587,4.0255,4.012,3.9886,3.9338,3.8991,3.8741,3.8391,3.8421,3.8616,3.8876,3.8751,3.8573,3.8984,3.9253,3.9395,3.9137,3.9773,4.0379,4.0305,4.0924,4.1563,4.1868,4.1889,4.1776,4.147,4.0827,4.0277,3.9873,3.9335,3.9023,3.9059,3.8737,3.8905,3.996,3.9169,3.9281,4.1241,4.0899,4.0518,4.0386,3.9982,3.8783,3.6569,3.7163,3.8137,3.9298,4.0337,4.1719,4.3473,4.4252,4.487,4.5349,4.6541,4.703,4.6911,4.7251,4.7251,4.6996,4.7369,4.7301,4.6996,4.6996,4.6961,4.6876,4.6876,4.6876,4.6927,4.7217,4.7369,4.7504,3.5895,3.4942,3.4299,3.4888,3.4222,3.3758,3.4247,3.4509,3.4667,3.4474,3.4522,3.4494,3.4359,3.4359,3.4194,3.3815,3.3969,3.4162,3.441,3.4498,3.4715,3.5163,3.5126,3.5126,3.5126,3.5271,3.5368,3.5368,3.5524,3.5668,3.5764,3.5668,3.5524,3.5368,3.5824,3.6146,3.6499,3.7704,3.8477,3.8997,3.9878,4.0342,4.0515,4.0515,4.0447,4.035,4.0388,4.0012,3.9437,3.9145,3.8768,3.8276,3.7751,3.787,3.821,3.8349,3.8522,3.871,3.9024,3.9645,4.0139,3.9656,4.0081,4.0561,4.0376,4.0723,4.1201,4.1444,4.1741,4.1783,4.1357,4.0947,4.0537,4.0196,3.9734,3.9571,4.0043,3.9481,3.9508,4.0806,3.9982,3.9859,4.1383,4.1619,4.1649,4.1566,4.1462,4.0684,3.9037,3.9078,3.947,4.0148,4.1535,4.2992,4.454,4.5062,4.5685,4.6432,4.6971,4.7098,4.6911,4.7335,4.7335,4.703,4.742,4.7352,4.6996,4.6996,4.6961,4.6876,4.6876,4.6961,4.703,4.7132,4.7352,4.7604,3.637,3.5918,3.5554,3.5848,3.5672,3.5462,3.5499,3.5336,3.5223,3.5223,3.503,3.4823,3.4835,3.4835,3.4631,3.409,3.4054,3.4137,3.4434,3.467,3.495,3.5199,3.5476,3.562,3.562,3.562,3.562,3.5668,3.5668,3.5812,3.6063,3.5764,3.5668,3.5668,3.5908,3.6193,3.6499,3.7453,3.8264,3.8997,3.9719,4.0257,4.0702,4.0702,4.0336,3.9915,4.0305,3.9802,3.8902,3.8656,3.8412,3.8014,3.7292,3.7543,3.8014,3.7282,3.796,3.8916,3.8958,3.9955,4.0802,4.0264,4.0272,4.0359,4.0159,4.0147,4.0265,4.0641,4.0926,4.1133,4.1133,4.0748,4.0471,4.0639,3.9989,3.9836,4.0985,3.9923,3.9429,4.047,4.0873,4.1091,4.1218,4.2839,4.3922,4.4018,4.35,4.2911,4.235,4.1644,4.1288,4.1316,4.2675,4.4064,4.5497,4.5403,4.6061,4.7504,4.7319,4.7098,4.6961,4.7335,4.7403,4.7251,4.7571,4.7504,4.7217,4.7217,4.7098,4.6911,4.6927,4.703,4.7217,4.7217,4.7404,4.7671,3.6405,3.5765,3.5435,3.5884,3.5422,3.5085,3.5505,3.5534,3.5524,3.5524,3.5464,3.532,3.5126,3.5126,3.4981,3.4655,3.4595,3.4643,3.4691,3.4932,3.5137,3.5223,3.5476,3.562,3.562,3.5812,3.6003,3.6228,3.6228,3.631,3.6534,3.631,3.6228,3.6228,3.6452,3.6581,3.6675,3.7697,3.8517,3.9247,3.9777,4.0257,4.0702,4.0702,4.0717,4.0718,4.0831,4.0221,3.9335,3.928,3.8595,3.7695,3.7514,3.7609,3.7794,3.794,3.8432,3.9015,3.9644,4.0066,4.0334,4.0343,4.0377,4.0386,4.0358,4.0617,4.0902,4.0979,4.1156,4.1346,4.1346,4.0808,4.0397,4.0471,4.0148,3.9768,3.956,3.9569,3.9805,4.0325,4.0571,4.1258,4.255,4.2733,4.3168,4.4157,4.3444,4.3086,4.3315,4.3044,4.2498,4.1731,4.2797,4.4064,4.5497,4.5625,4.6335,4.7654,4.7504,4.7403,4.7369,4.7554,4.7554,4.7436,4.7605,4.7588,4.7403,4.7251,4.7183,4.7098,4.6961,4.703,4.7217,4.7217,4.7404,4.7704,3.6405,3.6107,3.5947,3.6131,3.5802,3.5643,3.5941,3.5847,3.5764,3.5764,3.5668,3.5512,3.5416,3.5271,3.5126,3.4981,3.4884,3.4775,3.4775,3.5175,3.5368,3.5368,3.5752,3.5991,3.5991,3.6181,3.6405,3.6534,3.6452,3.6452,3.6534,3.6534,3.6499,3.6405,3.6628,3.6769,3.6909,3.7684,3.8517,3.9349,3.9821,4.0257,4.0702,4.0802,4.0718,4.0632,4.1042,4.047,3.9482,3.9482,3.8918,3.8112,3.771,3.7663,3.783,3.8304,3.8771,3.9258,3.9721,4.0019,4.0173,3.9897,3.9673,3.9592,3.9782,3.9986,4.0226,4.0412,4.0561,4.0656,4.0745,4.0459,4.0239,4.0347,3.991,3.9595,3.9657,3.9742,4.0033,4.0694,4.1003,4.1723,4.3069,4.3025,4.3492,4.4926,4.4253,4.396,4.4398,4.4014,4.3385,4.2539,4.3471,4.4516,4.5639,4.6429,4.7092,4.7704,4.7621,4.7571,4.7504,4.7654,4.7654,4.7588,4.7754,4.7754,4.7604,4.7403,4.7335,4.7335,4.7115,4.7201,4.7404,4.7352,4.7554,4.782,3.6452,3.6534,3.6581,3.6452,3.6405,3.6405,3.6405,3.6181,3.6051,3.6051,3.586,3.5716,3.5668,3.5416,3.5223,3.5223,3.4981,3.4823,3.4775,3.532,3.562,3.562,3.6133,3.6405,3.6405,3.6581,3.6709,3.6709,3.6593,3.6546,3.6546,3.6675,3.6675,3.6499,3.6722,3.6956,3.7235,3.773,3.8517,3.9438,3.9821,4.0244,4.0604,4.0788,4.0561,4.0276,4.1025,4.0578,3.9602,3.9602,3.9247,3.8674,3.7935,3.7815,3.8045,3.8523,3.9043,3.9462,3.9622,3.9979,4.0118,3.9412,3.8871,3.8664,3.9068,3.9177,3.9316,3.9745,3.9792,3.9833,4.0097,4.0071,4.0066,4.0261,3.9573,3.9364,4.0259,4.0081,4.016,4.1103,4.1623,4.2267,4.315,4.3314,4.4025,4.5597,4.4999,4.474,4.5111,4.4502,4.3955,4.3614,4.4296,4.5102,4.5947,4.7322,4.7919,4.7754,4.7754,4.7688,4.7571,4.7688,4.7754,4.7737,4.7935,4.7886,4.7737,4.7604,4.7537,4.7504,4.7319,4.742,4.7671,4.7571,4.7737,4.7968,3.6405,3.6452,3.6452,3.6405,3.6405,3.6405,3.6405,3.6358,3.6323,3.6323,3.631,3.6181,3.5955,3.5716,3.5464,3.5223,3.5175,3.503,3.4823,3.532,3.562,3.562,3.6133,3.6405,3.6405,3.6581,3.6709,3.6709,3.6922,3.7121,3.732,3.7108,3.7015,3.7015,3.7261,3.7479,3.773,3.8258,3.9024,3.9908,3.9952,3.9994,3.9971,4.0166,4.0332,4.0481,4.0787,4.053,4.0025,4.0025,3.9242,3.831,3.8171,3.8127,3.8295,3.8924,3.9185,3.9425,4.0146,4.0103,3.9866,3.9709,3.9209,3.887,3.9265,3.9481,3.9775,4.0405,4.0232,4.0142,4.0739,4.039,4.0066,4.0196,3.9616,3.9336,3.9849,4.0002,4.0202,4.0671,4.1517,4.243,4.3347,4.3025,4.3363,4.4852,4.3958,4.3657,4.4325,4.3932,4.3949,4.4475,4.4622,4.5334,4.6709,4.757,4.7968,4.7968,4.7968,4.7935,4.7935,4.7935,4.7968,4.7968,4.8001,4.7968,4.7935,4.7754,4.7671,4.7638,4.7504,4.7554,4.7704,4.7688,4.782,4.8001,3.6405,3.6499,3.6534,3.6405,3.6405,3.6405,3.6405,3.6405,3.6405,3.6405,3.6405,3.6323,3.6015,3.5764,3.5464,3.5223,3.5078,3.4969,3.503,3.5524,3.5824,3.5824,3.631,3.6687,3.6981,3.6815,3.6862,3.7108,3.7108,3.7155,3.7261,3.7307,3.7155,3.6909,3.7492,3.7756,3.7854,3.8666,3.9394,3.9996,4.0257,4.0209,3.9997,4.0191,4.0453,4.0672,4.0876,4.0821,4.0583,4.022,3.9494,3.8681,3.8318,3.8202,3.8333,3.9,3.9683,4.0238,4.0256,4.0191,4.0091,3.9847,3.9372,3.9053,3.9466,3.9625,3.9843,4.0375,4.0314,4.0263,4.0674,4.0475,4.0296,4.0335,3.9905,3.9609,3.9776,4.0122,4.0416,4.0593,4.1836,4.3088,4.409,4.4285,4.4853,4.6157,4.5015,4.4635,4.5436,4.4605,4.4448,4.5268,4.5665,4.6394,4.7487,4.7835,4.8001,4.8001,4.8001,4.8001,4.8001,4.8001,4.8001,4.8001,4.8001,4.8001,4.7968,4.777,4.777,4.7853,4.7654,4.7721,4.7853,4.7853,4.7935,4.7968,3.6452,3.6534,3.6628,3.6452,3.6405,3.6405,3.6405,3.6405,3.6405,3.6405,3.6405,3.6323,3.6098,3.586,3.562,3.5416,3.5223,3.5175,3.5368,3.5812,3.6098,3.6098,3.6546,3.6968,3.7413,3.7062,3.7108,3.7505,3.7366,3.7307,3.7307,3.7505,3.7307,3.6815,3.7618,3.7972,3.8024,3.8966,3.9689,4.0156,4.0405,4.0252,3.9896,3.9916,4.0118,4.0389,4.059,4.0655,4.0583,4.006,3.9479,3.8884,3.8362,3.8318,3.8565,3.9218,4.0321,4.1149,4.0321,4.0261,4.031,3.9885,3.9484,3.925,3.961,3.9768,3.9991,4.044,4.0454,4.0412,4.072,4.0612,4.0524,4.0627,4.0158,3.9905,4.0193,4.0397,4.0625,4.0815,4.2234,4.3618,4.4641,4.5257,4.604,4.7159,4.5865,4.5421,4.6337,4.523,4.4995,4.6013,4.6593,4.7255,4.8001,4.8001,4.8001,4.8001,4.8001,4.8001,4.8001,4.8001,4.8001,4.8001,4.8001,4.8001,4.8001,4.782,4.7853,4.7968,4.782,4.7853,4.8001,4.8001,4.8001,4.7968,3.6452,3.6534,3.6628,3.6452,3.6405,3.6405,3.6405,3.6405,3.6405,3.6405,3.6405,3.6405,3.6358,3.6146,3.5968,3.5968,3.592,3.592,3.592,3.6228,3.6358,3.6358,3.6828,3.7108,3.7108,3.7307,3.7459,3.7505,3.7703,3.7854,3.7854,3.7854,3.7564,3.7108,3.7848,3.8277,3.8509,3.9237,3.9968,4.0603,4.0083,3.9604,3.9201,3.8806,3.8814,3.9063,3.9257,3.9349,3.9334,3.9276,3.8826,3.8275,3.8217,3.8623,3.9247,3.9857,4.0974,4.1744,4.0452,4.0261,4.031,3.9885,3.9572,3.9409,3.9646,3.998,4.0445,4.1072,4.083,4.0705,4.1401,4.097,4.0608,4.1,4.0342,4.0193,4.1332,4.0793,4.062,4.143,4.2521,4.3553,4.4427,4.4754,4.5325,4.6405,4.5111,4.4698,4.5612,4.5043,4.5334,4.6775,4.6874,4.7255,4.8001,4.8001,4.8001,4.8001,4.8001,4.8001,4.8001,4.8001,4.8001,4.8001,4.8001,4.8001,4.8001,4.7968,4.8001,4.8001,4.7968,4.8001,4.8001,4.8001,4.8001,4.8001,3.6405,3.6452,3.6499,3.6405,3.6405,3.6405,3.6405,3.6405,3.6405,3.6405,3.6405,3.6323,3.6193,3.6051,3.592,3.5777,3.5895,3.5991,3.6015,3.6358,3.6675,3.6828,3.6875,3.7108,3.7611,3.7505,3.7564,3.7749,3.7854,3.79,3.79,3.79,3.7598,3.7155,3.8031,3.8472,3.8554,3.9472,4.0034,4.0322,4.0096,3.9822,3.9519,3.8885,3.9081,3.9634,3.9296,3.9204,3.9204,3.9204,3.8754,3.8202,3.8202,3.8376,3.871,3.9349,4.0162,4.0742,4.0234,4.0339,4.0441,3.9923,3.9609,3.9496,3.9803,3.9996,4.0248,4.0703,4.0639,4.0582,4.0858,4.0674,4.0593,4.0882,4.0733,4.0772,4.1223,4.117,4.119,4.1392,4.2633,4.3747,4.434,4.5193,4.606,4.6827,4.5652,4.547,4.6831,4.6795,4.7007,4.7554,4.7587,4.7719,4.8001,4.8001,4.8001,4.8001,4.8001,4.8001,4.8001,4.8001,4.8001,4.8001,4.8001,4.8001,4.8001,4.8001,4.8001,4.8001,4.8001,4.8001,4.8001,4.8001,4.8001,4.7968,3.6405,3.6499,3.6593,3.6405,3.6405,3.6405,3.6405,3.6405,3.6405,3.6405,3.6405,3.6323,3.6146,3.6146,3.6051,3.5847,3.6073,3.6203,3.6228,3.6593,3.6968,3.7201,3.7108,3.7353,3.79,3.7703,3.7703,3.79,3.79,3.79,3.79,3.79,3.7657,3.7261,3.8181,3.8575,3.8581,3.9587,4.0077,4.0196,4.0124,4.0059,3.9883,3.9129,3.9227,3.9741,3.9117,3.8884,3.8884,3.8884,3.858,3.8202,3.8202,3.8347,3.8609,3.9073,3.9625,4.0017,3.9688,4.0017,4.0321,3.9902,3.9646,3.9589,3.9925,4.0031,4.0172,4.042,4.0489,4.0524,4.0593,4.0593,4.0662,4.0919,4.1034,4.1151,4.1221,4.1355,4.1439,4.139,4.2769,4.3749,4.3866,4.525,4.6231,4.6481,4.58,4.5961,4.7292,4.777,4.7968,4.7886,4.7968,4.8001,4.8001,4.8001,4.8001,4.8001,4.8001,4.8001,4.8001,4.8001,4.8001,4.8001,4.8001,4.8001,4.8001,4.8001,4.8001,4.8001,4.8001,4.8001,4.8001,4.8001,4.8001,4.7968,3.6499,3.6781,3.6968,3.6499,3.6405,3.6405,3.6417,3.6405,3.6405,3.6405,3.6405,3.6405,3.6405,3.6405,3.6405,3.6405,3.6581,3.6709,3.6709,3.6968,3.7214,3.7505,3.7762,3.79,3.79,3.79,3.79,3.79,3.79,3.79,3.79,3.79,3.7762,3.7551,3.8285,3.8602,3.8647,3.9601,4.014,4.0386,4.0168,4.0232,4.0281,3.9276,3.9049,3.9117,3.8449,3.8202,3.8202,3.8202,3.8202,3.8202,3.8202,3.8667,3.9189,3.9204,3.9625,3.9852,3.8792,3.9148,3.9799,3.9799,3.9742,3.9768,3.996,4.0172,4.0331,4.0455,4.0489,4.0558,4.0765,4.0799,4.0901,4.1256,4.1187,4.1236,4.1555,4.1321,4.1236,4.1555,4.2821,4.3509,4.2946,4.4664,4.5582,4.5049,4.5339,4.5843,4.6568,4.7489,4.7886,4.7704,4.7902,4.8001,4.8001,4.8001,4.8001,4.8001,4.8001,4.8001,4.8001,4.8001,4.8001,4.8001,4.8001,4.8001,4.8001,4.8001,4.8001,4.8001,4.8001,4.8001,4.8001,4.8001,4.8001,4.8001,3.6405,3.664,3.6769,3.6628,3.6628,3.6675,3.6875,3.6593,3.6452,3.6581,3.6499,3.6405,3.6405,3.6405,3.6405,3.6405,3.6781,3.7155,3.7505,3.7459,3.7505,3.7762,3.7657,3.7703,3.79,3.79,3.79,3.79,3.79,3.79,3.79,3.79,3.7762,3.7551,3.8285,3.8602,3.8647,3.9601,3.9963,3.9929,4.0206,4.0439,4.057,3.9487,3.9426,3.9683,3.8594,3.8202,3.8202,3.8202,3.8202,3.8202,3.8202,3.8333,3.8594,3.9059,3.9334,3.9417,3.9253,3.9486,3.9719,3.941,3.9508,3.9768,3.996,4.0172,4.0331,4.0455,4.0489,4.0558,4.0765,4.0799,4.0867,4.112,4.1135,4.1102,4.1021,4.1052,4.1151,4.1236,4.2563,4.3491,4.3443,4.5005,4.6019,4.6108,4.6699,4.6995,4.6811,4.7571,4.7968,4.7886,4.7968,4.8001,4.8001,4.8001,4.8001,4.8001,4.8001,4.8001,4.8001,4.8001,4.8001,4.8001,4.8001,4.8001,4.8001,4.8001,4.8001,4.8001,4.8001,4.8001,4.8001,4.8001,4.8001,4.8084,3.6405,3.664,3.6815,3.6628,3.6675,3.6722,3.6828,3.6593,3.6452,3.6581,3.6499,3.6452,3.6499,3.6546,3.6546,3.6546,3.6875,3.7307,3.7854,3.7749,3.7703,3.79,3.7749,3.7749,3.79,3.79,3.79,3.79,3.79,3.79,3.79,3.79,3.7808,3.7703,3.833,3.8634,3.8756,3.9645,4.0034,4.0154,4.0629,4.0791,4.0694,3.988,3.9639,3.961,3.8565,3.8202,3.8202,3.8202,3.8202,3.8246,3.8507,3.8405,3.8333,3.9,3.9204,3.9208,3.9235,3.9517,3.9727,3.9319,3.9466,3.9768,3.996,4.0101,4.0261,4.0558,4.0558,4.0593,4.0935,4.0987,4.1037,4.1153,4.1135,4.1177,4.1392,4.1336,4.1479,4.1935,4.302,4.3674,4.3602,4.4878,4.5968,4.6439,4.6962,4.7243,4.7225,4.772,4.7968,4.7886,4.7968,4.8033,4.8082,4.8033,4.8001,4.8001,4.8001,4.8001,4.8001,4.8001,4.8001,4.8001,4.8001,4.8001,4.8001,4.8001,4.8001,4.8001,4.8001,4.8001,4.8001,4.8001,4.8183,4.8514,3.6515,3.6857,3.707,3.6685,3.678,3.6861,3.6622,3.6575,3.6515,3.6465,3.6452,3.6546,3.6722,3.6722,3.6722,3.6722,3.6968,3.7307,3.7854,3.7854,3.7854,3.79,3.79,3.79,3.79,3.79,3.79,3.79,3.79,3.79,3.79,3.79,3.79,3.79,3.8421,3.8711,3.8953,3.9733,4.03,4.073,4.1128,4.1106,4.0723,4.0188,3.9668,3.9117,3.8449,3.8202,3.8202,3.8202,3.8202,3.8318,3.8986,3.8739,3.8333,3.9,3.9204,3.9159,3.89,3.932,3.9764,3.948,3.9553,3.9768,3.9925,3.9996,4.0172,4.0662,4.0627,4.0696,4.1189,4.129,4.129,4.129,4.1187,4.1385,4.2244,4.1938,4.203,4.3247,4.3897,4.4049,4.3553,4.4595,4.5633,4.6306,4.6569,4.6996,4.7704,4.7886,4.7935,4.7737,4.7886,4.8049,4.8195,4.8082,4.8033,4.8033,4.8033,4.8033,4.8033,4.8033,4.8001,4.8001,4.8001,4.8001,4.8001,4.8001,4.8001,4.8001,4.8001,4.8001,4.8001,4.8001,4.8465,4.911,3.7222,3.7597,3.7989,3.8508,3.8633,3.8479,3.8041,3.7787,3.7492,3.7032,3.6968,3.6968,3.7015,3.7015,3.7015,3.7015,3.7062,3.7307,3.7854,3.7703,3.7703,3.79,3.79,3.79,3.79,3.79,3.79,3.79,3.79,3.79,3.79,3.79,3.79,3.7946,3.8575,3.8863,3.8953,3.9922,4.0457,4.0702,4.0477,4.054,4.068,3.9592,3.9189,3.9117,3.8449,3.8202,3.8202,3.8202,3.8202,3.8318,3.8986,3.8739,3.8333,3.9,3.9304,3.9335,3.8937,3.938,3.9921,3.9516,3.9676,3.9925,3.9803,4.0016,4.0277,4.0366,4.0558,4.0799,4.1086,4.1239,4.129,4.129,4.1187,4.1351,4.2075,4.1926,4.2105,4.3071,4.3932,4.438,4.4212,4.5451,4.6426,4.6752,4.7191,4.7605,4.7919,4.7968,4.7968,4.7935,4.7968,4.8049,4.8195,4.8163,4.8227,4.8388,4.8227,4.8179,4.8179,4.8179,4.8115,4.8001,4.8001,4.8001,4.8001,4.8001,4.8001,4.8001,4.8001,4.8049,4.813,4.8033,4.8547,4.9327,3.7067,3.7597,3.813,3.8556,3.8923,3.9036,3.8643,3.846,3.8172,3.7608,3.7531,3.7476,3.7286,3.7307,3.7353,3.7459,3.7353,3.7459,3.7854,3.7762,3.7749,3.79,3.79,3.79,3.79,3.79,3.7946,3.8057,3.7946,3.7933,3.8057,3.7933,3.79,3.7946,3.8607,3.8953,3.9145,4.0023,4.0587,4.0802,4.0279,4.0199,4.0233,3.9254,3.8847,3.8681,3.8333,3.8202,3.8202,3.8202,3.8202,3.8376,3.9334,3.9189,3.8797,3.9436,3.9921,4.0047,3.9061,3.9579,4.0247,3.9555,3.964,3.9839,3.9839,4.0101,4.0381,4.0624,4.0746,4.0901,4.1288,4.1406,4.1423,4.1323,4.1239,4.1565,4.2582,4.2548,4.2852,4.4095,4.4673,4.5002,4.5059,4.6003,4.6687,4.6876,4.7404,4.7787,4.8001,4.8001,4.8033,4.8082,4.8082,4.8212,4.8468,4.8388,4.8483,4.8753,4.8452,4.8292,4.8195,4.8195,4.8163,4.8082,4.8033,4.8001,4.8001,4.8001,4.8001,4.8001,4.8049,4.8147,4.8245,4.8644,4.9443,5.0425,3.6848,3.7629,3.8255,3.8405,3.9075,3.9447,3.91,3.9074,3.8881,3.8293,3.8139,3.799,3.7746,3.7616,3.7657,3.79,3.7657,3.7598,3.79,3.7854,3.7854,3.79,3.79,3.79,3.79,3.7946,3.8024,3.8167,3.7979,3.7979,3.8167,3.7979,3.79,3.7946,3.8666,3.91,3.9349,4.011,4.0659,4.0944,4.0321,4.0016,3.9902,3.9114,3.865,3.8362,3.8246,3.8202,3.8202,3.8202,3.8202,3.842,3.9697,3.9683,3.932,3.9954,4.0575,4.0738,3.9261,3.9742,4.0467,3.9614,3.9553,3.9768,3.996,4.0172,4.0416,4.0864,4.0882,4.1003,4.1439,4.1555,4.1555,4.139,4.1323,4.181,4.3242,4.329,4.3751,4.5306,4.5515,4.5625,4.5807,4.6404,4.6807,4.6945,4.7471,4.7853,4.8001,4.8033,4.8082,4.8195,4.8227,4.8436,4.8786,4.8627,4.869,4.897,4.8673,4.8452,4.8292,4.8292,4.8292,4.826,4.8115,4.8099,4.8099,4.8099,4.8066,4.8066,4.8179,4.8311,4.856,4.9623,5.0677,5.1659,3.7667,3.8457,3.9239,3.9963,4.0585,4.0757,4.0052,4.006,3.9901,3.9162,3.8787,3.859,3.8559,3.8128,3.7854,3.79,3.7657,3.7598,3.79,3.7703,3.7657,3.79,3.79,3.79,3.79,3.8044,3.8089,3.7946,3.79,3.79,3.7946,3.79,3.79,3.7946,3.8859,3.9261,3.9349,4.027,4.0773,4.0944,4.0139,4.0163,4.0495,3.9089,3.8783,3.8986,3.8405,3.8202,3.8202,3.8202,3.8202,3.842,3.9697,3.9683,3.9358,4.0125,4.0583,4.0595,3.9365,3.9728,4.0278,3.9568,3.9553,3.9768,3.996,4.0172,4.0312,4.0381,4.0761,4.1068,4.1135,4.1406,4.1588,4.1555,4.1423,4.1844,4.3447,4.3481,4.3878,4.5342,4.5662,4.5844,4.604,4.6823,4.7252,4.7183,4.777,4.8098,4.8001,4.8115,4.8163,4.8195,4.8356,4.8564,4.8818,4.8769,4.8769,4.8849,4.8769,4.8755,4.8707,4.8707,4.8627,4.8452,4.8452,4.842,4.842,4.842,4.8324,4.8163,4.8195,4.8692,4.9589,5.1178,5.1782,5.1831,3.7894,3.8926,3.9842,4.0321,4.0919,4.1182,4.0809,4.0533,4.0164,3.952,3.8981,3.8593,3.8292,3.8044,3.79,3.79,3.7808,3.7749,3.79,3.7808,3.7762,3.79,3.79,3.79,3.79,3.8089,3.8167,3.8057,3.8194,3.8298,3.8298,3.8298,3.8298,3.8344,3.9114,3.9455,3.953,4.0343,4.073,4.076,4.0069,4.0108,4.0419,3.9039,3.8788,3.9117,3.8449,3.8202,3.8202,3.8202,3.8202,3.8362,3.9305,3.9654,3.9755,4.0149,4.0656,4.0881,3.9786,3.9839,4.0099,3.9553,3.964,3.9889,3.996,4.0207,4.0436,4.0574,4.0864,4.1226,4.1753,4.2053,4.2205,4.2205,4.2138,4.2451,4.3545,4.3602,4.4087,4.5488,4.5859,4.5988,4.6112,4.6839,4.7268,4.7217,4.7754,4.8049,4.8001,4.8066,4.8115,4.8195,4.8388,4.8595,4.8818,4.8818,4.8818,4.8818,4.8818,4.8818,4.8786,4.8675,4.8627,4.8658,4.8547,4.8515,4.8515,4.8515,4.8388,4.8261,4.8905,4.9953,5.1192,5.1948,5.2287,5.2451]}]]